[[{"header":{"parameterUnit":"m.s-1","parameterCategory":1,"la1":30.6,"la2":29.2853,"lo1":-89.7004,"lo2":-87.6739,"dy":0.0162,"dx":0.0183,"nx":112,"ny":82,"refTime":"2024-08-24T18:00:00:Z","depth":0,"parameterNumber":2,"parameterNumberName":"U-component_of_WINDS"},"data":[0.0,0.0,0.0,0.0,0.0,0.0,0.0,0.0,0.0,0.0,0.0,0.0,0.0,0.0,0.0,0.0,0.0,0.0,0.0,0.0,0.0,0.0,0.0,0.0,0.0,0.0,0.0,0.0,0.0,0.0,0.0,0.0,0.0,0.0,0.0,0.0,0.0,0.0,0.0,0.0,0.0,0.0,0.0,0.0,0.0,0.0,0.0,0.0,0.0,0.0,0.0,0.0,0.0,0.0,0.0,0.0,0.0,0.0,0.0,0.0,0.0,0.0,0.0,0.0,0.0,0.0,0.0,0.0,0.0,0.0,0.0,0.0,0.0,0.0,0.0,0.0,0.0,0.0,0.0,0.0,0.0,0.0,0.0,0.0,0.0,0.0,0.0,0.0,0.0,0.0,-0.7698,-0.9815,-1.1102,-1.1783,-1.1725,-1.1636,-1.0942,-0.9471,0.0,0.0,0.0,0.0,0.0,0.0,0.0,0.0,0.0,0.0,0.0,0.0,0.0,0.0,0.0,0.0,0.0,0.0,0.0,0.0,0.0,0.0,0.0,0.0,0.0,0.0,0.0,0.0,0.0,0.0,0.0,0.0,0.0,0.0,0.0,0.0,0.0,0.0,0.0,0.0,0.0,0.0,0.0,0.0,0.0,0.0,0.0,0.0,0.0,0.0,0.0,0.0,0.0,0.0,0.0,0.0,0.0,0.0,0.0,0.0,0.0,0.0,0.0,0.0,0.0,0.0,0.0,0.0,0.0,0.0,0.0,0.0,0.0,0.0,0.0,0.0,0.0,0.0,0.0,0.0,0.0,0.0,0.0,0.0,0.0,0.0,0.0,0.0,0.0,0.0,0.0,0.0,0.0,0.0,0.0,0.0,0.0,0.0,0.0,0.0,0.0,0.0,0.0,0.0,-0.7863,-1.0394,-1.1356,-1.1681,-1.14,-1.0915,-1.0094,-0.8901,0.0,0.0,0.0,0.0,0.0,0.0,0.0,0.0,0.0,0.0,0.0,0.0,0.0,0.0,0.0,0.0,0.0,0.0,0.0,0.0,0.0,0.0,0.0,0.0,0.0,0.0,0.0,0.0,0.0,0.0,0.0,0.0,0.0,0.0,0.0,0.0,0.0,0.0,0.0,0.0,0.0,0.0,0.0,0.0,0.0,0.0,0.0,0.0,0.0,0.0,0.0,0.0,0.0,0.0,0.0,0.0,0.0,0.0,0.0,0.0,0.0,0.0,0.0,0.0,0.0,0.0,0.0,0.0,0.0,0.0,0.0,0.0,0.0,0.0,0.0,0.0,0.0,0.0,0.0,0.0,0.0,0.0,0.0,0.0,0.0,0.0,0.0,0.0,0.0,0.0,0.0,0.0,0.0,0.0,0.0,0.0,0.0,0.0,0.0,0.0,0.0,0.0,0.0,-0.8109,-0.9246,-1.1136,-1.1625,-1.1736,-1.1579,-1.1151,-1.0349,-0.9055,-0.7965,0.0,0.0,0.0,0.0,0.0,0.0,0.0,0.0,0.0,0.0,0.0,0.0,0.0,0.0,0.0,0.0,0.0,0.0,0.0,0.0,0.0,0.0,0.0,0.0,0.0,0.0,0.0,0.0,0.0,0.0,0.0,0.0,0.0,0.0,0.0,0.0,0.0,0.0,0.0,0.0,0.0,0.0,0.0,0.0,0.0,0.0,0.0,0.0,0.0,0.0,0.0,0.0,0.0,0.0,0.0,0.0,0.0,0.0,0.0,0.0,0.0,0.0,0.0,0.0,0.0,0.0,0.0,0.0,0.0,0.0,0.0,0.0,0.0,0.0,0.0,0.0,0.0,0.0,0.0,0.0,0.0,0.0,0.0,0.0,0.0,0.0,0.0,0.0,0.0,0.0,0.0,0.0,0.0,0.0,0.0,0.0,0.0,0.0,0.0,0.0,0.0,0.0,-0.9488,-1.0383,-1.1655,-1.1725,-1.1659,-1.1593,-1.1169,-1.0347,-0.9069,-0.7626,0.0,0.0,0.0,0.0,0.0,0.0,0.0,0.0,0.0,0.0,0.0,0.0,0.0,0.0,0.0,0.0,0.0,0.0,0.0,0.0,0.0,0.0,0.0,0.0,0.0,0.0,0.0,0.0,0.0,0.0,0.0,0.0,0.0,0.0,0.0,0.0,0.0,0.0,0.0,0.0,0.0,0.0,0.0,0.0,0.0,0.0,0.0,0.0,0.0,0.0,0.0,0.0,0.0,0.0,0.0,0.0,0.0,0.0,0.0,0.0,0.0,0.0,0.0,0.0,0.0,0.0,0.0,0.0,0.0,0.0,0.0,0.0,0.0,0.0,0.0,0.0,0.0,0.0,0.0,0.0,0.0,0.0,0.0,0.0,0.0,0.0,0.0,0.0,0.0,0.0,0.0,0.0,0.0,0.0,0.0,0.0,0.0,0.0,0.0,0.0,0.0,0.0,-0.9488,-1.0383,-1.1655,-1.1523,-1.123,-1.0991,-1.0203,-0.9322,-0.8423,-0.6868,0.0,0.0,0.0,0.0,0.0,0.0,0.0,0.0,0.0,0.0,0.0,0.0,0.0,0.0,0.0,0.0,0.0,0.0,0.0,0.0,0.0,0.0,0.0,0.0,0.0,0.0,0.0,0.0,0.0,0.0,0.0,0.0,0.0,0.0,0.0,0.0,0.0,0.0,0.0,0.0,0.0,0.0,0.0,0.0,0.0,0.0,0.0,0.0,0.0,0.0,0.0,0.0,0.0,0.0,0.0,0.0,0.0,0.0,0.0,0.0,0.0,0.0,0.0,0.0,0.0,0.0,0.0,0.0,0.0,0.0,0.0,0.0,0.0,0.0,0.0,0.0,0.0,0.0,0.0,0.0,0.0,0.0,0.0,0.0,0.0,0.0,0.0,0.0,0.0,0.0,0.0,0.0,0.0,0.0,0.0,0.0,0.0,0.0,0.0,0.0,0.0,0.0,-0.9488,-1.0383,0.0,-1.1692,-1.1571,-1.1471,-1.0473,-0.9559,-0.8904,0.0,0.0,0.0,0.0,0.0,0.0,0.0,0.0,0.0,0.0,0.0,0.0,0.0,0.0,0.0,0.0,0.0,0.0,0.0,0.0,0.0,0.0,0.0,0.0,0.0,0.0,0.0,0.0,0.0,0.0,0.0,0.0,0.0,0.0,0.0,0.0,0.0,0.0,0.0,0.0,0.0,0.0,0.0,0.0,0.0,0.0,0.0,0.0,0.0,0.0,0.0,0.0,0.0,0.0,0.0,0.0,0.0,0.0,0.0,0.0,0.0,0.0,0.0,0.0,0.0,0.0,0.0,0.0,0.0,0.0,0.0,0.0,0.0,0.0,0.0,0.0,0.0,0.0,0.0,0.0,0.0,0.0,0.0,0.0,0.0,0.0,0.0,0.0,0.0,0.0,0.0,0.0,0.0,0.0,0.0,0.0,0.0,0.0,0.0,0.0,0.0,0.0,-0.8934,-0.9614,-1.0383,0.0,-1.1703,-1.1615,-1.1516,-1.032,-0.9394,-0.8938,0.0,0.0,0.0,0.0,0.0,0.0,0.0,0.0,0.0,0.0,0.0,0.0,0.0,0.0,0.0,0.0,0.0,0.0,0.0,0.0,0.0,0.0,0.0,0.0,0.0,0.0,0.0,0.0,0.0,0.0,0.0,0.0,0.0,0.0,0.0,0.0,0.0,0.0,0.0,0.0,0.0,0.0,0.0,0.0,0.0,0.0,0.0,0.0,0.0,0.0,0.0,0.0,0.0,0.0,0.0,0.0,0.0,0.0,0.0,0.0,0.0,0.0,0.0,0.0,0.0,0.0,0.0,0.0,0.0,0.0,0.0,0.0,0.0,0.0,0.0,0.0,0.0,0.0,0.0,0.0,0.0,0.0,0.0,0.0,0.0,0.0,0.0,0.0,0.0,0.0,0.0,0.0,0.0,0.0,0.0,0.0,0.0,0.0,0.0,0.0,0.0,0.0,-0.9561,-0.989,-1.0383,-1.167,-1.1501,-1.1184,-1.092,-0.9549,-0.8586,0.0,0.0,0.0,0.0,0.0,0.0,0.0,0.0,0.0,0.0,0.0,0.0,0.0,0.0,0.0,0.0,0.0,0.0,0.0,0.0,0.0,0.0,0.0,0.0,0.0,0.0,0.0,0.0,0.0,0.0,0.0,0.0,0.0,0.0,0.0,0.0,0.0,0.0,0.0,0.0,0.0,0.0,0.0,0.0,0.0,0.0,0.0,0.0,0.0,0.0,0.0,0.0,0.0,0.0,0.0,0.0,0.0,0.0,0.0,0.0,0.0,0.0,0.0,0.0,0.0,0.0,0.0,0.0,0.0,0.0,0.0,0.0,0.0,0.0,0.0,0.0,0.0,0.0,0.0,0.0,0.0,0.0,0.0,0.0,0.0,0.0,0.0,0.0,0.0,0.0,0.0,0.0,0.0,0.0,0.0,0.0,0.0,0.0,0.0,0.0,0.0,0.0,0.0,-0.9528,-0.9732,-1.0088,-1.1326,-1.1352,-1.1184,-1.092,-0.9549,-0.8666,-0.8586,0.0,0.0,0.0,0.0,0.0,0.0,0.0,0.0,0.0,0.0,0.0,0.0,0.0,0.0,0.0,0.0,0.0,0.0,0.0,0.0,0.0,0.0,0.0,0.0,0.0,0.0,0.0,0.0,0.0,0.0,0.0,0.0,0.0,0.0,0.0,0.0,0.0,0.0,0.0,0.0,0.0,0.0,0.0,0.0,0.0,0.0,0.0,0.0,0.0,0.0,0.0,0.0,0.0,0.0,0.0,0.0,0.0,0.0,0.0,0.0,0.0,0.0,0.0,0.0,0.0,0.0,0.0,0.0,0.0,0.0,0.0,0.0,0.0,0.0,0.0,0.0,0.0,0.0,0.0,0.0,0.0,0.0,0.0,0.0,0.0,0.0,0.0,0.0,0.0,0.0,0.0,0.0,0.0,0.0,0.0,0.0,0.0,0.0,0.0,0.0,0.0,0.0,-0.9375,-0.9513,-0.9836,-1.1155,-1.1207,-1.1022,-1.0727,-0.9687,-0.8909,-0.856,0.0,0.0,0.0,0.0,0.0,0.0,0.0,0.0,0.0,0.0,0.0,0.0,0.0,0.0,0.0,0.0,0.0,0.0,0.0,0.0,0.0,0.0,0.0,0.0,0.0,0.0,0.0,0.0,0.0,0.0,0.0,0.0,0.0,0.0,0.0,0.0,0.0,0.0,0.0,0.0,0.0,0.0,0.0,0.0,0.0,0.0,0.0,0.0,0.0,0.0,0.0,0.0,0.0,0.0,0.0,0.0,0.0,0.0,0.0,0.0,0.0,0.0,0.0,0.0,0.0,0.0,0.0,0.0,0.0,0.0,0.0,0.0,0.0,0.0,0.0,0.0,0.0,0.0,0.0,0.0,0.0,0.0,0.0,0.0,0.0,0.0,0.0,0.0,0.0,0.0,0.0,0.0,0.0,0.0,0.0,0.0,0.0,0.0,0.0,0.0,0.0,0.0,-0.9193,-0.9355,-0.9768,-1.1158,-1.1059,-1.0751,-1.0434,-0.9882,-0.9193,-0.8347,0.0,0.0,0.0,0.0,0.0,0.0,0.0,0.0,0.0,0.0,0.0,0.0,0.0,0.0,0.0,0.0,0.0,0.0,0.0,0.0,0.0,0.0,0.0,0.0,0.0,0.0,0.0,0.0,0.0,0.0,0.0,0.0,0.0,0.0,0.0,0.0,0.0,0.0,0.0,0.0,0.0,0.0,0.0,0.0,0.0,0.0,0.0,0.0,0.0,0.0,0.0,0.0,0.0,0.0,0.0,0.0,0.0,0.0,0.0,0.0,-0.5656,-0.4958,0.0,0.0,0.0,0.0,0.0,0.0,0.0,0.0,0.0,0.0,0.0,0.0,0.0,0.0,0.0,0.0,0.0,0.0,0.0,0.0,0.0,0.0,0.0,0.0,0.0,0.0,0.0,0.0,0.0,0.0,0.0,0.0,0.0,0.0,0.0,0.0,0.0,0.0,0.0,0.0,-0.9508,-1.0035,-1.0483,-1.1224,-1.1059,-1.0751,-1.0434,-0.9656,-0.8955,-0.8336,-0.7122,0.0,0.0,0.0,0.0,0.0,0.0,0.0,0.0,0.0,0.0,0.0,0.0,0.0,0.0,0.0,0.0,0.0,0.0,0.0,0.0,0.0,0.0,0.0,0.0,0.0,0.0,0.0,0.0,0.0,0.0,0.0,0.0,0.0,0.0,0.0,0.0,0.0,0.0,0.0,0.0,0.0,0.0,0.0,0.0,0.0,0.0,0.0,0.0,0.0,0.0,0.0,0.0,0.0,0.0,0.0,0.0,0.0,0.0,0.0,-0.7389,-0.6629,0.0,0.0,0.0,0.0,0.0,0.0,0.0,0.0,0.0,0.0,0.0,0.0,0.0,0.0,0.0,0.0,0.0,0.0,0.0,0.0,0.0,0.0,0.0,0.0,0.0,0.0,0.0,0.0,0.0,0.0,0.0,0.0,0.0,0.0,0.0,0.0,0.0,0.0,0.0,0.0,-0.9091,-0.9616,-1.0089,-1.0786,-1.0605,-1.0348,-1.0173,-0.9741,-0.9252,-0.8724,-0.7623,0.0,0.0,0.0,0.0,0.0,0.0,0.0,0.0,0.0,0.0,0.0,0.0,0.0,0.0,0.0,0.0,0.0,0.0,0.0,0.0,0.0,0.0,0.0,0.0,0.0,0.0,0.0,0.0,0.0,0.0,0.0,0.0,0.0,0.0,0.0,0.0,0.0,0.0,0.0,0.0,0.0,0.0,0.0,0.0,0.0,0.0,0.0,0.0,0.0,0.0,0.0,0.0,0.0,-1.0729,-1.0591,-1.0607,-1.0251,-1.0277,-1.0581,-0.9877,-0.9072,-0.822,-0.7891,0.0,0.0,0.0,0.0,0.0,0.0,0.0,0.0,0.0,0.0,0.0,0.0,0.0,0.0,0.0,0.0,0.0,0.0,0.0,0.0,0.0,0.0,-0.822,-0.8888,-0.9639,-0.9818,-0.844,0.0,0.0,0.0,0.0,0.0,0.0,0.0,0.0,0.0,0.0,0.0,-0.8871,-0.9349,-0.9823,-1.0552,-1.0328,-1.0084,-0.9995,-0.9944,-0.9679,-0.9138,-0.8212,-0.7453,0.0,0.0,0.0,0.0,0.0,0.0,0.0,0.0,0.0,0.0,0.0,0.0,0.0,0.0,0.0,0.0,0.0,0.0,0.0,0.0,0.0,0.0,0.0,0.0,0.0,0.0,0.0,0.0,0.0,0.0,0.0,0.0,-0.4857,-0.5152,0.0,0.0,0.0,0.0,0.0,0.0,0.0,0.0,0.0,0.0,0.0,0.0,0.0,-1.0682,-1.096,-1.2,-1.2584,-1.27,-1.367,-1.3889,-1.347,-1.3874,-1.3828,-1.3499,-1.4294,0.0,-0.9629,-0.9579,0.0,0.0,0.0,0.0,0.0,0.0,0.0,0.0,0.0,0.0,0.0,0.0,0.0,0.0,0.0,0.0,0.0,0.0,0.0,0.0,0.0,0.0,-1.0919,-1.0528,-1.0919,-1.1326,-1.1086,-0.9969,-0.8787,-0.811,-0.7601,-0.6962,0.0,0.0,0.0,0.0,0.0,0.0,-1.0216,-1.0989,-1.1396,-1.1516,-1.1229,-1.0834,-1.0374,-1.0072,-0.9679,-0.9138,-0.8962,-0.8636,-0.8087,-0.7059,0.0,0.0,0.0,0.0,0.0,0.0,0.0,0.0,0.0,0.0,0.0,0.0,0.0,0.0,0.0,0.0,0.0,0.0,0.0,0.0,0.0,0.0,0.0,0.0,0.0,0.0,0.0,0.0,0.0,-0.5326,-0.6078,-0.6082,-0.6474,-0.6521,0.0,0.0,0.0,0.0,0.0,0.0,0.0,0.0,0.0,-1.147,-1.251,-1.3451,-1.4289,-1.4818,-1.5153,-1.5303,-1.5846,-1.5844,-1.5408,-1.5644,-1.5627,-1.5421,-1.5889,-1.5167,-1.3502,-1.2273,-1.1269,-1.0409,0.0,0.0,0.0,0.0,-0.9561,-0.9775,-1.0424,-1.045,-1.0206,-1.0223,0.0,0.0,0.0,0.0,0.0,0.0,0.0,-1.0113,-1.0953,-1.1837,-1.2513,-1.2596,-1.3036,-1.3363,-1.3065,-1.2168,-1.1059,-0.988,-0.9704,-0.9251,-0.7653,-0.7538,0.0,0.0,0.0,-0.9425,-1.0561,-1.125,-1.1643,-1.1643,-1.1516,-1.1186,-1.0623,-1.0425,-1.0118,-0.9591,-0.9265,-0.9,-0.8762,-0.7985,-0.726,0.0,0.0,0.0,0.0,0.0,0.0,0.0,0.0,0.0,0.0,0.0,0.0,0.0,0.0,0.0,0.0,0.0,0.0,0.0,0.0,0.0,0.0,0.0,0.0,0.0,0.0,0.0,0.0,-0.6294,-0.7303,-0.7402,-0.819,-0.8401,0.0,0.0,0.0,0.0,0.0,0.0,-1.1184,-1.2572,-1.3611,-1.4189,-1.4933,-1.5847,-1.695,-1.713,-1.7314,-1.7505,-1.7683,-1.7548,-1.7128,-1.7253,-1.7235,-1.7128,-1.7253,-1.7235,-1.6951,-1.4724,-1.3338,-1.2522,-1.1396,-1.0942,-1.0992,-1.124,-1.1447,-1.1688,-1.2542,-1.2571,-1.2256,-1.2395,-1.1843,-1.1045,-1.064,0.0,0.0,0.0,0.0,-1.1801,-1.278,-1.3345,-1.376,-1.4198,-1.4614,-1.479,-1.4387,-1.3954,-1.314,-1.146,-1.1387,-1.1082,-0.9427,-0.9346,0.0,-0.918,-0.9691,-1.0344,-1.1046,-1.1538,-1.1801,-1.1801,-1.1801,-1.1563,-1.0983,-1.0795,-1.0532,-1.0131,-0.9592,-0.9302,-0.9302,-0.88,-0.8047,-0.7059,0.0,0.0,0.0,0.0,0.0,0.0,0.0,0.0,0.0,0.0,0.0,0.0,0.0,0.0,0.0,0.0,0.0,0.0,0.0,0.0,0.0,0.0,0.0,0.0,0.0,0.0,0.0,0.0,0.0,-0.9265,-1.0024,0.0,0.0,0.0,0.0,-1.13,-1.2122,-1.2778,-1.3136,-1.4735,-1.5802,-1.6147,-1.7062,-1.7578,-1.7637,-1.8281,-1.861,-1.8623,-1.9268,-1.9284,-1.8792,-1.9302,-1.9266,-1.8811,-1.9335,-1.9247,-1.8611,-1.6391,-1.5452,-1.5288,-1.4216,-1.3781,-1.3745,-1.3251,-1.3433,-1.3939,-1.4002,-1.4002,-1.4065,-1.4576,-1.3967,-1.3056,-1.3018,-1.2672,0.0,0.0,-1.3483,-1.406,-1.4639,-1.4783,-1.4808,-1.4846,-1.4871,-1.4884,-1.4878,-1.4833,-1.4318,-1.2642,-1.1927,-1.1389,-1.0709,0.0,-1.062,-1.0608,-1.0632,-1.1071,-1.2162,-1.2337,-1.235,-1.235,-1.235,-1.214,-1.1588,-1.1034,-1.0681,-1.0656,-1.0169,-0.9855,-0.9855,-0.934,-0.8787,-0.8236,-0.7159,0.0,0.0,0.0,0.0,0.0,0.0,0.0,0.0,0.0,0.0,0.0,0.0,0.0,0.0,0.0,0.0,0.0,0.0,0.0,0.0,0.0,0.0,0.0,0.0,0.0,0.0,0.0,0.0,-1.0534,-1.1639,0.0,-1.182,-1.2908,-1.3566,-1.3438,-1.4599,-1.5355,-1.5477,-1.6875,-1.7727,-1.7835,-1.8591,-1.8986,-1.8986,-1.9211,-1.9348,-1.9346,-1.9588,-1.9603,-1.9424,-1.9603,-1.9603,-1.9424,-1.9621,-1.9584,-1.9346,-1.8564,-1.7427,-1.614,-1.5757,-1.5176,-1.4593,-1.4743,-1.4934,-1.5135,-1.5135,-1.5135,-1.5097,-1.4947,-1.4632,-1.4287,-1.4287,-1.4149,-1.4111,-1.4664,-1.4952,-1.5248,-1.5781,-1.5932,-1.5932,-1.5932,-1.5932,-1.5831,-1.548,-1.5412,-1.5148,-1.4192,-1.3853,-1.3426,-1.2475,-1.2309,-1.2184,-1.1848,-1.1798,-1.2074,-1.281,-1.2897,-1.2897,-1.2897,-1.2897,-1.2701,-1.2165,-1.16,-1.1109,-1.0719,-1.0193,-0.9905,-0.9905,-0.9717,-0.9202,-0.8324,-0.7899,-0.7068,0.0,0.0,0.0,0.0,0.0,0.0,0.0,0.0,0.0,0.0,0.0,0.0,0.0,0.0,0.0,0.0,0.0,0.0,0.0,0.0,0.0,0.0,0.0,0.0,0.0,-1.0231,-1.1652,-1.2339,-1.354,-1.4213,-1.3934,-1.5058,-1.5712,-1.5595,-1.6695,-1.7369,-1.7369,-1.8431,-1.9031,-1.9031,-1.9468,-1.9708,-1.9708,-1.9708,-1.9708,-1.9708,-1.9708,-1.9708,-1.9708,-1.9708,-1.9708,-1.969,-1.9512,-1.9424,-1.9424,-1.9225,-1.8314,-1.7066,-1.7237,-1.6756,-1.6003,-1.6177,-1.6132,-1.5969,-1.5969,-1.5969,-1.5906,-1.5563,-1.5449,-1.5449,-1.5449,-1.5449,-1.5505,-1.5869,-1.5969,-1.6057,-1.64,-1.65,-1.65,-1.65,-1.65,-1.64,-1.6057,-1.5969,-1.5869,-1.5512,-1.5148,-1.4657,-1.3892,-1.3767,-1.3641,-1.3295,-1.3245,-1.337,-1.3735,-1.3622,-1.3509,-1.3509,-1.3328,-1.3048,-1.2701,-1.2015,-1.1425,-1.1034,-1.032,-0.9905,-0.9905,-0.9717,-0.9202,-0.8324,-0.81,-0.746,-0.6344,0.0,0.0,0.0,0.0,0.0,0.0,0.0,0.0,0.0,0.0,0.0,0.0,0.0,0.0,0.0,0.0,0.0,0.0,0.0,0.0,0.0,0.0,0.0,-1.0345,-1.1899,-1.3527,-1.472,-1.5768,-1.6485,-1.6738,-1.7369,-1.7773,-1.7773,-1.8356,-1.8732,-1.8732,-1.9346,-1.9708,-1.9708,-1.9708,-1.9708,-1.9708,-1.9708,-1.9708,-1.9708,-1.9708,-1.9708,-1.9708,-1.9708,-1.9708,-1.9672,-1.9151,-1.893,-1.8874,-1.8361,-1.8125,-1.8185,-1.8669,-1.8554,-1.8007,-1.7483,-1.6951,-1.65,-1.65,-1.65,-1.65,-1.65,-1.65,-1.65,-1.65,-1.65,-1.65,-1.65,-1.65,-1.65,-1.65,-1.65,-1.65,-1.65,-1.65,-1.65,-1.65,-1.65,-1.65,-1.65,-1.5655,-1.4947,-1.4947,-1.4934,-1.4909,-1.4909,-1.4916,0.0,-1.4896,-1.4437,-1.4116,-1.4103,-1.3584,-1.3223,-1.3198,-1.2241,-1.1615,-1.1603,-1.0546,-0.9931,-0.9931,-0.9415,-0.8875,-0.8336,-0.7728,-0.7418,-0.7406,0.0,0.0,0.0,0.0,0.0,0.0,0.0,0.0,0.0,0.0,0.0,0.0,0.0,0.0,0.0,0.0,0.0,0.0,0.0,0.0,0.0,-1.1777,-1.2768,-1.2414,-1.3784,-1.5217,-1.633,-1.7409,-1.8072,-1.8145,-1.8762,-1.9151,-1.9151,-1.9316,-1.9438,-1.9438,-1.9603,-1.9708,-1.9708,-1.9708,-1.9708,-1.9708,-1.9708,-1.9708,-1.9708,-1.9708,-1.9708,-1.9708,-1.9708,-1.9708,-1.969,-1.9548,-1.9479,-1.9442,-1.8893,-1.8669,-1.865,-1.8419,-1.7987,-1.7504,-1.7353,-1.6951,-1.65,-1.65,-1.65,-1.65,-1.65,-1.65,-1.65,-1.65,-1.65,-1.65,-1.65,-1.65,-1.65,-1.65,-1.65,-1.65,-1.65,-1.65,-1.65,-1.65,-1.65,-1.65,-1.65,-1.6249,-1.607,-1.607,-1.5731,-1.5467,-1.5467,-1.5148,-1.4896,-1.4896,-1.4777,-1.4525,-1.4141,-1.3946,-1.369,-1.3235,-1.2576,-1.2015,-1.1628,-1.091,-1.0482,-1.0482,-0.9968,-0.9428,-0.8888,-0.8336,-0.7839,0.0,0.0,0.0,0.0,0.0,0.0,0.0,0.0,0.0,0.0,0.0,0.0,0.0,0.0,0.0,0.0,0.0,0.0,0.0,0.0,0.0,0.0,-1.3674,-1.4624,-1.4869,-1.5648,-1.6564,-1.7639,-1.8376,-1.8862,-1.9104,-1.9465,-1.9708,-1.9708,-1.9708,-1.9708,-1.9708,-1.9708,-1.9708,-1.9708,-1.9974,-2.0124,-2.0124,-2.0393,-2.0546,-2.0546,-2.0546,-2.0546,-2.0546,-2.0546,-2.0378,-2.0124,-1.989,-1.9634,-1.9332,-1.8798,-1.8554,-1.8535,0.0,0.0,0.0,0.0,-1.6774,-1.65,-1.65,-1.65,-1.65,-1.65,-1.65,-1.65,-1.65,-1.65,-1.65,-1.65,-1.65,-1.65,-1.65,-1.65,-1.65,-1.65,-1.65,-1.65,-1.65,-1.65,-1.65,-1.65,-1.65,0.0,-1.65,-1.6237,-1.6045,-1.6045,-1.5768,-1.5567,-1.5567,-1.5374,-1.511,-1.4796,-1.4362,-1.3959,-1.3609,-1.2856,0.0,0.0,0.0,-1.0958,-1.0706,-1.0407,0.0,0.0,0.0,0.0,0.0,-0.9818,0.0,0.0,-0.8889,-0.8902,0.0,0.0,0.0,0.0,0.0,0.0,0.0,0.0,0.0,0.0,0.0,0.0,0.0,0.0,0.0,0.0,-1.5136,-1.6211,-1.7259,-1.7286,-1.7586,-1.8601,-1.8888,-1.9188,-1.9639,-1.9708,-1.9672,-1.9603,-1.9672,-1.9702,-1.9707,-1.9776,0.0,0.0,0.0,-2.0808,-2.0808,-2.1395,-2.1695,-2.1695,-2.1695,-2.1695,-2.1695,-2.1695,-2.138,-2.0789,-2.0299,-1.9754,-1.9166,-1.8649,-1.8351,-1.8189,-1.806,-1.7686,-1.7146,-1.668,-1.65,-1.65,-1.65,0.0,0.0,-1.65,-1.65,-1.65,-1.65,-1.65,-1.65,-1.65,-1.65,-1.65,-1.65,-1.65,-1.65,-1.65,-1.65,-1.65,-1.65,-1.65,-1.65,-1.65,-1.65,-1.65,-1.65,-1.65,-1.65,-1.65,-1.65,-1.65,-1.65,-1.6082,-1.5768,-1.5706,-1.4846,0.0,-1.4204,-1.3212,-1.2551,-1.2488,-1.1989,-1.1425,-1.0833,-1.0856,-1.0856,-1.0808,-1.0808,-1.1059,-1.1603,-1.1728,-1.1776,-1.1751,-1.0684,-1.0469,0.0,0.0,0.0,0.0,0.0,0.0,0.0,0.0,0.0,0.0,0.0,0.0,0.0,0.0,0.0,-1.5132,-1.6194,-1.7085,-1.7843,-1.7926,-1.814,-1.8795,-1.9277,-1.9584,-1.969,-1.9708,-1.953,-1.9095,-1.946,-1.9749,-1.9866,-2.0271,-2.0752,-2.1291,-2.144,-2.1515,-2.1515,-2.1635,-2.1695,-2.1695,-2.1695,0.0,-2.1695,-2.1695,-2.162,-2.15,-2.1401,-2.1272,-2.1114,-2.057,-1.9792,-1.8803,-1.7834,-1.7126,-1.6637,-1.6531,-1.65,-1.65,-1.65,-1.65,-1.65,-1.65,-1.65,-1.65,-1.65,-1.65,0.0,-1.65,-1.65,-1.65,-1.65,-1.65,-1.65,-1.65,-1.65,-1.65,-1.65,-1.65,-1.65,-1.65,-1.65,-1.65,-1.65,-1.65,-1.65,-1.65,-1.65,-1.65,-1.65,-1.64,-1.6183,-1.5743,-1.5505,-1.5211,-1.479,-1.4148,-1.3564,-1.309,-1.2538,-1.2002,-1.1452,-1.1836,-1.1876,-1.1425,-1.1425,-1.1475,-1.1603,-1.2463,-1.2902,-1.286,-1.2212,-1.22,0.0,0.0,0.0,0.0,0.0,0.0,0.0,0.0,0.0,0.0,0.0,-1.1979,-1.3391,0.0,-1.5256,-1.6677,-1.7304,-1.7722,-1.8051,-1.8106,-1.8302,-1.8836,-1.9151,-1.9406,-1.9672,-1.9708,-1.9733,-1.9799,-1.9742,-2.002,-2.0769,-2.0744,-2.1025,-2.168,-2.2044,-2.2209,-2.2209,-2.2503,-2.2652,-2.2652,-2.2652,-2.2652,-2.2652,-2.2652,-2.2493,-2.2209,-2.2209,-2.1817,-2.1117,-2.0288,-1.959,-1.8951,-1.8096,-1.7402,-1.6888,-1.6888,-1.6731,-1.65,-1.65,-1.65,-1.65,-1.65,-1.65,-1.65,-1.65,-1.65,-1.65,-1.65,-1.65,-1.65,-1.65,-1.65,-1.65,-1.65,-1.65,-1.65,-1.65,-1.65,-1.65,-1.65,-1.65,-1.65,-1.65,-1.65,-1.65,-1.65,-1.65,-1.65,-1.65,-1.65,-1.6387,-1.6132,-1.5856,-1.558,-1.5324,-1.4815,-1.4356,-1.4074,-1.3797,-1.3539,-1.3262,-1.3514,-1.3526,-1.3262,-1.325,-1.325,-1.325,-1.3785,-1.4048,-1.4048,-1.4048,-1.4048,0.0,0.0,0.0,0.0,0.0,0.0,0.0,0.0,-1.151,-1.2655,-1.2981,-1.3585,-1.5375,-1.5804,-1.6313,-1.7723,-1.7947,-1.7947,-1.7947,-1.8027,-1.8224,-1.8554,-1.8765,-1.9062,-1.9497,-1.9634,-1.9875,-2.0308,-2.0058,-2.0385,-2.1506,-2.1127,-2.1206,-2.1871,-2.2432,-2.27,-2.27,-2.3313,-2.3595,-2.3595,-2.3595,-2.353,-2.3421,-2.3421,-2.3096,-2.25,-2.2657,-2.2022,-2.0848,-2.0163,-1.9673,-1.9307,-1.8998,-1.836,-1.7613,-1.7507,-1.7213,-1.6826,-1.6826,-1.6826,-1.6801,-1.6701,-1.6663,-1.6638,-1.6538,-1.65,-1.65,-1.65,-1.65,-1.65,-1.65,-1.65,-1.65,-1.65,-1.65,-1.65,-1.65,-1.65,-1.65,-1.65,-1.65,-1.65,-1.65,-1.65,-1.65,-1.65,-1.65,-1.65,-1.65,-1.65,-1.65,-1.65,-1.612,-1.5806,-1.5706,-1.5299,-1.5009,-1.4916,-1.4896,-1.4896,-1.4896,-1.4896,-1.4896,-1.4896,-1.4896,-1.4896,-1.4896,-1.4997,-1.5047,-1.506,-1.5613,-1.5567,-0.9012,-0.9403,-1.0044,-1.1075,-1.101,-1.1334,0.0,0.0,-1.3253,-1.4393,-1.5009,-1.5399,-1.5636,-1.6077,-1.6633,-1.7286,-1.7394,-1.7394,-1.7394,-1.7807,-1.7947,-1.7524,-1.8322,-1.893,-1.8987,-1.9416,-1.9524,-1.9127,-2.0025,-2.072,-2.0985,-2.1382,-2.1895,-2.2568,-2.2655,-2.2684,-2.2684,-2.3304,-2.3595,-2.3595,-2.3595,-2.3334,-2.2785,-2.2785,-2.2432,-2.1848,-2.2443,-2.2272,-2.1667,-2.2673,-2.2111,-2.0653,-2.1117,-2.0285,-1.8747,-1.827,-1.805,-1.8016,-1.8016,-1.8016,-1.794,-1.7438,-1.731,-1.7187,-1.6651,-1.65,-1.65,-1.65,-1.65,-1.65,-1.65,-1.65,-1.65,-1.65,-1.65,-1.65,-1.65,-1.65,-1.65,-1.65,-1.65,-1.65,-1.65,-1.65,-1.65,-1.65,-1.65,-1.65,-1.65,-1.65,-1.65,-1.65,-1.6437,-1.6233,-1.5731,-1.5663,-1.5412,-1.4921,-1.4896,-1.4896,-1.4896,-1.4896,-1.4896,-1.4896,-1.4896,-1.4896,-1.4896,-1.5387,-1.5605,-1.5618,-1.617,-1.6132,-1.1209,-1.1917,-1.237,0.0,-1.3065,-1.3835,-1.4695,-1.4764,-1.489,-1.5668,-1.6019,-1.6254,-1.6581,-1.7072,-1.7534,0.0,-1.8371,-1.8665,-1.8282,-1.822,-1.8105,-1.7808,-1.8165,-1.8554,-1.8874,-1.9086,-1.9432,-1.9921,-2.0094,-2.0534,-2.131,-2.1248,-2.1653,-2.2672,-2.2323,-2.23,-2.2694,-2.2575,-2.2478,-2.25,-2.2883,-2.2748,-2.2123,-2.2521,-2.2323,-2.1734,-2.1993,-2.1748,-2.1186,-2.1328,-2.0928,-2.0255,-2.051,-2.0122,-1.9401,-1.8855,-1.8474,-1.8204,-1.8204,-1.8204,-1.8166,-1.794,-1.7639,-1.736,-1.7099,-1.6785,-1.65,-1.65,-1.65,-1.65,-1.65,-1.65,-1.65,-1.65,-1.65,-1.65,-1.65,-1.65,-1.65,-1.65,-1.65,-1.65,-1.65,-1.65,-1.65,-1.65,-1.65,-1.65,-1.65,-1.65,-1.65,-1.65,-1.65,-1.64,-1.6174,-1.617,-1.607,-1.5844,-1.5831,-1.5831,-1.5831,-1.5831,-1.5831,-1.5831,-1.5831,-1.5831,-1.5831,-1.607,-1.617,-1.6183,-1.6387,-1.6375,-1.2734,0.0,0.0,-1.377,-1.4803,-1.582,-1.5419,-1.563,-1.6032,-1.6412,-1.6616,-1.6795,-1.7034,-1.7524,-1.8011,-1.8403,-1.8878,-1.9204,-1.9182,-1.8777,-1.833,-1.7942,-1.8023,-1.8204,-1.8438,-1.8892,-1.9445,-2.0189,-2.0122,-2.0492,-2.1411,-2.1028,-2.1224,-2.2151,-2.17,-2.1759,-2.2381,-2.2306,-2.2342,-2.2472,-2.2965,-2.2847,-2.2221,-2.2166,-2.1794,-2.1183,-2.1376,-2.1113,-2.0522,-2.0383,-2.0105,-1.9824,-2.0003,-1.9952,-1.9749,-1.9357,-1.8979,-1.8643,-1.8643,-1.8643,-1.8631,-1.848,-1.8166,-1.7777,-1.7498,-1.7087,-1.6701,-1.6538,-1.65,-1.65,-1.65,-1.65,-1.65,-1.65,-1.65,-1.65,-1.65,-1.65,-1.65,-1.65,-1.65,-1.65,-1.65,-1.65,-1.65,-1.65,-1.65,-1.65,-1.65,-1.65,-1.65,-1.65,-1.65,-1.65,-1.65,-1.65,-1.65,-1.65,-1.65,-1.65,-1.65,-1.65,-1.65,-1.65,-1.65,-1.65,-1.65,-1.65,-1.65,-1.65,-1.65,-1.65,0.0,0.0,-1.4787,-1.4841,-1.566,-1.6481,-1.6452,-1.6463,-1.6475,-1.65,-1.6909,-1.7105,-1.6616,-1.6951,-1.7704,-1.8886,-1.8174,-1.8044,-1.9639,-1.9313,-1.8534,-1.754,-1.7836,-1.7907,-1.7415,-1.883,-1.9556,-1.9103,-2.0136,-2.0782,-2.082,-2.0795,-2.082,-2.087,-2.0845,-2.1098,-2.1627,-2.2965,-2.3894,-2.4425,-2.4449,-2.4127,-2.3468,-2.1602,-2.0431,-1.9901,-2.0547,-2.0446,-1.9927,-2.1135,-2.0915,-1.985,-2.0535,-2.0371,-1.9798,-1.9786,-1.9786,-1.9748,-1.9748,-1.9748,-1.9673,-1.9146,-1.897,-1.8757,-1.7725,-1.7398,-1.726,-1.6651,-1.65,-1.65,-1.65,-1.65,-1.65,-1.65,-1.65,-1.65,-1.65,-1.65,-1.65,-1.65,-1.65,-1.65,-1.65,-1.65,-1.65,-1.65,-1.65,-1.65,-1.65,-1.65,-1.65,-1.65,-1.65,-1.65,-1.65,-1.65,-1.65,-1.65,-1.65,-1.65,-1.65,-1.65,-1.65,-1.65,-1.65,-1.65,-1.65,-1.65,-1.65,-1.65,-1.65,-1.65,-1.4016,0.0,-1.585,-1.5506,-1.5962,-1.6502,-1.6493,-1.65,-1.65,-1.65,-1.6637,-1.671,-1.6543,-1.7229,-1.7969,-1.8418,-1.9104,-1.9658,-1.9819,-1.9716,-1.9212,-1.8074,-1.8368,-1.835,-1.7452,-1.7884,0.0,-1.8963,-1.9391,-1.9748,-2.0105,-2.0131,-2.0501,-2.1312,-2.0927,-2.1172,-2.2128,-2.2207,-2.2326,-2.2524,-2.2524,-2.2604,-2.2791,-2.2126,-2.1514,-2.0957,-2.1212,-2.0979,-2.0404,-2.0437,-2.0181,-1.9824,-2.0055,-2.0003,-1.9798,-1.9798,-1.9798,-1.9798,-1.9798,-1.9798,-1.9773,-1.9597,-1.9284,-1.8933,-1.8556,-1.8216,-1.789,-1.7689,-1.7375,-1.7087,-1.7087,-1.681,-1.65,-1.65,-1.65,-1.65,-1.65,-1.65,-1.65,-1.65,-1.65,-1.65,-1.65,-1.65,-1.65,-1.65,-1.65,-1.65,-1.65,-1.65,-1.65,-1.65,-1.65,-1.65,-1.65,-1.65,-1.65,-1.65,-1.65,-1.65,-1.65,-1.65,-1.65,-1.65,-1.65,-1.65,-1.65,-1.65,-1.65,-1.65,-1.65,-1.65,-1.5333,-1.5984,-1.6468,-1.6329,-1.6545,-1.6795,-1.6816,-1.6638,-1.6552,-1.6752,-1.6629,-1.6501,-1.6501,-1.6917,-1.7464,-1.8129,-1.8959,-1.9663,-2.0109,-2.0022,-1.9567,-1.8594,-1.8783,-1.8653,0.0,0.0,0.0,-1.8915,-1.9179,-1.9547,-2.0075,-2.0112,-2.0574,-2.1521,-2.1197,-2.1424,-2.236,-2.2221,-2.2281,-2.2485,-2.2485,-2.2454,-2.236,-2.236,-2.2035,-2.1496,-2.1541,-2.1258,-2.0666,-2.0289,-1.9987,-1.9798,-1.9798,-1.9798,-1.9798,-1.9798,-1.9798,-1.9798,-1.9798,-1.9798,-1.9798,-1.9798,-1.9572,-1.9246,-1.9058,-1.8757,-1.8455,-1.8254,-1.7953,-1.7626,-1.7461,-1.7099,-1.6773,-1.655,-1.65,-1.65,-1.65,-1.65,-1.65,-1.65,-1.65,-1.65,-1.65,-1.65,-1.65,-1.65,-1.65,-1.65,-1.65,-1.65,-1.65,-1.65,-1.65,-1.65,-1.65,-1.65,-1.65,-1.65,-1.65,-1.65,-1.65,-1.65,-1.65,-1.65,-1.65,-1.65,-1.65,-1.65,-1.65,-1.65,-1.65,-1.65,-1.6451,-1.6553,-1.677,-1.732,-1.7415,-1.7405,-1.746,-1.7002,-1.6689,-1.7149,-1.6811,-1.6421,-1.6381,0.0,-1.6253,-1.7925,-1.7806,-1.8257,-2.0435,-2.0239,-1.9646,0.0,0.0,0.0,0.0,0.0,0.0,-1.9096,-1.956,-2.0075,-2.0704,-2.0729,-2.0993,-2.1506,-2.1531,-2.1794,-2.2347,-2.3026,-2.3668,-2.4234,-2.4234,-2.357,-2.2347,-2.2347,-2.2071,-2.1568,-2.1543,-2.1257,-2.0779,-2.0742,-2.0402,-1.9849,-1.9849,-1.9823,-1.9798,-1.9798,-1.9798,-1.9798,-1.9798,-1.9798,-1.9798,-1.9798,-1.9798,-1.971,-1.9196,-1.9045,-1.8933,-1.8442,-1.8267,-1.8129,-1.7601,-1.7473,-1.731,-1.6713,-1.6588,-1.6575,-1.655,-1.6538,-1.6538,-1.65,-1.65,-1.65,-1.65,-1.65,-1.65,-1.65,-1.65,-1.65,-1.65,-1.65,-1.65,-1.65,-1.65,-1.65,-1.65,-1.65,-1.65,-1.65,-1.65,-1.65,-1.65,-1.65,-1.65,-1.65,-1.65,-1.65,-1.65,-1.65,-1.65,-1.65,-1.65,-1.65,-1.6062,-1.7135,-1.8371,-1.8125,-1.835,-1.8645,-1.8663,-1.7847,-1.7029,-1.6758,-1.5964,-1.5191,-1.4801,-1.5251,0.0,-1.6816,-1.7884,0.0,-1.9927,-2.0283,0.0,-1.9686,0.0,-2.0636,-2.0101,-2.0413,0.0,0.0,-2.02,-2.0238,-2.1257,-2.1307,-2.1531,-2.2083,-2.2108,-2.2343,-2.2895,-2.309,-2.3242,-2.3395,-2.3395,-2.3229,-2.2895,-2.2895,-2.2819,-2.2656,-2.2284,-2.202,-2.1857,-2.1443,-2.0981,-2.0478,-2.0478,-2.0214,-1.9798,-1.9798,-1.9798,-1.9798,-1.9798,-1.9798,-1.9798,-1.9798,-1.9798,-1.9773,-1.9648,-1.961,-1.9572,-1.9434,-1.9083,-1.8757,-1.8619,-1.8304,-1.7953,-1.7802,-1.7777,-1.7664,-1.725,-1.7162,-1.7036,-1.6588,-1.65,-1.65,-1.65,-1.65,-1.65,-1.65,-1.65,-1.65,-1.65,-1.65,-1.65,-1.65,-1.65,-1.65,-1.65,-1.65,-1.65,-1.65,-1.65,-1.65,-1.65,-1.65,-1.65,-1.65,-1.65,-1.65,-1.65,-1.65,-1.65,-1.65,-1.65,-1.65,-1.6891,-1.7909,-1.9008,-1.8679,-1.8684,-1.8669,-1.842,-1.7269,-1.6146,-1.5808,-1.4712,0.0,-1.3715,-1.4202,0.0,0.0,0.0,0.0,-1.9334,-2.0189,-2.0566,0.0,-2.0981,0.0,-2.1081,-2.1333,-2.1594,0.0,-2.1041,-2.0928,-2.1794,-2.1845,-2.2108,-2.2631,-2.2644,-2.2794,-2.3108,-2.3108,-2.3108,-2.3108,-2.3108,-2.3108,-2.3108,-2.3108,-2.3108,-2.3083,-2.2782,-2.2506,-2.2284,-2.1983,-2.1559,-2.1056,-2.1056,-2.0704,-2.0175,-2.0175,-2.0024,-1.9798,-1.9798,-1.9798,-1.9798,-1.9798,-1.9798,-1.9798,-1.9798,-1.9798,-1.9798,-1.9798,-1.9597,-1.9284,-1.9058,-1.877,-1.8481,-1.8267,-1.8204,-1.8129,-1.7815,-1.7739,-1.7652,-1.7325,-1.7262,-1.7174,-1.6936,-1.6898,-1.681,-1.6538,-1.65,-1.65,-1.65,-1.65,-1.65,-1.65,-1.65,-1.65,-1.65,-1.65,-1.65,-1.65,-1.65,-1.65,-1.65,-1.65,-1.65,-1.65,-1.65,-1.65,-1.65,-1.65,-1.65,-1.65,-1.65,-1.65,-1.8077,-1.8627,-1.9209,-1.915,-1.8822,-1.8362,-1.7766,-1.6278,-1.4929,-1.4647,0.0,-1.2383,-1.2696,-1.2939,-1.3466,-1.4607,0.0,-1.7677,-1.8845,-1.9974,-2.0717,-2.0792,-2.1358,-2.1707,-2.1707,-2.1707,-2.1907,-2.2355,-2.1983,-2.192,-2.2397,-2.2422,-2.2606,-2.3095,-2.3108,-2.3108,-2.3108,-2.3108,-2.3108,-2.3108,-2.3108,-2.3108,-2.3108,-2.3108,-2.3108,-2.3108,-2.3108,-2.2832,-2.2422,-2.2422,-2.2096,-2.1594,-2.1594,-2.1245,-2.0691,-2.0691,-2.0327,-1.9798,-1.9798,-1.9798,-1.9798,-1.9798,-1.9798,-1.9798,-1.9798,-1.9798,-1.9798,-1.9798,-1.9798,-1.9698,-1.9221,-1.9108,-1.8983,-1.853,-1.8417,-1.8392,-1.8329,-1.8254,-1.8204,-1.8204,-1.8204,-1.8053,-1.7599,-1.7461,-1.7212,-1.671,-1.655,-1.65,-1.65,-1.65,-1.65,-1.65,-1.65,-1.65,-1.65,-1.65,-1.65,-1.65,-1.65,-1.65,-1.65,-1.65,-1.65,-1.65,-1.65,-1.65,-1.65,-1.65,-1.65,-1.65,-1.65,-1.6538,-1.7651,-1.8682,-1.9853,-1.983,-1.9718,-1.9482,-1.8939,-1.7122,0.0,0.0,-1.2543,-1.1479,-1.0631,-1.1597,-1.2906,-1.4047,0.0,0.0,0.0,0.0,-2.0867,0.0,0.0,0.0,0.0,-2.2819,0.0,0.0,-2.2882,-2.2857,-2.2957,-2.2957,-2.3007,-2.3108,-2.3108,-2.3108,-2.3108,-2.3108,-2.3108,-2.3108,-2.3108,-2.3108,-2.3108,-2.3108,-2.3108,-2.3108,-2.3108,-2.3045,-2.2957,-2.2957,-2.2644,-2.2171,-2.2171,-2.1556,-2.0691,-2.0691,-2.0327,-1.9798,-1.9798,-1.9798,-1.9798,-1.9798,-1.9798,-1.9798,-1.9798,-1.9798,-1.9798,-1.9798,-1.9798,-1.9786,-1.9698,-1.966,-1.9648,-1.9547,-1.9522,-1.9409,-1.8958,-1.8506,-1.8204,-1.8204,-1.8204,-1.8179,-1.8078,-1.7689,-1.7373,-1.7272,-1.6823,-1.65,-1.65,-1.65,-1.65,-1.65,-1.65,-1.65,-1.65,-1.65,-1.65,-1.65,-1.65,-1.65,-1.65,-1.65,-1.65,-1.65,-1.65,-1.65,-1.65,-1.65,-1.65,-1.65,-1.65,-1.6773,-1.7964,-1.9083,-2.0338,-1.997,-1.9687,-1.9108,-1.7661,0.0,0.0,0.0,-1.0851,-1.0132,-0.9591,0.0,0.0,0.0,0.0,0.0,0.0,0.0,0.0,0.0,0.0,0.0,0.0,-2.3108,-2.3108,-2.3108,-2.3108,-2.3108,-2.3108,-2.3108,-2.3108,-2.3108,-2.3108,-2.3108,-2.3108,-2.3108,-2.3108,-2.3108,-2.3108,-2.3108,-2.3108,-2.3108,-2.3108,-2.3108,-2.3108,-2.3108,-2.3108,-2.3108,-2.2945,-2.2706,-2.2706,-2.2234,-2.1518,-2.1518,-2.1167,-2.0639,-2.0377,-2.0277,-2.0226,-1.9899,-1.9798,-1.9798,-1.9798,-1.9798,-1.9798,-1.9798,-1.9798,-1.9798,-1.9798,-1.9798,-1.9798,-1.9798,-1.9798,-1.9736,-1.9459,-1.9196,-1.9032,-1.9032,-1.9032,-1.8945,-1.8657,-1.8405,-1.8141,-1.7852,-1.7576,-1.7365,-1.7365,-1.7365,-1.7174,-1.655,-1.65,-1.65,-1.65,-1.65,-1.65,-1.65,-1.65,-1.65,-1.65,-1.65,-1.65,-1.65,-1.65,-1.65,-1.65,-1.6823,-1.6974,-1.6974,-1.7262,-1.7539,-1.8309,-1.9374,-2.0421,-1.9788,-1.9259,-1.8321,-1.6043,-1.3998,0.0,0.0,-0.9491,-0.9202,-0.8963,0.0,-1.1625,0.0,0.0,0.0,0.0,0.0,0.0,0.0,0.0,0.0,0.0,-2.3108,0.0,-2.3108,-2.3108,-2.3108,-2.3108,-2.3108,-2.3108,-2.3108,-2.3108,-2.3108,-2.3108,-2.3108,-2.3108,-2.3108,-2.3108,-2.3108,-2.3108,-2.3108,-2.3108,-2.3108,-2.3108,-2.3108,-2.3108,-2.3108,-2.3108,-2.3108,-2.3108,-2.2769,-2.2309,-2.2309,-2.197,-2.1458,-2.1018,-2.0792,-2.0616,-2.0137,-1.9911,-1.9798,-1.9798,-1.9798,-1.9798,-1.9798,-1.9798,-1.9798,-1.9798,-1.9798,-1.9798,-1.9798,-1.9798,-1.9798,-1.9798,-1.9798,-1.9798,-1.9798,-1.9798,-1.9673,-1.9233,-1.9083,-1.8857,-1.8418,-1.8279,-1.8204,-1.8204,-1.8204,-1.7865,-1.6951,-1.6751,-1.6697,-1.6697,-1.6563,-1.65,-1.65,-1.65,-1.65,-1.65,-1.65,-1.655,-1.6697,-1.6697,-1.676,-1.6864,-1.7338,-1.7574,-1.7564,-1.8003,-1.8267,-1.8204,-1.9032,-1.9762,-1.9221,-1.8668,-1.7695,-1.5482,0.0,0.0,-0.9717,-0.9529,-0.9529,-0.8562,-0.9692,-1.1146,0.0,0.0,-1.4739,0.0,0.0,0.0,0.0,0.0,0.0,0.0,-2.3108,-2.3108,-2.3108,-2.3108,-2.3108,-2.3108,-2.3108,-2.3108,-2.3108,-2.3108,-2.3108,-2.3108,-2.3108,-2.3108,-2.3108,-2.3108,-2.3108,-2.3108,-2.3108,-2.3108,-2.3108,-2.3108,-2.3108,-2.3108,-2.3108,-2.3108,-2.3108,-2.3108,-2.2769,-2.2309,-2.2309,-2.197,-2.1481,-2.143,-2.1119,-2.0679,-2.0629,-2.0264,-1.9798,-1.9798,-1.9798,-1.9798,-1.9798,-1.9798,-1.9798,-1.9798,-1.9798,-1.9798,-1.9798,-1.9798,-1.9798,-1.9798,-1.9798,-1.9798,-1.9798,-1.9798,-1.9786,-1.9736,-1.9309,-1.8983,-1.8933,-1.8506,-1.8204,-1.8204,-1.8204,-1.8166,-1.8053,-1.7601,-1.7322,-1.7322,-1.6823,-1.65,-1.65,-1.65,-1.65,-1.65,-1.65,-1.6773,-1.7322,-1.7322,-1.7551,-1.8053,-1.8103,-1.8129,-1.8129,-1.8179,-1.8456,-1.8016,-1.8756,-1.9259,-1.9058,-1.8594,-1.7539,-1.5009,0.0,-1.2024,-0.9591,-0.9277,-0.929,-0.8862,-0.9566,-1.0582,-1.1726,-1.2294,-1.3275,-1.5261,0.0,0.0,0.0,0.0,0.0,0.0,0.0,-2.3108,-2.3108,-2.3108,-2.3108,-2.3108,-2.3108,-2.3108,-2.3108,-2.3108,-2.3108,-2.3108,-2.3108,-2.3108,-2.3108,-2.3108,-2.3108,-2.3108,-2.3108,-2.3108,-2.3108,-2.3108,-2.3108,-2.3108,-2.3108,-2.3108,-2.3108,-2.3108,-2.297,-2.2782,-2.2782,-2.2644,-2.2406,-2.2096,-2.1845,-2.1543,-2.0905,-2.0541,-2.0289,-1.9911,-1.9798,-1.9798,-1.9798,-1.9798,-1.9798,-1.9798,-1.9798,-1.9798,-1.9798,-1.9798,-1.9798,-1.9798,-1.9798,-1.9798,-1.9798,-1.9798,-1.9798,-1.9798,-1.9623,-1.9497,-1.9497,-1.9309,-1.9158,-1.9158,-1.9158,-1.9158,-1.9158,-1.8392,-1.7877,-1.7877,-1.7664,-1.7526,-1.7526,-1.7526,-1.7526,-1.7526,-1.7526,-1.7639,-1.7877,-1.7877,-1.799,-1.8204,-1.8519,-1.8669,-1.8682,-1.902,-1.9284,-1.7451,-1.8205,-1.8719,-1.8556,-1.8116,-1.7024,0.0,-1.3077,-1.1776,-0.9566,-0.9227,-0.929,-0.9138,-0.9541,-1.027,-1.1414,-1.1726,-1.2542,-1.4607,-1.5512,0.0,0.0,0.0,-2.0828,0.0,-2.2907,-2.3108,-2.3108,-2.3108,-2.3108,-2.3108,-2.3108,-2.3108,-2.3108,-2.3108,-2.3108,-2.3108,-2.3108,-2.3108,-2.3108,-2.3108,-2.3108,-2.3108,-2.3108,-2.3108,-2.3108,-2.3108,-2.3108,-2.3108,-2.3108,-2.3108,-2.3108,-2.3108,-2.3108,-2.3108,-2.3108,-2.3108,-2.3045,-2.2656,-2.2418,-2.2184,-2.1405,-2.1069,-2.0867,-2.0426,-2.0062,-1.9798,-1.9798,-1.9798,-1.9798,-1.9798,-1.9798,-1.9747,-1.9527,-1.9475,-1.9423,-1.9202,-1.915,-1.915,-1.915,-1.9345,-1.9397,-1.9176,-1.9333,-1.9397,-1.9176,-1.915,-1.9228,-1.9449,-1.9475,-1.9553,-1.9773,-1.9133,-1.8618,-1.8455,-1.8292,-1.8204,-1.8204,-1.8204,-1.8204,-1.8204,-1.8204,-1.8279,-1.8418,-1.8455,-1.8518,-1.8681,-1.9045,-1.9233,-1.9246,-1.9623,-1.9798,-1.6362,-1.735,-1.8078,-1.7561,-1.6961,-1.5936,0.0,-1.2801,-1.1776,-0.9566,-0.9529,-0.973,-0.9201,-0.9541,-1.027,-1.1414,-1.2052,-1.2981,-1.4657,-1.5819,0.0,0.0,0.0,-1.9672,-2.1343,-2.2498,-2.3108,-2.3108,-2.3108,-2.3108,-2.3108,-2.3108,-2.3108,-2.3108,-2.3108,-2.3108,-2.3108,-2.3108,-2.3108,-2.3108,-2.3108,-2.3108,-2.3108,-2.3108,-2.3108,-2.3108,-2.3108,-2.3108,-2.3108,-2.3108,-2.3108,-2.3108,-2.3108,-2.3108,-2.3108,-2.3108,-2.3108,-2.3108,-2.3095,-2.2744,-2.2309,-2.2297,-2.192,-2.1481,-2.1468,-2.069,-1.9798,-1.9798,-1.9798,-1.9798,-1.9798,-1.9798,-1.9605,-1.8874,-1.8715,-1.8501,-1.7797,-1.7633,-1.7633,-1.7633,-1.8221,-1.8474,-1.7743,-1.8221,-1.8463,-1.7731,-1.7633,-1.7907,-1.8608,-1.8715,-1.8992,-1.9721,-1.9798,-1.9572,-1.9045,-1.8518,-1.8204,-1.8204,-1.8204,-1.8204,-1.8204,-1.8204,-1.8455,-1.8983,-1.8995,-1.9246,-1.9786,-1.9798,-1.9798,-1.9798,-1.9798,-1.9798,-1.4595,-1.5387,-1.5814,-1.5281,-1.5273,-1.4833,-1.2617,-1.2266,-1.1889,-1.0031,-0.978,-0.9855,-0.9679,-0.978,-1.0395,-1.1902,-1.2291,-1.2994,0.0,0.0,0.0,0.0,-2.0562,-2.2004,0.0,0.0,-2.3108,-2.3108,-2.3108,-2.3108,-2.3108,-2.3108,-2.3108,-2.3108,-2.3108,-2.3108,-2.3108,-2.3108,-2.3108,-2.3108,-2.3108,-2.3108,-2.3108,-2.3108,-2.3108,-2.3108,-2.3108,-2.3108,-2.3108,-2.3108,-2.3108,-2.3108,-2.3108,-2.3108,-2.3108,-2.3108,-2.3108,-2.3108,-2.3108,-2.2995,-2.2782,-2.2406,-2.2196,-2.1983,-2.1606,-2.1242,-2.0878,-2.0528,-2.0415,-2.0327,-1.9911,-1.9423,-1.8992,-1.8768,-1.8301,-1.7868,-1.766,-1.8015,-1.8355,-1.8355,-1.8965,-1.9371,-1.915,-1.8874,-1.8608,-1.8394,-1.7934,-1.7879,-1.8608,-1.8688,-1.898,-1.9721,-1.9798,-1.9517,-1.8841,-1.8657,-1.8535,-1.8535,-1.8535,-1.8535,-1.8535,-1.9032,-1.9144,-1.8803,-1.9292,-1.9635,-1.9798,-1.9281,-1.9044,-1.9044,-1.9044,-1.9307,0.0,-1.369,-1.4192,-1.384,-1.3866,-1.3539,-1.1967,-1.1688,-1.141,-1.0157,-0.9905,-0.9905,-0.9905,-0.9905,-1.0383,-1.1864,-1.2278,0.0,0.0,0.0,0.0,0.0,0.0,0.0,0.0,-2.2857,-2.3108,-2.3108,-2.3108,-2.3108,-2.3108,-2.3108,-2.3108,-2.3108,-2.3108,-2.3108,-2.3108,-2.3108,-2.3108,-2.3108,-2.3108,-2.3108,-2.3108,-2.3108,-2.3108,-2.3108,-2.3108,-2.3108,0.0,-2.3108,-2.3108,-2.3108,-2.3108,-2.3108,-2.3108,-2.3108,-2.3108,-2.3108,-2.3108,-2.3108,-2.3045,-2.2706,-2.2404,-2.2105,-2.176,-2.1579,-2.135,-2.0683,-2.0735,-2.0786,-1.9879,-1.9347,-1.891,-1.8414,-1.7715,-1.7107,-1.6828,-1.7124,-1.7446,-1.7446,-1.8058,-1.8463,-1.8182,-1.8004,-1.7786,-1.7512,-1.7069,-1.7052,-1.7797,-1.7868,-1.814,-1.8874,-1.8953,-1.8661,-1.7934,-1.8382,-1.8581,-1.8313,-1.8555,-1.8688,-1.8688,-1.915,-1.9307,-1.9123,-1.9281,-1.9385,-1.9385,-1.8635,-1.8274,-1.8274,-1.8274,-1.8634,0.0,-1.2087,-1.2897,-1.286,-1.2513,-1.204,-1.154,-1.1023,0.0,-1.0006,-0.9905,-0.9931,-1.0006,-0.9981,-1.037,-1.164,-1.2215,0.0,0.0,0.0,0.0,0.0,-2.0941,0.0,-2.1606,-2.2506,-2.3108,-2.3108,-2.3108,-2.3108,-2.3108,-2.3108,-2.3108,-2.3108,-2.3108,-2.3108,-2.3108,-2.3108,-2.3108,-2.3108,-2.3108,-2.3108,-2.3108,-2.3108,-2.3108,-2.3108,-2.3108,-2.3108,-2.3108,-2.3108,-2.3108,-2.3108,-2.3108,-2.3108,-2.3108,-2.3108,-2.3108,-2.3108,-2.3108,-2.3108,-2.3078,-2.3035,-2.2506,-2.1877,-2.1815,-2.1619,-2.1271,-2.0413,-2.0787,-2.1154,-1.9729,-1.9459,-1.9218,-1.7884,-1.7004,-1.6267,-1.5565,-1.5439,-1.5468,-1.5468,-1.6065,-1.6368,-1.5661,-1.6093,-1.6265,-1.5575,-1.5439,-1.5671,-1.6407,-1.6492,-1.6782,-1.7523,-1.7605,-1.7302,-1.6567,-1.777,-1.8259,-1.7578,-1.8167,-1.8543,-1.8543,-1.8581,-1.8927,-1.9553,-1.8927,-1.8608,-1.8543,-1.7841,-1.7534,-1.7579,-1.7579,-1.7846,-0.8241,0.0,-0.9969,-0.9554,-0.9667,-0.9843,0.0,-0.9893,-1.0056,0.0,0.0,-1.0169,-1.105,-1.0808,-1.1297,-1.3727,0.0,0.0,0.0,0.0,0.0,-2.1581,-2.2305,-2.2719,-2.2719,-2.2957,-2.3108,-2.3108,-2.3108,-2.3108,-2.3108,-2.3108,-2.3108,-2.3108,-2.3108,-2.3108,-2.3108,-2.3108,-2.3108,-2.3108,-2.3108,-2.3108,-2.3108,-2.3108,-2.3108,-2.3108,-2.3108,-2.3108,-2.3108,-2.3108,-2.3108,-2.3108,-2.3108,-2.3108,-2.3108,-2.3108,-2.3108,-2.3108,-2.3108,-2.3108,-2.3017,-2.2384,-2.2063,-2.1784,-2.1112,-2.0877,-2.0664,-2.0018,-2.0449,-2.0789,-1.9369,-1.9109,-1.8908,-1.7589,-1.6722,-1.6049,-1.5508,-1.5835,-1.6226,-1.6226,-1.6838,-1.7302,-1.7107,-1.6754,-1.6436,-1.6265,-1.5748,-1.5671,-1.6407,-1.6492,-1.6782,-1.7523,-1.7605,-1.7302,-1.6567,-1.6821,-1.695,-1.6754,-1.6922,-1.7034,-1.7034,-1.755,-1.766,-1.7274,-1.766,-1.7578,-1.7034,-1.6838,-1.6945,-1.7297,-1.7297,-1.7805,-0.7041,-0.8401,-0.9767,-0.9466,-0.983,-1.0245,-1.0245,0.0,0.0,0.0,0.0,0.0,-1.1035,-1.1161,0.0,0.0,-1.4519,0.0,0.0,0.0,0.0,-2.2493,-2.292,-2.3108,-2.3108,-2.3108,-2.3108,-2.3108,-2.3108,-2.3108,-2.3108,-2.3108,-2.3108,-2.3108,-2.3108,-2.3108,-2.3108,-2.3108,-2.3108,-2.3108,-2.3108,-2.3108,-2.3108,-2.3108,-2.3108,-2.3108,-2.3108,-2.3108,-2.3108,-2.3108,-2.3108,-2.3108,-2.3108,-2.3108,-2.3108,-2.3108,-2.3108,-2.3108,-2.3108,-2.2854,-2.2476,-2.2032,-2.1365,-2.0623,-2.0139,-1.9726,-1.9411,-1.949,-2.0145,-2.0499,-1.908,-1.8806,-1.8626,-1.7692,-1.69,-1.6309,-1.6034,-1.6317,-1.6577,-1.6577,-1.6913,-1.7135,-1.6943,-1.6593,-1.6241,-1.6038,-1.5671,-1.5555,-1.595,-1.6007,-1.614,-1.6557,-1.6574,-1.6415,-1.6036,-1.62,-1.6231,-1.6017,-1.6322,-1.6492,-1.6492,-1.6866,-1.6922,-1.651,-1.6894,-1.7002,-1.6806,-1.6487,-1.6555,-1.6972,-1.6972,-1.7421,-0.6899,-0.8877,-1.077,-1.0418,-1.0896,-1.1462,-1.1462,0.0,0.0,0.0,0.0,0.0,0.0,0.0,0.0,0.0,0.0,0.0,-2.0402,-2.0893,-2.1468,-2.2932,-2.3108,-2.3108,-2.3108,-2.3108,-2.3108,-2.3108,-2.3108,-2.3108,-2.3108,-2.3108,-2.3108,-2.3108,-2.3108,-2.3108,-2.3108,-2.3108,-2.3108,-2.3108,-2.3108,-2.3108,-2.3108,-2.3108,-2.3108,-2.3108,-2.3108,-2.3108,-2.3108,-2.3108,-2.3108,-2.3108,-2.3108,-2.3108,-2.3108,-2.3108,-2.3108,-2.3065,-2.2944,-2.2476,-2.1846,-2.1585,-2.0494,-1.9276,-1.9144,-1.8596,-1.8134,-1.8877,-1.9716,-2.0116,-1.8762,-1.8561,-1.8532,-1.7895,-1.7249,-1.6785,-1.6716,-1.6697,-1.6697,-1.6697,-1.6697,-1.658,-1.6261,-1.6193,-1.6046,-1.5576,-1.5508,-1.5488,-1.542,-1.5469,-1.5508,-1.5508,-1.5576,-1.5615,-1.5615,-1.5947,-1.6006,-1.5605,-1.612,-1.6454,-1.6454,-1.6454,-1.6456,-1.6529,-1.6529,-1.6726,-1.7119,-1.6497,-1.6396,-1.6804,-1.6804,-1.7061,-0.8268,-1.0069,-1.101,-0.9128,-0.9767,-1.0845,-1.0845,0.0,0.0,0.0,0.0,0.0,0.0,0.0,0.0,0.0,0.0,-1.9685,0.0,0.0,-2.2293,-2.302,-2.3108,-2.3108,-2.3108,-2.3108,-2.3108,-2.3108,-2.3108,-2.3108,-2.3108,-2.3108,-2.3108,-2.3108,-2.3108,-2.3108,-2.3108,-2.3108,-2.3108,-2.3108,-2.3108,-2.3108,-2.3108,-2.3108,-2.3108,-2.3108,-2.3108,-2.3108,-2.3108,-2.3108,-2.3108,-2.3108,-2.3108,-2.3108,-2.3108,-2.3108,-2.3108,-2.3005,-2.2322,-2.2002,-2.1659,-2.0171,-1.9529,-1.9177,-1.8428,-1.811,-1.8042,-1.8168,-1.8821,-1.9288,-1.8315,-1.8619,-1.8892,-1.7723,-1.7373,-1.7178,-1.6775,-1.6697,-1.6697,-1.6697,-1.6697,-1.6677,-1.6609,-1.6599,-1.6484,-1.6056,-1.5987,-1.586,-1.5459,-1.5732,-1.5987,-1.5987,-1.6299,-1.6502,-1.6502,-1.656,-1.657,-1.6502,-1.6294,-1.6168,-1.6168,-1.6168,-1.6315,-1.6679,-1.6679,-1.6719,-1.6788,-1.6662,-1.6855,-1.7285,-1.7285,-1.751,-0.7261,-0.8997,-1.0357,-0.9754,-1.1299,-1.2969,-1.2969,0.0,0.0,0.0,0.0,0.0,0.0,0.0,-1.5789,-1.8279,0.0,-2.03,-2.1732,-2.2146,-2.2493,-2.3045,-2.3108,-2.3108,-2.3108,-2.3108,-2.3108,-2.3108,-2.3108,-2.3108,-2.3108,-2.3108,-2.3108,-2.3108,-2.3108,-2.3108,-2.3108,-2.3108,-2.3108,-2.3108,-2.3108,-2.3108,-2.3108,-2.3108,-2.3108,-2.3108,-2.3108,-2.3108,-2.3108,-2.3108,-2.3108,-2.3108,-2.3108,-2.3108,-2.3108,-2.3108,-2.2823,-2.2384,-2.2032,-2.127,-2.0365,-1.9562,-1.8977,-1.8529,-1.811,-1.8008,-1.8008,-1.8008,-1.8303,-1.8496,-1.811,-1.8303,-1.8445,-1.7864,-1.7715,-1.7666,-1.7461,-1.7389,-1.7389,-1.7389,-1.7389,-1.7321,-1.7119,-1.708,-1.6934,-1.6494,-1.6426,-1.6357,-1.6122,-1.6299,-1.6426,-1.6426,-1.658,-1.6697,-1.6697,-1.6921,-1.6982,-1.6716,-1.6543,-1.6426,-1.6426,-1.6426,-1.6523,-1.6697,-1.6697,-1.6814,-1.708,-1.708,-1.7305,-1.7715,-1.7715,-1.7822,-0.6604,-0.8164,-0.984,-1.0851,0.0,-1.4444,-1.4959,0.0,0.0,0.0,0.0,0.0,0.0,-1.555,0.0,-1.9773,-2.02,-2.074,-2.2255,-2.2498,-2.2631,-2.3058,-2.3108,-2.3108,-2.3108,-2.3108,-2.3108,-2.3108,-2.3108,-2.3108,-2.3108,-2.3108,-2.3108,-2.3108,-2.3108,-2.3108,-2.3108,-2.3108,-2.3108,-2.3108,-2.3108,-2.3108,-2.3108,-2.3108,-2.3108,-2.3108,-2.3108,-2.3108,-2.3108,-2.3108,-2.3108,-2.3108,-2.3108,-2.2975,-2.2793,-2.2598,-2.2113,-2.1553,-2.1365,-2.043,-1.9266,-1.9077,-1.8519,-1.8008,-1.8008,-1.8008,-1.8008,-1.8008,-1.8008,-1.8008,-1.8008,-1.8008,-1.8008,-1.8008,-1.8008,-1.8008,-1.8008,-1.8008,-1.8008,-1.8008,-1.8008,-1.791,-1.7578,-1.7529,-1.7383,-1.6921,-1.6853,-1.6814,-1.6716,-1.6794,-1.6853,-1.6853,-1.6941,-1.6999,-1.6999,-1.7334,-1.7393,-1.7019,-1.6911,-1.6853,-1.6853,-1.6853,-1.6902,-1.6999,-1.6999,-1.7197,-1.7529,-1.7529,-1.7695,-1.8008,-1.8008,-1.8008,-0.7968,-0.9045,-1.0037,-1.1827,-1.2425,0.0,-1.5166,-1.4815,0.0,-1.5936,0.0,0.0,0.0,-1.7262,-1.8756,-2.1004,-2.1368,-2.1769,-2.2882,-2.3045,-2.3058,-2.3095,-2.3108,-2.3108,-2.3108,-2.3108,-2.3108,-2.3108,-2.3108,-2.3108,-2.3108,-2.3108,-2.3108,-2.3108,-2.3108,-2.3108,-2.3108,-2.3108,-2.3108,-2.3108,-2.3108,-2.3108,-2.3108,-2.3108,-2.3108,-2.3108,-2.3108,-2.3108,-2.3108,-2.3108,-2.3108,-2.3108,-2.3108,-2.2628,-2.1877,-2.1069,-2.0751,-2.059,-1.9759,-1.9398,-1.9177,-1.8361,-1.8042,-1.8008,-1.8008,-1.8008,-1.8008,-1.8008,-1.8008,-1.8008,-1.8008,-1.8008,-1.8008,-1.8008,-1.8008,-1.8008,-1.8008,-1.8008,-1.8008,-1.8008,-1.8008,-1.7998,-1.7969,-1.7969,-1.7822,-1.7402,-1.7334,-1.7187,-1.6755,-1.709,-1.7334,-1.7334,-1.7686,-1.792,-1.792,-1.7949,-1.7949,-1.792,-1.7549,-1.7334,-1.7334,-1.7334,-1.7519,-1.791,-1.792,-1.793,-1.7969,-1.7969,-1.7978,-1.8008,-1.8008,-1.8008,-0.6646,-0.8134,-0.9761,-1.1472,-1.24,0.0,0.0,-1.594,-1.6518,-1.7792,-1.7779,0.0,0.0,0.0,-1.9296,-2.1179,-2.1493,-2.187,-2.2945,-2.3108,-2.3108,-2.3108,-2.3108,-2.3108,-2.3108,-2.3108,-2.3108,-2.3108,-2.3108,-2.3108,-2.3108,-2.3108,-2.3108,-2.3108,-2.3108,-2.3108,-2.3108,-2.3108,-2.3108,-2.3108,-2.3108,-2.3108,-2.3108,-2.3108,-2.3108,-2.3108,-2.3108,-2.3108,-2.3108,-2.3108,-2.3108,-2.3047,-2.2537,-2.1846,-2.1037,-2.0719,-2.0268,-1.9748,-1.9398,-1.8954,-1.8428,-1.811,-1.8008,-1.8008,-1.8008,-1.8008,-1.8008,-1.8008,-1.8008,-1.8008,-1.8008,-1.8008,-1.8008,-1.8008,-1.8008,-1.8008,-1.8008,-1.8008,-1.8008,-1.8008,-1.8008,-1.8008,-1.8008,-1.8008,-1.7959,-1.7803,-1.7773,-1.7715,-1.7549,-1.7666,-1.7773,-1.7773,-1.791,-1.8008,-1.8008,-1.8008,-1.8008,-1.8008,-1.7861,-1.7773,-1.7773,-1.7773,-1.7852,-1.8008,-1.8008,-1.8008,-1.8008,-1.8008,-1.8008,-1.8008,-1.8008,-1.8008,-0.6242,-0.7829,-0.9695,0.0,0.0,0.0,-1.5618,-1.6559,-1.7576,-1.9208,-1.9095,0.0,0.0,0.0,0.0,0.0,-2.1631,-2.2071,-2.297,-2.3108,-2.3108,-2.3108,-2.3108,-2.3108,-2.3108,-2.3108,-2.3108,-2.3108,-2.3108,-2.3108,-2.3108,-2.3108,-2.3108,-2.3108,-2.3108,-2.3108,-2.3108,-2.3108,-2.3108,-2.3108,-2.3108,-2.3108,-2.3108,-2.3108,-2.3108,-2.3108,-2.3108,-2.2944,-2.272,-2.272,-2.2567,-2.2249,-2.1385,-2.0719,-2.0171,-1.9879,-1.9398,-1.8877,-1.8877,-1.8496,-1.8008,-1.8008,-1.8008,-1.8008,-1.8008,-1.8008,-1.8008,-1.8008,-1.8008,-1.8008,-1.8008,-1.8008,-1.8008,-1.8008,-1.8008,-1.8008,-1.8008,-1.8008,-1.8008,-1.8008,-1.8008,-1.8008,-1.8008,-1.8008,-1.8008,-1.8008,-1.8008,-1.8008,-1.8008,-1.8008,-1.8008,-1.8008,-1.8008,-1.8008,-1.8008,-1.8008,-1.8008,-1.8008,-1.8008,-1.8008,-1.8008,-1.8008,-1.8008,-1.8008,-1.8008,-1.8008,-1.8008,-1.8008,-1.8008,-1.8008,-1.8008,-1.8008,-0.7292,-0.8527,-0.9945,0.0,0.0,0.0,-1.6283,-1.6513,-1.7325,-2.0126,0.0,-1.9999,-2.0591,-2.0239,0.0,-2.1305,-2.1958,-2.2498,-2.3032,-2.3108,-2.3108,-2.3108,-2.3108,-2.3108,-2.3108,-2.3108,-2.3108,-2.3108,-2.3108,-2.3108,-2.3108,-2.3108,-2.3108,-2.3108,-2.3108,-2.3108,-2.3108,-2.3108,-2.3108,-2.3078,-2.3078,-2.3078,-2.3108,-2.3078,-2.3078,-2.3078,-2.3065,-2.2628,-2.1877,-2.1877,-2.1365,-2.0494,-1.9628,-1.9299,-1.9177,-1.8337,-1.8008,-1.8008,-1.8008,-1.8008,-1.8008,-1.8008,-1.8008,-1.8008,-1.8008,-1.8008,-1.8008,-1.8008,-1.8008,-1.8008,-1.8008,-1.8008,-1.8008,-1.8008,-1.8008,-1.8008,-1.8008,-1.8008,-1.8008,-1.8008,-1.8008,-1.8008,-1.8008,-1.8008,-1.8008,-1.8008,-1.8008,-1.8008,-1.8008,-1.8008,-1.8008,-1.8008,-1.8008,-1.8008,-1.8008,-1.8008,-1.8008,-1.8008,-1.8008,-1.8008,-1.8008,-1.8008,-1.8008,-1.8008,-1.8008,-1.8008,-1.8008,-1.8008,-1.8008,-1.8008,-1.8008,-1.8008,-0.6989,-0.8926,0.0,-1.2015,0.0,0.0,0.0,-1.798,0.0,0.0,-2.1142,-2.1506,-2.1307,-2.1131,0.0,-2.1945,-2.2209,-2.2498,-2.3032,-2.3108,-2.3108,-2.3108,-2.3108,-2.3108,-2.3108,-2.3108,-2.3108,-2.3108,-2.3108,-2.3108,-2.3108,-2.3108,-2.3108,-2.3108,-2.3108,-2.3108,-2.3108,-2.3108,-2.2823,-2.2261,-2.2261,-2.2537,-2.3065,-2.2506,-2.2261,-2.223,-2.1616,-2.1195,-2.0974,-2.0974,-2.0462,-1.9661,-1.9398,-1.8921,-1.8361,-1.811,-1.8008,-1.8008,-1.8008,-1.8008,-1.8008,-1.8008,-1.8008,-1.8008,-1.8008,-1.8008,-1.8008,-1.8008,-1.8008,-1.8008,-1.8008,-1.8008,-1.8008,-1.8008,-1.8008,-1.8008,-1.8008,-1.8008,-1.8008,-1.8008,-1.8008,-1.8008,-1.8008,-1.8008,-1.8008,-1.8008,-1.8008,-1.8008,-1.8008,-1.8008,-1.8008,-1.8008,-1.8008,-1.8008,-1.8008,-1.8008,-1.8008,-1.8008,-1.8008,-1.8008,-1.8008,-1.8008,-1.8008,-1.8008,-1.8008,-1.8008,-1.8008,-1.8008,-1.8008,-1.8008,-1.8008,-1.8008,-0.8419,-1.0368,0.0,0.0,-1.5748,-1.7662,-1.8618,0.0,0.0,0.0,0.0,-2.2209,-2.1882,-2.182,0.0,-2.2259,-2.2498,-2.2732,-2.3058,-2.3108,-2.3108,-2.3108,-2.3108,-2.3108,-2.3108,-2.3108,-2.3108,-2.3108,-2.3108,-2.3108,-2.3108,-2.3108,-2.3108,-2.3108,-2.3108,-2.2957,-2.2641,-2.2628,-2.2218,-2.1396,-2.1396,-2.1647,-2.2082,-2.1616,-2.1396,-2.1333,-2.0462,-2.0074,-2.0042,-1.9726,-1.9276,-1.8787,-1.8787,-1.8462,-1.8008,-1.8008,-1.8008,-1.8008,-1.8008,-1.8008,-1.8008,-1.8008,-1.8008,-1.8008,-1.8008,-1.8008,-1.8008,-1.8008,-1.8008,-1.8008,-1.8008,-1.8008,-1.8008,-1.8008,-1.8008,-1.8008,-1.8008,-1.8008,-1.8008,-1.8008,-1.8008,-1.8008,-1.8008,-1.8008,-1.8008,-1.8008,-1.8008,-1.8008,-1.8008,-1.8008,-1.8008,-1.8008,-1.8008,-1.8008,-1.8008,-1.8008,-1.8008,-1.8008,-1.8008,-1.8008,-1.8008,-1.8008,-1.8008,-1.8008,-1.8008,-1.8008,-1.8008,-1.8008,-1.8008,-1.8008,-1.8008,-1.8008,-1.0651,0.0,0.0,0.0,0.0,0.0,-1.9459,-2.0639,-2.143,-2.1481,0.0,-2.2293,-2.2343,-2.2355,-2.2355,-2.2355,-2.2782,-2.3108,-2.3108,-2.3108,-2.3108,-2.3108,-2.3108,-2.3108,-2.3108,-2.3108,-2.3108,-2.3108,-2.3108,-2.3108,-2.3108,-2.3108,-2.3078,-2.2975,-2.2975,-2.2598,-2.1784,-2.1784,-2.1396,-2.059,-2.0526,-2.0494,-2.0494,-2.0494,-2.043,-2.0333,-1.9529,-1.9177,-1.911,-1.8337,-1.8008,-1.8008,-1.8008,-1.8008,-1.8008,-1.8008,-1.8008,-1.8008,-1.8008,-1.8008,-1.8008,-1.8008,-1.8008,-1.8008,-1.8008,-1.8008,-1.8008,-1.8008,-1.8008,-1.8008,-1.8008,-1.8008,-1.8008,-1.8008,-1.8008,-1.8008,-1.8008,-1.8008,-1.8008,-1.8008,-1.8008,-1.8008,-1.8008,-1.8008,-1.8008,-1.8008,-1.8008,-1.8008,-1.8008,-1.8008,-1.8008,-1.8008,-1.8008,-1.8008,-1.8008,-1.8008,-1.8008,-1.8008,-1.8008,-1.8008,-1.8008,-1.8008,-1.8008,-1.8008,-1.8008,-1.8008,-1.8008,-1.8008,-1.8008,-1.8008,-1.8008,-1.8008,0.0,-1.0902,0.0,0.0,0.0,-1.8869,-1.9635,-2.0365,-2.0993,-2.1393,-2.1933,-2.2447,-2.2844,-2.2932,-2.2932,-2.2932,-2.3032,-2.3108,-2.3108,-2.3108,-2.3108,-2.3108,-2.3108,-2.3108,-2.3108,-2.3108,-2.3108,-2.3108,-2.3108,-2.3108,-2.3108,-2.3108,-2.2823,-2.2199,-2.2168,-2.1753,-2.0878,-2.0878,-2.0782,-2.059,-1.9911,-1.9595,-1.9595,-1.9595,-1.9199,-1.8563,-1.8361,-1.8269,-1.8269,-1.8076,-1.8008,-1.8008,-1.8008,-1.8008,-1.8008,-1.8008,-1.8008,-1.8008,-1.8008,-1.8008,-1.8008,-1.8008,-1.8008,-1.8008,-1.8008,-1.8008,-1.8008,-1.8008,-1.8008,-1.8008,-1.8008,-1.8008,-1.8008,-1.8008,-1.8008,-1.8008,-1.8008,-1.8008,-1.8008,-1.8008,-1.8008,-1.8008,-1.8008,-1.8008,-1.8008,-1.8008,-1.8008,-1.8008,-1.8008,-1.8008,-1.8008,-1.8008,-1.8008,-1.8008,-1.8008,-1.8008,-1.8008,-1.8008,-1.8008,-1.8008,-1.8008,-1.8008,-1.8008,-1.8008,-1.8008,-1.8008,-1.8008,-1.8008,-1.8008,-1.8008,-1.8008,-1.8008,0.0,0.0,0.0,0.0,0.0,0.0,-1.9748,-2.0037,-2.044,-2.1006,-2.1531,-2.2083,-2.2606,-2.2706,-2.2794,-2.3058,-2.3108,-2.3108,-2.3108,-2.3108,-2.3108,-2.3108,-2.3108,-2.3108,-2.3108,-2.3108,-2.3108,-2.3108,-2.3108,-2.3108,-2.3108,-2.3108,-2.2914,-2.2476,-2.2476,-2.2063,-2.1227,-2.1239,-2.0814,-1.9977,-1.9529,-1.9077,-1.8687,-1.8687,-1.8428,-1.8008,-1.8008,-1.8008,-1.8008,-1.8008,-1.8008,-1.8008,-1.8008,-1.8008,-1.8008,-1.8008,-1.8008,-1.8008,-1.8008,-1.8008,-1.8008,-1.8008,-1.8008,-1.8008,-1.8008,-1.8008,-1.8008,-1.8008,-1.8154,-1.8227,-1.8057,-1.8311,-1.8564,-1.8325,-1.812,-1.8008,-1.8008,-1.8008,-1.8008,-1.8008,-1.8008,-1.8008,-1.8008,-1.8008,-1.8008,-1.8008,-1.8008,-1.8008,-1.8008,-1.8008,-1.8008,-1.8008,-1.8008,-1.8008,-1.8008,-1.8008,-1.8008,-1.8008,-1.8008,-1.8008,-1.8008,-1.8008,-1.8008,-1.8008,-1.8008,-1.8008,-1.8008,-1.8008,-1.8008,-1.8018,-1.8213,-1.8276,0.0,0.0,0.0,0.0,0.0,0.0,-1.976,-1.9798,-1.9936,-2.044,-2.0981,-2.1546,-2.2071,-2.2171,-2.2347,-2.2869,-2.2957,-2.2995,-2.3095,-2.3108,-2.3108,-2.3108,-2.3108,-2.3108,-2.3108,-2.3108,-2.3108,-2.3108,-2.3108,-2.3108,-2.3108,-2.3108,-2.3047,-2.2884,-2.2884,-2.2506,-2.169,-2.1522,-2.0814,-1.9529,-1.9365,-1.8854,-1.8008,-1.8008,-1.8008,-1.8008,-1.8008,-1.8008,-1.8008,-1.8008,-1.8008,-1.8008,-1.8008,-1.8008,-1.8008,-1.8008,-1.8008,-1.8008,-1.8008,-1.8008,-1.8018,-1.8096,-1.8066,-1.8018,-1.8096,-1.8081,-1.8081,-1.8081,-1.8383,-1.8637,-1.832,-1.876,-1.9199,-1.8792,-1.8486,-1.8203,-1.8135,-1.8057,-1.8008,-1.8008,-1.8008,-1.8008,-1.8008,-1.8008,-1.8008,-1.8008,-1.8008,-1.8008,-1.8008,-1.8008,-1.8047,-1.8144,-1.8164,-1.8174,-1.8223,-1.8232,-1.8232,-1.8232,-1.8232,-1.8232,-1.8232,-1.8232,-1.8232,-1.8232,-1.8086,-1.8047,-1.8081,-1.8081,-1.8164,-1.8232,-1.8559,-1.8715,0.0,0.0,0.0,0.0,0.0,0.0,0.0,0.0,-1.9823,0.0,-2.0402,-2.0968,-2.1493,-2.1594,-2.1782,-2.2334,-2.2422,-2.2556,-2.3032,-2.3108,-2.3108,-2.3108,-2.3108,-2.3108,-2.3108,-2.3108,-2.3108,-2.3108,-2.3108,-2.3108,-2.3108,-2.3108,-2.2793,-2.2063,-2.2063,-2.1647,-2.0782,-2.0009,-1.9911,-2.043,-1.9661,-1.8854,-1.8008,-1.8008,-1.8008,-1.8008,-1.8008,-1.8008,-1.8008,-1.8008,-1.8008,-1.8008,-1.8008,-1.8008,-1.8008,-1.8008,-1.8008,-1.8008,-1.8008,-1.8008,-1.8076,-1.8403,-1.8266,-1.8076,-1.8403,-1.852,-1.852,-1.852,-1.8867,-1.9189,-1.9131,-1.9199,-1.9277,-1.9219,-1.916,-1.9014,-1.8598,-1.8237,-1.8008,-1.8008,-1.8008,-1.8008,-1.8008,-1.8008,-1.8008,-1.8008,-1.8008,-1.8008,-1.8008,-1.8008,-1.8203,-1.8711,-1.8769,-1.8857,-1.9102,-1.9121,-1.9121,-1.9121,-1.9121,-1.9121,-1.9121,-1.9121,-1.9121,-1.9121,-1.8389,-1.8184,-1.852,-1.852,-1.875,-1.9121,-1.918,-1.9199,-0.8839,0.0,0.0,0.0,0.0,0.0,-1.8653,0.0,-1.9447,-1.9748,-1.9999,-2.0377,-2.0955,-2.1056,-2.1232,-2.1757,-2.1845,-2.1933,-2.2184,-2.2443,-2.2644,-2.2644,-2.292,-2.3108,-2.3108,-2.3108,-2.3108,-2.3108,-2.3108,-2.3108,-2.3108,-2.3108,-2.2732,-2.1939,-2.1908,-2.1491,-2.0623,-2.0236,-1.9977,-1.9846,-1.8977,-1.8361,-1.8008,-1.8008,-1.8008,-1.8008,-1.8008,-1.8008,-1.8008,-1.8008,-1.8008,-1.8008,-1.8008,-1.8008,-1.8008,-1.8008,-1.8008,-1.8008,-1.8008,-1.8008,-1.8076,-1.8461,-1.8481,-1.8403,-1.8867,-1.9004,-1.9004,-1.9004,-1.9307,-1.958,-1.9346,-1.9639,-1.9922,-1.9609,-1.959,-1.9648,-1.9707,-1.9189,-1.8721,-1.8721,-1.8721,-1.8682,-1.8525,-1.8496,-1.8389,-1.8057,-1.8008,-1.8359,-1.9316,-1.9443,-1.9578,-1.9832,-1.9541,-1.9346,-1.9287,-1.9287,-1.9287,-1.9287,-1.9287,-1.9287,-1.9287,-1.9287,-1.9287,-1.9287,-1.8916,-1.8818,-1.9004,-1.9004,-1.9102,-1.9297,-1.9531,-1.9639,0.0,0.0,0.0,0.0,0.0,0.0,0.0,0.0,-1.9108,0.0,-1.971,-1.9936,-2.039,-2.0478,-2.0654,-2.1219,-2.1307,-2.133,-2.1468,-2.1845,-2.2159,-2.2297,-2.2644,-2.2945,-2.3095,-2.3108,-2.3108,-2.3108,-2.3108,-2.3017,-2.2823,-2.2793,-2.2414,-2.1596,-2.1553,-2.127,-2.059,-2.0365,-1.9814,-1.8944,-1.8303,-1.8008,-1.8008,-1.8008,-1.8008,-1.8008,-1.8008,-1.8008,-1.8008,-1.8008,-1.8008,-1.8008,-1.8008,-1.8008,-1.8008,-1.8008,-1.8008,-1.8027,-1.8135,-1.813,-1.8252,-1.8754,-1.8851,-1.8851,-1.9316,-1.9443,-1.9443,-1.9443,-1.9746,-2.001,-1.9697,-2.0126,-2.0498,-2.0049,-2.0019,-2.0107,-2.0253,-1.9774,-1.9287,-1.9287,-1.9287,-1.9199,-1.8971,-1.8945,-1.8769,-1.8105,-1.8379,-1.9121,-2.0439,-2.0605,-2.0605,-2.0605,-2.0195,-1.9853,-1.9666,-1.9609,-1.9609,-1.9609,-1.9609,-1.9609,-1.9609,-1.9609,-1.9609,-1.9609,-1.9609,-1.9561,-1.9443,-1.9443,-1.9502,-1.9656,-1.9932,-2.0078,0.0,0.0,0.0,0.0,0.0,0.0,0.0,0.0,-1.9008,-1.9045,-1.9459,-1.9811,-1.9849,-1.9849,-2.0037,-2.0641,-2.0729,-2.0918,-2.1446,-2.1506,-2.1732,-2.2246,-2.2305,-2.2531,-2.3058,-2.3108,-2.3108,-2.3108,-2.3108,-2.2763,-2.2002,-2.197,-2.1553,-2.0687,-2.0655,-2.0655,-2.059,-1.9792,-1.8921,-1.8076,-1.8008,-1.8008,-1.8008,-1.8008,-1.8008,-1.8008,-1.8008,-1.8008,-1.8008,-1.8008,-1.8008,-1.8008,-1.8008,-1.8008,-1.8008,-1.8008,-1.8008,-1.8066,-1.8432,-1.8568,-1.8705,-1.958,-1.958,-1.9336,-1.9756,-1.9883,-1.9883,-1.9883,-2.0195,-2.0566,-2.0546,-2.0566,-2.0595,-2.0566,-2.0566,-2.0351,-1.9521,-1.9316,-1.9287,-1.9287,-1.9287,-1.9199,-1.8971,-1.9102,-1.8984,-1.8135,-1.9394,-2.0507,-2.0595,-2.0605,-2.0605,-2.0605,-2.0576,-2.0556,-2.0537,-2.0537,-2.0537,-2.0537,-2.0537,-2.0537,-2.0537,-2.0537,-2.0537,-2.0537,-2.0537,-2.0293,-1.9883,-1.9883,-2.0098,-2.0537,-2.0556,-2.0566,0.0,0.0,0.0,0.0,0.0,-1.3386,-1.4945,-1.6371,-1.7641,-1.8771,-1.9146,-1.9384,-1.9748,-1.9798,-1.9874,-2.0075,-2.0112,-2.0175,-2.0376,-2.0727,-2.1069,-2.1257,-2.1568,-2.1995,-2.2518,-2.2581,-2.2732,-2.3083,-2.3108,-2.2763,-2.1939,-2.1908,-2.1227,-1.9824,-1.9759,-1.9497,-1.8944,-1.862,-1.8303,-1.8008,-1.8008,-1.8008,-1.8008,-1.8008,-1.8008,-1.8008,-1.8008,-1.8008,-1.8008,-1.8008,-1.8008,-1.8008,-1.8008,-1.8008,-1.8008,-1.8008,-1.8149,-1.8403,-1.8549,-1.8783,-1.915,-1.9727,-1.9814,-1.9766,-2.0195,-2.0332,-2.0332,-2.0332,-2.0488,-2.0605,-2.0605,-2.0605,-2.0605,-2.0605,-2.0605,-2.0517,-2.0214,-2.0145,-2.0145,-2.0145,-2.0145,-2.0116,-2.0018,-2.0077,-2.0038,-1.9734,-2.0204,-2.0605,-2.0605,-2.0605,-2.0605,-2.0605,-2.0605,-2.0605,-2.0605,-2.0605,-2.0605,-2.0605,-2.0605,-2.0605,-2.0605,-2.0605,-2.0605,-2.0605,-2.0605,-2.0527,-2.0332,-2.0332,-2.0449,-2.0605,-2.0605,-2.0605,-0.6306,0.0,0.0,0.0,0.0,-1.1739,-1.3619,0.0,-1.6077,-1.7521,-1.8154,-1.8598,-1.9143,-1.9407,-1.9597,-1.9773,-1.9798,-1.9798,-1.9798,-2.0163,-2.0478,-2.0666,-2.1018,-2.143,-2.1983,-2.2033,-2.2259,-2.2782,-2.2568,-2.2116,-2.1479,-2.1207,-2.0365,-1.8911,-1.8844,-1.8596,-1.8008,-1.8008,-1.8008,-1.8008,-1.8008,-1.8008,-1.8008,-1.8008,-1.8008,-1.8008,-1.8008,-1.8008,-1.8008,-1.8008,-1.8008,-1.8008,-1.8008,-1.8008,-1.8008,-1.8008,-1.8184,-1.8432,-1.8724,-1.9043,-1.9375,-1.9951,-2.0127,-2.0185,-2.0517,-2.0605,-2.0605,-2.0605,-2.0605,-2.0605,-2.0605,-2.0605,-2.0605,-2.0605,-2.0605,-2.0605,-2.0605,-2.0605,-2.0605,-2.0605,-2.0605,-2.0605,-2.0605,-2.0605,-2.0605,-2.0605,-2.0605,-2.0605,-2.0605,-2.0605,-2.0605,-2.0605,-2.0605,-2.0605,-2.0605,-2.0605,-2.0605,-2.0605,-2.0605,-2.0605,-2.0605,-2.0605,-2.0605,-2.0605,-2.0605,-2.0605,-2.0605,-2.0605,-2.0605,-2.0605,-2.0605,-2.0605,0.0,0.0,0.0,0.0,0.0,0.0,-1.3079,0.0,-1.4357,-1.5274,-1.6382,-1.7386,-1.7961,-1.8547,-1.9121,-1.9673,-1.9786,-1.9798,-1.9798,-1.9798,-2.0012,-2.0591,-2.0666,-2.088,-2.1377,-2.1468,-2.1694,-2.2176,-2.1456,-2.0845,-2.0546,-1.9716,-1.8877,-1.8042,-1.8008,-1.8008,-1.8008,-1.8008,-1.8008,-1.8008,-1.8008,-1.8008,-1.8008,-1.8008,-1.8008,-1.8008,-1.8008,-1.8008,-1.8008,-1.8008,-1.8008,-1.8008,-1.8008,-1.8008,-1.8008,-1.8008,-1.8027,-1.8164,-1.8994,-1.9307,-1.9463,-2.0331,-2.0605,-2.0605,-2.0605,-2.0605,-2.0605,-2.0605,-2.0605,-2.0605,-2.0605,-2.0605,-2.0605,-2.0605,-2.0605,-2.0605,-2.0605,-2.0605,-2.0605,-2.0605,-2.0605,-2.0605,-2.0605,-2.0605,-2.0605,-2.0605,-2.0605,-2.0605,-2.0605,-2.0605,-2.0605,-2.0605,-2.0605,-2.0605,-2.0605,-2.0605,-2.0605,-2.0605,-2.0605,-2.0605,-2.0605,-2.0605,-2.0605,-2.0605,-2.0605,-2.0605,-2.0605,-2.0605,-2.0605,-2.0605,-2.0605,-2.0605,-0.5889,0.0,0.0,0.0,0.0,0.0,0.0,0.0,-1.2169,-1.4156,-1.4832,-1.5566,-1.723,-1.7653,-1.7959,-1.8545,-1.9296,-1.9798,-1.9798,-1.9798,-1.9861,-2.0024,-2.0037,-2.0065,-2.0119,-2.0605,-2.069,-2.0164,-2.0405,-2.013,-1.9211,-1.8637,-1.8236,-1.8008,-1.8008,-1.8008,-1.8008,-1.8008,-1.8008,-1.8008,-1.8008,-1.8008,-1.8008,-1.8008,-1.8008,-1.8008,-1.8008,-1.8008,-1.8008,-1.8008,-1.8008,-1.8008,-1.8008,-1.8008,-1.8008,-1.8008,-1.8408,-1.8965,-1.9209,-1.9697,-2.0292,-2.0527,-2.0605,-2.0605,-2.0605,-2.0605,-2.0605,-2.0605,-2.0605,-2.0605,-2.0605,-2.0605,-2.0605,-2.0605,-2.0605,-2.0605,-2.0605,-2.0605,-2.0605,-2.0605,-2.0605,-2.0605,-2.0605,-2.0605,-2.0605,-2.0605,-2.0605,-2.0605,-2.0605,-2.0605,-2.0605,-2.0605,-2.0605,-2.0605,-2.0605,-2.0605,-2.0605,-2.0605,-2.0605,-2.0605,-2.0605,-2.0605,-2.0605,-2.0605,-2.0605,-2.0605,-2.0605,-2.0605,-2.0605,-2.0605,-2.0605,-2.0605,0.0,0.0,0.0,0.0,0.0,0.0,-0.9856,-1.0226,-1.0735,-1.2711,-1.3445,-1.4205,-1.5645,-1.6263,-1.675,-1.7364,-1.798,-1.8527,-1.8951,-1.9198,-1.9333,-1.9333,-1.9333,-1.9442,-1.9653,-1.9528,-1.9404,-1.9425,-1.92,-1.8794,-1.8148,-1.7863,-1.7832,-1.8008,-1.8008,-1.8008,-1.8008,-1.8008,-1.8008,-1.8008,-1.8008,-1.8008,-1.8008,-1.8008,-1.8008,-1.8008,-1.8008,-1.8008,-1.8008,-1.8008,-1.8008,-1.8008,-1.8008,-1.8008,-1.8008,-1.8008,-1.8437,-1.9043,-1.9219,-1.9727,-2.0322,-2.0546,-2.0605,-2.0605,-2.0605,-2.0605,-2.0605,-2.0605,-2.0605,-2.0605,-2.0605,-2.0605,-2.0605,-2.0605,-2.0605,-2.0605,-2.0605,-2.0605,-2.0605,-2.0605,-2.0605,-2.0605,-2.0605,-2.0605,-2.0605,-2.0605,-2.0605,-2.0605,-2.0605,-2.0605,-2.0605,-2.0605,-2.0605,-2.0605,-2.0605,-2.0605,-2.0605,-2.0605,-2.0605,-2.0605,-2.0605,-2.0605,-2.0605,-2.0605,-2.0605,-2.0605,-2.0605,-2.0605,-2.0605,-2.0605,-2.0605,-2.0362,0.0,0.0,0.0,0.0,-0.8707,0.0,-1.0665,-1.0283,-0.9815,-1.1056,-1.2018,-1.2855,-1.3563,-1.4452,-1.5305,-1.5913,-1.6054,-1.6487,-1.7572,-1.8147,-1.8454,-1.8513,-1.8499,-1.8761,-1.9359,-1.8313,-1.8045,-1.906,-1.7872,-1.7155,-1.7298,-1.7363,-1.7578,-1.7998,-1.8008,-1.8008,-1.8008,-1.8008,-1.8008,-1.8008,-1.8008,-1.8008,-1.8008,-1.8008,-1.8008,-1.8008,-1.8008,-1.8008,-1.8008,-1.8008,-1.8008,-1.8008,-1.8008,-1.8008,-1.8008,-1.8008,-1.8276,-1.8734,-1.915,-1.96,-2.0049,-2.0478,-2.0605,-2.0605,-2.0605,-2.0605,-2.0605,-2.0605,-2.0605,-2.0605,-2.0605,-2.0605,-2.0605,-2.0605,-2.0605,-2.0605,-2.0605,-2.0605,-2.0605,-2.0605,-2.0605,-2.0605,-2.0605,-2.0605,-2.0605,-2.0605,-2.0605,-2.0605,-2.0605,-2.0605,-2.0605,-2.0605,-2.0605,-2.0605,-2.0605,-2.0605,-2.0605,-2.0605,-2.0605,-2.0605,-2.0605,-2.0605,-2.0605,-2.0605,-2.0479,-2.0401,-2.0401,-2.0527,-2.0605,-2.0605,-2.0479,-1.9923,-0.9377,-0.9747,-1.0205,-0.9328,0.0,0.0,-0.8577,-0.8555,-0.8806,0.0,-0.9651,-1.0205,-1.1515,-1.2218,-1.2799,-1.339,-1.3961,-1.4871,-1.6462,-1.6779,-1.6985,-1.7296,-1.7315,-1.7288,-1.7158,-1.7413,-1.7234,-1.6282,-1.6267,-1.6483,-1.6836,-1.7197,-1.7578,-1.7998,-1.8008,-1.8008,-1.8008,-1.8008,-1.8008,-1.8008,-1.8008,-1.8008,-1.8008,-1.8008,-1.8008,-1.8008,-1.8008,-1.8008,-1.8008,-1.8008,-1.8008,-1.8008,-1.8008,-1.8008,-1.8008,-1.8008,-1.8496,-1.918,-1.9258,-1.9795,-2.0488,-2.0576,-2.0605,-2.0605,-2.0605,-2.0605,-2.0605,-2.0605,-2.0605,-2.0605,-2.0605,-2.0605,-2.0605,-2.0605,-2.0605,-2.0605,-2.0605,-2.0605,-2.0605,-2.0605,-2.0605,-2.0605,-2.0605,-2.0605,-2.0605,-2.0605,-2.0605,-2.0605,-2.0605,-2.0605,-2.0605,-2.0605,-2.0605,-2.0605,-2.0605,-2.0605,-2.0605,-2.0605,-2.0605,-2.0605,-2.0605,-2.0605,-2.0605,-2.0605,-1.9756,-1.9313,-1.9313,-2.0167,-2.0605,-2.0566,-1.9717,-1.9204,-1.0546,-1.0742,-1.1105,-1.0459,0.0,0.0,0.0,-0.9133,-0.918,-0.9824,-0.9785,-0.9945,-1.0881,-1.143,-1.1861,-1.215,-1.2855,-1.3573,-1.4211,-1.5174,-1.5884,-1.6088,-1.6083,-1.628,-1.67,-1.6414,-1.5979,-1.5449,-1.5615,-1.5928,-1.6377,-1.6816,-1.7256,-1.7686,-1.79,-1.8008,-1.8008,-1.8008,-1.8008,-1.8008,-1.8008,-1.8008,-1.8008,-1.8008,-1.8008,-1.8008,-1.8008,-1.8008,-1.8008,-1.8008,-1.8008,-1.8008,-1.8008,-1.8008,-1.8008,-1.8008,-1.8555,-1.9287,-1.9287,-1.9891,-2.0605,-2.0605,-2.0605,-2.0605,-2.0605,-2.0605,-2.0605,-2.0605,-2.0605,-2.0605,-2.0605,-2.0605,-2.0605,-2.0605,-2.0605,-2.0605,-2.0605,-2.0605,-2.0605,-2.0605,-2.0605,-2.0605,-2.0605,-2.0605,-2.0605,-2.0605,-2.0605,-2.0605,-2.0605,-2.0605,-2.0605,-2.0605,-2.0605,-2.0605,-2.0605,-2.0605,-2.0605,-2.0605,-2.0605,-2.0362,-1.9805,-1.9805,-1.9726,-1.952,-1.8957,-1.835,-1.7617,-1.8141,-1.8581,-1.8948,-1.8997,-1.843,0.0,0.0,0.0,0.0,0.0,-1.0782,0.0,0.0,0.0,-1.0537,-1.0459,0.0,0.0,0.0,-1.1203,-1.1203,-1.1956,-1.2324,-1.1784,-1.3307,-1.4539,-1.4607,-1.4774,-1.5268,-1.6227,-1.5174,-1.4629,-1.5098,-1.5088,-1.5303,-1.5938,-1.6445,-1.6934,-1.7406,-1.7793,-1.8008,-1.8008,-1.8008,-1.8008,-1.8008,-1.8008,-1.8008,-1.8008,-1.8008,-1.8008,-1.8008,-1.8008,-1.8008,-1.8008,-1.8008,-1.8008,-1.8008,-1.8008,-1.8008,-1.8008,-1.8008,-1.8555,-1.9287,-1.9287,-1.9891,-2.0605,-2.0605,-2.0605,-2.0605,-2.0605,-2.0605,-2.0605,-2.0605,-2.0605,-2.0605,-2.0605,-2.0605,-2.0605,-2.0605,-2.0605,-2.0605,-2.0605,-2.0605,-2.0605,-2.0605,-2.0605,-2.0605,-2.0605,-2.0605,-2.0605,-2.0605,-2.0605,-2.0605,-2.0605,-2.0605,-2.0605,-2.0605,-2.0605,-2.0605,-2.0605,-2.0605,-2.0605,-2.0605,-2.0605,-2.0196,-1.9362,-1.9323,-1.9155,-1.8838,-1.8399,-1.7536,-1.6198,-1.5918,-1.6322,-1.7334,-1.802,-1.7407,0.0,0.0,0.0,0.0,-1.2103,0.0,0.0,0.0,-1.0556,-0.9893,0.0,0.0,0.0,0.0,0.0,-0.9825,-1.0556,-1.0829,-1.0001,-1.1118,-1.215,-1.2509,-1.3229,-1.3748,-1.3874,-1.3411,-1.3428,-1.4192,-1.3936,-1.4238,-1.543,-1.6248,-1.6934,-1.7406,-1.7793,-1.8008,-1.8008,-1.8008,-1.8008,-1.8008,-1.8008,-1.8008,-1.8008,-1.8008,-1.8008,-1.8008,-1.8008,-1.8008,-1.8008,-1.8008,-1.8008,-1.8008,-1.8008,-1.8008,-1.8008,-1.8008,-1.8555,-1.9287,-1.9287,-1.9891,-2.0605,-2.0605,-2.0605,-2.0605,-2.0605,-2.0605,-2.0605,-2.0605,-2.0605,-2.0605,-2.0605,-2.0605,-2.0605,-2.0605,-2.0605,-2.0605,-2.0605,-2.0605,-2.0605,-2.0605,-2.0605,-2.0605,-2.0605,-2.0605,-2.0605,-2.0605,-2.0605,-2.0605,-2.0605,-2.0605,-2.0605,-2.0605,-2.0605,-2.0605,-2.0605,-2.0605,-2.0605,-2.0605,-2.0605,-2.0566,-2.0401,-2.0401,-2.0401,-2.0362,-1.843,-1.7017,-1.6198,-1.4943,-1.5352,-1.7302,-1.6478,-1.5944,0.0,0.0,0.0,0.0,0.0,0.0,-1.0673,0.0,-1.0879,0.0,0.0,0.0,0.0,0.0,0.0,0.0,-1.0312,-1.0332,-0.968,-1.0322,-1.0997,-1.1406,-1.1777,-1.2305,-1.3066,-1.3013,-1.3232,-1.4046,-1.3516,-1.3701,-1.498,-1.5635,-1.6258,-1.6982,-1.7422,-1.7764,-1.8008,-1.8008,-1.8008,-1.8008,-1.8008,-1.8008,-1.8008,-1.8008,-1.8008,-1.8008,-1.8008,-1.8008,-1.8008,-1.8008,-1.8008,-1.8008,-1.8008,-1.8008,-1.8008,-1.8008,-1.8555,-1.9287,-1.9287,-1.9891,-2.0605,-2.0605,-2.0605,-2.0605,-2.0605,-2.0605,-2.0605,-2.0605,-2.0605,-2.0605,-2.0605,-2.0605,-2.0605,-2.0605,-2.0605,-2.0605,-2.0605,-2.0605,-2.0605,-2.0605,-2.0605,-2.0605,-2.0605,-2.0605,-2.0605,-2.0605,-2.0605,-2.0605,-2.0605,-2.0605,-2.0605,-2.0605,-2.0605,-2.0605,-2.0605,-2.0605,-2.0605,-2.0605,-2.0605,-2.0605,-2.0605,-1.8939,-1.7649,-1.6846,-1.5918,-1.5311,-1.4985,-1.437,-1.4573,-1.5436,-1.5621,-1.5379,-1.3203,0.0,0.0,0.0,0.0,0.0,0.0,0.0,0.0,0.0,0.0,0.0,0.0,0.0,0.0,0.0,0.0,-1.0068,-0.9367,-0.9658,-1.0088,-1.0488,-1.0741,-1.1328,-1.2436,-1.222,-1.2441,-1.35,-1.2822,-1.2949,-1.4365,-1.5059,-1.5762,-1.6523,-1.709,-1.7578,-1.8008,-1.8008,-1.8008,-1.8008,-1.8008,-1.8008,-1.8008,-1.8008,-1.8008,-1.8008,-1.8008,-1.8008,-1.8008,-1.8008,-1.8008,-1.8008,-1.8008,-1.8076,-1.8149,-1.8149,-1.873,-1.9453,-1.9453,-1.9941,-2.0605,-2.0605,-2.0605,-2.0605,-2.0605,-2.0605,-2.0605,-2.0605,-2.0605,-2.0605,-2.0605,-2.0605,-2.0605,-2.0605,-2.0605,-2.0605,-2.0605,-2.0605,-2.0605,-2.0605,-2.0605,-2.0605,-2.0605,-2.0605,-2.0605,-2.0605,-2.0605,-2.0605,-2.0605,-2.0605,-2.0605,-2.0605,-2.0605,-2.0605,-2.0605,-2.0605,-2.0605,-2.0605,-2.0605,-2.0401,-2.0001,-1.7738,-1.5918,-1.4699,-1.4292,-1.4088,-1.4088,-1.4088,-1.4088,-1.413,-1.4894,-1.4852,-1.3721,-1.3763,-1.3675,-1.2025,-1.1904,-1.1979,-1.1113,-1.155,-1.2164,0.0,0.0,0.0,0.0,0.0,0.0,0.0,0.0,0.0,0.0,0.0,0.0,0.0,-1.0381,-1.1094,-1.1584,-1.0469,-1.0429,-1.2135,-1.1453,-1.1728,-1.3457,-1.4727,-1.5615,-1.6095,-1.6966,-1.7578,-1.8008,-1.8008,-1.8008,-1.8008,-1.8008,-1.8008,-1.8008,-1.8008,-1.8008,-1.8008,-1.8008,-1.8008,-1.8008,-1.8008,-1.8008,-1.8008,-1.8008,-1.8227,-1.8578,-1.8578,-1.9124,-1.9893,-1.9893,-2.0185,-2.0605,-2.0605,-2.0605,-2.0605,-2.0605,-2.0605,-2.0605,-2.0605,-2.0605,-2.0605,-2.0605,-2.0605,-2.0605,-2.0605,-2.0605,-2.0605,-2.0605,-2.0605,-2.0605,-2.0605,-2.0605,-2.0605,-2.0605,-2.0605,-2.0605,-2.0605,-2.0605,-2.0605,-2.0605,-2.0605,-2.0605,-2.0605,-2.0605,-2.0605,-2.0605,-2.0605,-2.0605,-2.0605,-2.0605,-1.9962,-1.8519,-1.7706,-1.6895,-1.6157,-1.4776,-1.4088,-1.4088,-1.4088,-1.4088,-1.4088,-1.413,-1.4124,-1.3977,-1.4211,-1.4219,-1.2817,-1.2549,-1.2422,-1.1565,-1.1797,-1.2203,-1.2203,0.0,0.0,0.0,0.0,0.0,0.0,0.0,0.0,0.0,0.0,-0.875,0.0,0.0,0.0,0.0,-1.0146,-1.0547,-1.1721,-1.124,-1.167,-1.3418,-1.4153,-1.5029,-1.6065,-1.6641,-1.7295,-1.8008,-1.8008,-1.8008,-1.8008,-1.8008,-1.8008,-1.8008,-1.8008,-1.8008,-1.8008,-1.8008,-1.8008,-1.8008,-1.8008,-1.8174,-1.8393,-1.8393,-1.8822,-1.9377,-1.8812,-1.9143,-1.9951,-2.0244,-2.0478,-2.0605,-2.0605,-2.0605,-2.0605,-2.0605,-2.0605,-2.0605,-2.0605,-2.0605,-2.0605,-2.0605,-2.0605,-2.0605,-2.0605,-2.0605,-2.0605,-2.0605,-2.0605,-2.0605,-2.0605,-2.0605,-2.0118,-1.8669,-1.843,-1.8908,-2.0362,-2.0605,-1.955,-1.6683,-1.6322,-1.6322,-1.6322,-1.6322,-1.6322,-1.6322,-1.6322,-1.6322,-1.6322,-1.6322,-1.6075,-1.5553,-1.5311,-1.5068,-1.4824,-1.4328,-1.4088,-1.4088,-1.4088,-1.4182,-1.4369,-1.4369,-1.4369,-1.4377,-1.457,-1.4539,-1.3414,-1.3105,-1.2935,-1.221,-1.2363,-1.2662,-1.2662,-1.31,-1.3467,0.0,0.0,0.0,0.0,0.0,0.0,0.0,-0.8522,0.0,0.0,0.0,0.0,0.0,-0.957,-0.9912,-1.1252,-1.0781,-1.119,-1.2934,-1.3714,-1.4552,-1.5606,-1.6338,-1.7038,-1.7783,-1.7939,-1.8008,-1.8008,-1.8008,-1.8008,-1.8008,-1.8008,-1.8008,-1.8008,-1.8008,-1.8008,-1.8008,-1.8008,-1.8252,-1.8598,-1.8598,-1.9124,-1.9844,-1.926,-1.9541,-2.0185,-2.0507,-2.0605,-2.0605,-2.0605,-2.0605,-2.0605,-2.0605,-2.0605,-2.0605,-2.0605,-2.0605,-2.0605,-2.0605,-2.0605,-2.0605,-2.0605,-2.0605,-2.0605,-2.0605,-2.0605,-2.0605,-2.0605,-2.0284,-1.9597,-1.8282,-1.7524,-1.7655,-1.9183,-1.9432,-1.8421,-1.5594,-1.458,-1.4168,-1.4419,-1.4208,-1.4255,-1.4669,-1.4329,-1.4088,-1.4088,-1.4088,-1.4088,-1.4088,-1.4222,-1.4275,-1.4242,-1.4349,-1.4439,-1.4439,-1.4439,-1.4496,-1.4676,-1.4783,-1.483]},{"header":{"parameterUnit":"m.s-1","parameterCategory":1,"la1":30.6,"la2":29.2853,"lo1":-89.7004,"lo2":-87.6739,"dy":0.0162,"dx":0.0183,"nx":112,"ny":82,"refTime":"2024-08-24T18:00:00:Z","depth":0,"parameterNumber":3,"parameterNumberName":"V-component_of_WINDS"},"data":[0.0,0.0,0.0,0.0,0.0,0.0,0.0,0.0,0.0,0.0,0.0,0.0,0.0,0.0,0.0,0.0,0.0,0.0,0.0,0.0,0.0,0.0,0.0,0.0,0.0,0.0,0.0,0.0,0.0,0.0,0.0,0.0,0.0,0.0,0.0,0.0,0.0,0.0,0.0,0.0,0.0,0.0,0.0,0.0,0.0,0.0,0.0,0.0,0.0,0.0,0.0,0.0,0.0,0.0,0.0,0.0,0.0,0.0,0.0,0.0,0.0,0.0,0.0,0.0,0.0,0.0,0.0,0.0,0.0,0.0,0.0,0.0,0.0,0.0,0.0,0.0,0.0,0.0,0.0,0.0,0.0,0.0,0.0,0.0,0.0,0.0,0.0,0.0,0.0,0.0,0.6474,0.8236,0.9315,0.9931,0.997,0.9894,0.9532,0.8774,0.0,0.0,0.0,0.0,0.0,0.0,0.0,0.0,0.0,0.0,0.0,0.0,0.0,0.0,0.0,0.0,0.0,0.0,0.0,0.0,0.0,0.0,0.0,0.0,0.0,0.0,0.0,0.0,0.0,0.0,0.0,0.0,0.0,0.0,0.0,0.0,0.0,0.0,0.0,0.0,0.0,0.0,0.0,0.0,0.0,0.0,0.0,0.0,0.0,0.0,0.0,0.0,0.0,0.0,0.0,0.0,0.0,0.0,0.0,0.0,0.0,0.0,0.0,0.0,0.0,0.0,0.0,0.0,0.0,0.0,0.0,0.0,0.0,0.0,0.0,0.0,0.0,0.0,0.0,0.0,0.0,0.0,0.0,0.0,0.0,0.0,0.0,0.0,0.0,0.0,0.0,0.0,0.0,0.0,0.0,0.0,0.0,0.0,0.0,0.0,0.0,0.0,0.0,0.0,0.6612,0.8761,0.9529,1.0021,1.031,0.9915,0.9537,0.9298,0.0,0.0,0.0,0.0,0.0,0.0,0.0,0.0,0.0,0.0,0.0,0.0,0.0,0.0,0.0,0.0,0.0,0.0,0.0,0.0,0.0,0.0,0.0,0.0,0.0,0.0,0.0,0.0,0.0,0.0,0.0,0.0,0.0,0.0,0.0,0.0,0.0,0.0,0.0,0.0,0.0,0.0,0.0,0.0,0.0,0.0,0.0,0.0,0.0,0.0,0.0,0.0,0.0,0.0,0.0,0.0,0.0,0.0,0.0,0.0,0.0,0.0,0.0,0.0,0.0,0.0,0.0,0.0,0.0,0.0,0.0,0.0,0.0,0.0,0.0,0.0,0.0,0.0,0.0,0.0,0.0,0.0,0.0,0.0,0.0,0.0,0.0,0.0,0.0,0.0,0.0,0.0,0.0,0.0,0.0,0.0,0.0,0.0,0.0,0.0,0.0,0.0,0.0,0.6804,0.7759,0.9365,0.9755,0.9957,1.011,1.0062,0.9778,0.9174,0.7862,0.0,0.0,0.0,0.0,0.0,0.0,0.0,0.0,0.0,0.0,0.0,0.0,0.0,0.0,0.0,0.0,0.0,0.0,0.0,0.0,0.0,0.0,0.0,0.0,0.0,0.0,0.0,0.0,0.0,0.0,0.0,0.0,0.0,0.0,0.0,0.0,0.0,0.0,0.0,0.0,0.0,0.0,0.0,0.0,0.0,0.0,0.0,0.0,0.0,0.0,0.0,0.0,0.0,0.0,0.0,0.0,0.0,0.0,0.0,0.0,0.0,0.0,0.0,0.0,0.0,0.0,0.0,0.0,0.0,0.0,0.0,0.0,0.0,0.0,0.0,0.0,0.0,0.0,0.0,0.0,0.0,0.0,0.0,0.0,0.0,0.0,0.0,0.0,0.0,0.0,0.0,0.0,0.0,0.0,0.0,0.0,0.0,0.0,0.0,0.0,0.0,0.0,0.7926,0.8713,0.978,0.997,1.0046,1.0122,1.0302,1.0035,0.9188,0.7949,0.0,0.0,0.0,0.0,0.0,0.0,0.0,0.0,0.0,0.0,0.0,0.0,0.0,0.0,0.0,0.0,0.0,0.0,0.0,0.0,0.0,0.0,0.0,0.0,0.0,0.0,0.0,0.0,0.0,0.0,0.0,0.0,0.0,0.0,0.0,0.0,0.0,0.0,0.0,0.0,0.0,0.0,0.0,0.0,0.0,0.0,0.0,0.0,0.0,0.0,0.0,0.0,0.0,0.0,0.0,0.0,0.0,0.0,0.0,0.0,0.0,0.0,0.0,0.0,0.0,0.0,0.0,0.0,0.0,0.0,0.0,0.0,0.0,0.0,0.0,0.0,0.0,0.0,0.0,0.0,0.0,0.0,0.0,0.0,0.0,0.0,0.0,0.0,0.0,0.0,0.0,0.0,0.0,0.0,0.0,0.0,0.0,0.0,0.0,0.0,0.0,0.0,0.7926,0.8713,0.978,1.0173,1.0495,1.0801,1.0565,1.024,0.9861,0.7901,0.0,0.0,0.0,0.0,0.0,0.0,0.0,0.0,0.0,0.0,0.0,0.0,0.0,0.0,0.0,0.0,0.0,0.0,0.0,0.0,0.0,0.0,0.0,0.0,0.0,0.0,0.0,0.0,0.0,0.0,0.0,0.0,0.0,0.0,0.0,0.0,0.0,0.0,0.0,0.0,0.0,0.0,0.0,0.0,0.0,0.0,0.0,0.0,0.0,0.0,0.0,0.0,0.0,0.0,0.0,0.0,0.0,0.0,0.0,0.0,0.0,0.0,0.0,0.0,0.0,0.0,0.0,0.0,0.0,0.0,0.0,0.0,0.0,0.0,0.0,0.0,0.0,0.0,0.0,0.0,0.0,0.0,0.0,0.0,0.0,0.0,0.0,0.0,0.0,0.0,0.0,0.0,0.0,0.0,0.0,0.0,0.0,0.0,0.0,0.0,0.0,0.0,0.7926,0.8713,0.0,1.0008,1.0148,1.0261,1.0158,0.9856,0.9321,0.0,0.0,0.0,0.0,0.0,0.0,0.0,0.0,0.0,0.0,0.0,0.0,0.0,0.0,0.0,0.0,0.0,0.0,0.0,0.0,0.0,0.0,0.0,0.0,0.0,0.0,0.0,0.0,0.0,0.0,0.0,0.0,0.0,0.0,0.0,0.0,0.0,0.0,0.0,0.0,0.0,0.0,0.0,0.0,0.0,0.0,0.0,0.0,0.0,0.0,0.0,0.0,0.0,0.0,0.0,0.0,0.0,0.0,0.0,0.0,0.0,0.0,0.0,0.0,0.0,0.0,0.0,0.0,0.0,0.0,0.0,0.0,0.0,0.0,0.0,0.0,0.0,0.0,0.0,0.0,0.0,0.0,0.0,0.0,0.0,0.0,0.0,0.0,0.0,0.0,0.0,0.0,0.0,0.0,0.0,0.0,0.0,0.0,0.0,0.0,0.0,0.0,0.7463,0.8049,0.8713,0.0,0.9995,1.0097,1.0211,0.9922,0.9581,0.9235,0.0,0.0,0.0,0.0,0.0,0.0,0.0,0.0,0.0,0.0,0.0,0.0,0.0,0.0,0.0,0.0,0.0,0.0,0.0,0.0,0.0,0.0,0.0,0.0,0.0,0.0,0.0,0.0,0.0,0.0,0.0,0.0,0.0,0.0,0.0,0.0,0.0,0.0,0.0,0.0,0.0,0.0,0.0,0.0,0.0,0.0,0.0,0.0,0.0,0.0,0.0,0.0,0.0,0.0,0.0,0.0,0.0,0.0,0.0,0.0,0.0,0.0,0.0,0.0,0.0,0.0,0.0,0.0,0.0,0.0,0.0,0.0,0.0,0.0,0.0,0.0,0.0,0.0,0.0,0.0,0.0,0.0,0.0,0.0,0.0,0.0,0.0,0.0,0.0,0.0,0.0,0.0,0.0,0.0,0.0,0.0,0.0,0.0,0.0,0.0,0.0,0.0,0.8022,0.8298,0.8713,0.9792,1.0198,1.0544,1.0873,0.9975,0.9536,0.0,0.0,0.0,0.0,0.0,0.0,0.0,0.0,0.0,0.0,0.0,0.0,0.0,0.0,0.0,0.0,0.0,0.0,0.0,0.0,0.0,0.0,0.0,0.0,0.0,0.0,0.0,0.0,0.0,0.0,0.0,0.0,0.0,0.0,0.0,0.0,0.0,0.0,0.0,0.0,0.0,0.0,0.0,0.0,0.0,0.0,0.0,0.0,0.0,0.0,0.0,0.0,0.0,0.0,0.0,0.0,0.0,0.0,0.0,0.0,0.0,0.0,0.0,0.0,0.0,0.0,0.0,0.0,0.0,0.0,0.0,0.0,0.0,0.0,0.0,0.0,0.0,0.0,0.0,0.0,0.0,0.0,0.0,0.0,0.0,0.0,0.0,0.0,0.0,0.0,0.0,0.0,0.0,0.0,0.0,0.0,0.0,0.0,0.0,0.0,0.0,0.0,0.0,0.8031,0.8423,0.8965,1.0131,1.0334,1.0544,1.0873,0.9975,0.9437,0.9536,0.0,0.0,0.0,0.0,0.0,0.0,0.0,0.0,0.0,0.0,0.0,0.0,0.0,0.0,0.0,0.0,0.0,0.0,0.0,0.0,0.0,0.0,0.0,0.0,0.0,0.0,0.0,0.0,0.0,0.0,0.0,0.0,0.0,0.0,0.0,0.0,0.0,0.0,0.0,0.0,0.0,0.0,0.0,0.0,0.0,0.0,0.0,0.0,0.0,0.0,0.0,0.0,0.0,0.0,0.0,0.0,0.0,0.0,0.0,0.0,0.0,0.0,0.0,0.0,0.0,0.0,0.0,0.0,0.0,0.0,0.0,0.0,0.0,0.0,0.0,0.0,0.0,0.0,0.0,0.0,0.0,0.0,0.0,0.0,0.0,0.0,0.0,0.0,0.0,0.0,0.0,0.0,0.0,0.0,0.0,0.0,0.0,0.0,0.0,0.0,0.0,0.0,0.8149,0.8641,0.9212,1.0289,1.052,1.0714,1.1036,1.0275,0.9744,0.9612,0.0,0.0,0.0,0.0,0.0,0.0,0.0,0.0,0.0,0.0,0.0,0.0,0.0,0.0,0.0,0.0,0.0,0.0,0.0,0.0,0.0,0.0,0.0,0.0,0.0,0.0,0.0,0.0,0.0,0.0,0.0,0.0,0.0,0.0,0.0,0.0,0.0,0.0,0.0,0.0,0.0,0.0,0.0,0.0,0.0,0.0,0.0,0.0,0.0,0.0,0.0,0.0,0.0,0.0,0.0,0.0,0.0,0.0,0.0,0.0,0.0,0.0,0.0,0.0,0.0,0.0,0.0,0.0,0.0,0.0,0.0,0.0,0.0,0.0,0.0,0.0,0.0,0.0,0.0,0.0,0.0,0.0,0.0,0.0,0.0,0.0,0.0,0.0,0.0,0.0,0.0,0.0,0.0,0.0,0.0,0.0,0.0,0.0,0.0,0.0,0.0,0.0,0.8296,0.8897,0.9454,1.0315,1.0703,1.1013,1.1287,1.076,1.0277,0.9926,0.0,0.0,0.0,0.0,0.0,0.0,0.0,0.0,0.0,0.0,0.0,0.0,0.0,0.0,0.0,0.0,0.0,0.0,0.0,0.0,0.0,0.0,0.0,0.0,0.0,0.0,0.0,0.0,0.0,0.0,0.0,0.0,0.0,0.0,0.0,0.0,0.0,0.0,0.0,0.0,0.0,0.0,0.0,0.0,0.0,0.0,0.0,0.0,0.0,0.0,0.0,0.0,0.0,0.0,0.0,0.0,0.0,0.0,0.0,0.0,0.7031,0.6461,0.0,0.0,0.0,0.0,0.0,0.0,0.0,0.0,0.0,0.0,0.0,0.0,0.0,0.0,0.0,0.0,0.0,0.0,0.0,0.0,0.0,0.0,0.0,0.0,0.0,0.0,0.0,0.0,0.0,0.0,0.0,0.0,0.0,0.0,0.0,0.0,0.0,0.0,0.0,0.0,0.8175,0.8937,0.9606,1.033,1.0703,1.1013,1.1287,1.0938,1.0485,0.9935,0.8506,0.0,0.0,0.0,0.0,0.0,0.0,0.0,0.0,0.0,0.0,0.0,0.0,0.0,0.0,0.0,0.0,0.0,0.0,0.0,0.0,0.0,0.0,0.0,0.0,0.0,0.0,0.0,0.0,0.0,0.0,0.0,0.0,0.0,0.0,0.0,0.0,0.0,0.0,0.0,0.0,0.0,0.0,0.0,0.0,0.0,0.0,0.0,0.0,0.0,0.0,0.0,0.0,0.0,0.0,0.0,0.0,0.0,0.0,0.0,0.8944,0.8278,0.0,0.0,0.0,0.0,0.0,0.0,0.0,0.0,0.0,0.0,0.0,0.0,0.0,0.0,0.0,0.0,0.0,0.0,0.0,0.0,0.0,0.0,0.0,0.0,0.0,0.0,0.0,0.0,0.0,0.0,0.0,0.0,0.0,0.0,0.0,0.0,0.0,0.0,0.0,0.0,0.8665,0.9553,1.0267,1.0786,1.1127,1.1392,1.1523,1.1381,1.1002,1.0374,0.9105,0.0,0.0,0.0,0.0,0.0,0.0,0.0,0.0,0.0,0.0,0.0,0.0,0.0,0.0,0.0,0.0,0.0,0.0,0.0,0.0,0.0,0.0,0.0,0.0,0.0,0.0,0.0,0.0,0.0,0.0,0.0,0.0,0.0,0.0,0.0,0.0,0.0,0.0,0.0,0.0,0.0,0.0,0.0,0.0,0.0,0.0,0.0,0.0,0.0,0.0,0.0,0.0,0.0,1.1062,1.1408,1.2337,1.1689,1.1744,1.2307,1.1263,1.0668,1.0357,0.9745,0.0,0.0,0.0,0.0,0.0,0.0,0.0,0.0,0.0,0.0,0.0,0.0,0.0,0.0,0.0,0.0,0.0,0.0,0.0,0.0,0.0,0.0,1.0106,1.1149,1.1772,1.17,1.0103,0.0,0.0,0.0,0.0,0.0,0.0,0.0,0.0,0.0,0.0,0.0,0.9513,1.0452,1.1103,1.1391,1.1699,1.1833,1.1729,1.1772,1.151,1.0842,0.9809,0.8942,0.0,0.0,0.0,0.0,0.0,0.0,0.0,0.0,0.0,0.0,0.0,0.0,0.0,0.0,0.0,0.0,0.0,0.0,0.0,0.0,0.0,0.0,0.0,0.0,0.0,0.0,0.0,0.0,0.0,0.0,0.0,0.0,0.5612,0.5477,0.0,0.0,0.0,0.0,0.0,0.0,0.0,0.0,0.0,0.0,0.0,0.0,0.0,1.0137,1.0355,1.1387,1.202,1.2238,1.3201,1.398,1.4572,1.3996,1.4041,1.4571,1.4514,0.0,1.1578,1.1467,0.0,0.0,0.0,0.0,0.0,0.0,0.0,0.0,0.0,0.0,0.0,0.0,0.0,0.0,0.0,0.0,0.0,0.0,0.0,0.0,0.0,0.0,1.3071,1.2659,1.3071,1.3468,1.3211,1.1854,1.0449,0.9665,0.9098,0.8334,0.0,0.0,0.0,0.0,0.0,0.0,1.0579,1.1354,1.1775,1.1822,1.2068,1.2006,1.1421,1.1637,1.151,1.0842,1.0633,1.0269,0.9659,0.8431,0.0,0.0,0.0,0.0,0.0,0.0,0.0,0.0,0.0,0.0,0.0,0.0,0.0,0.0,0.0,0.0,0.0,0.0,0.0,0.0,0.0,0.0,0.0,0.0,0.0,0.0,0.0,0.0,0.0,0.5954,0.659,0.5848,0.6617,0.6871,0.0,0.0,0.0,0.0,0.0,0.0,0.0,0.0,0.0,1.0696,1.1413,1.2032,1.2559,1.3081,1.3614,1.4146,1.468,1.5167,1.5611,1.5373,1.539,1.5624,1.5682,1.5134,1.4166,1.3364,1.2822,1.2377,0.0,0.0,0.0,0.0,1.186,1.2289,1.3046,1.305,1.2745,1.2681,0.0,0.0,0.0,0.0,0.0,0.0,0.0,1.2268,1.3346,1.4263,1.4946,1.4978,1.5501,1.589,1.5502,1.447,1.3208,1.1801,1.1591,1.0952,0.8746,0.8768,0.0,0.0,0.0,1.0724,1.1858,1.2577,1.296,1.296,1.3073,1.2868,1.2193,1.2287,1.2085,1.1405,1.1017,1.0678,1.0419,0.9516,0.8671,0.0,0.0,0.0,0.0,0.0,0.0,0.0,0.0,0.0,0.0,0.0,0.0,0.0,0.0,0.0,0.0,0.0,0.0,0.0,0.0,0.0,0.0,0.0,0.0,0.0,0.0,0.0,0.0,0.6869,0.7798,0.6724,0.7995,0.8475,0.0,0.0,0.0,0.0,0.0,0.0,1.0026,1.105,1.191,1.2554,1.3009,1.3594,1.4286,1.4437,1.4853,1.5555,1.5679,1.5975,1.6396,1.6265,1.6284,1.6396,1.6265,1.6284,1.6298,1.4886,1.4241,1.406,1.3023,1.2615,1.2701,1.3336,1.3673,1.3929,1.4947,1.4948,1.4574,1.4739,1.4334,1.37,1.3198,0.0,0.0,0.0,0.0,1.4064,1.5231,1.5904,1.6398,1.6846,1.7339,1.7548,1.707,1.6592,1.5694,1.3688,1.357,1.3061,1.0749,1.0871,0.0,1.0445,1.1321,1.2355,1.3193,1.375,1.4064,1.4064,1.4064,1.378,1.3118,1.2894,1.2579,1.21,1.1431,1.1062,1.1062,1.0464,0.959,0.8431,0.0,0.0,0.0,0.0,0.0,0.0,0.0,0.0,0.0,0.0,0.0,0.0,0.0,0.0,0.0,0.0,0.0,0.0,0.0,0.0,0.0,0.0,0.0,0.0,0.0,0.0,0.0,0.0,0.0,0.8565,1.0002,0.0,0.0,0.0,0.0,1.0042,1.0376,1.0962,1.1827,1.2641,1.3496,1.4349,1.4637,1.4815,1.4865,1.5374,1.5651,1.5696,1.6204,1.6726,1.722,1.6705,1.6747,1.7199,1.6697,1.6768,1.7128,1.5725,1.5151,1.5122,1.4916,1.4843,1.4902,1.5447,1.6009,1.6502,1.6577,1.6577,1.6651,1.7294,1.6683,1.5663,1.5618,1.5169,0.0,0.0,1.6069,1.6682,1.7369,1.7579,1.7609,1.7654,1.7684,1.7699,1.7652,1.7639,1.7026,1.5067,1.4214,1.3543,1.2762,0.0,1.2684,1.2643,1.2699,1.3223,1.4526,1.4736,1.4751,1.4751,1.4751,1.4468,1.381,1.3178,1.2786,1.2756,1.2119,1.1745,1.1745,1.1106,1.0449,0.9815,0.8551,0.0,0.0,0.0,0.0,0.0,0.0,0.0,0.0,0.0,0.0,0.0,0.0,0.0,0.0,0.0,0.0,0.0,0.0,0.0,0.0,0.0,0.0,0.0,0.0,0.0,0.0,0.0,0.0,0.9953,1.0973,0.0,1.0573,1.1171,1.1663,1.1811,1.2469,1.3028,1.3336,1.4285,1.4941,1.5266,1.5704,1.5932,1.5932,1.612,1.6199,1.6233,1.64,1.6595,1.6774,1.6595,1.6595,1.6774,1.6573,1.6616,1.6744,1.6244,1.6394,1.686,1.6034,1.6132,1.6713,1.6555,1.7142,1.7997,1.7997,1.7997,1.7953,1.7773,1.74,1.7026,1.7026,1.6862,1.6817,1.7475,1.7819,1.8132,1.8807,1.8986,1.8986,1.8986,1.8986,1.8867,1.8448,1.8326,1.8012,1.6876,1.6473,1.5965,1.4901,1.4734,1.4584,1.4152,1.4092,1.4421,1.5334,1.5439,1.5439,1.5439,1.5439,1.517,1.4498,1.3825,1.3268,1.2831,1.2175,1.1805,1.1805,1.158,1.0967,0.992,0.9435,0.8423,0.0,0.0,0.0,0.0,0.0,0.0,0.0,0.0,0.0,0.0,0.0,0.0,0.0,0.0,0.0,0.0,0.0,0.0,0.0,0.0,0.0,0.0,0.0,0.0,0.0,1.0781,1.1935,1.1282,1.2543,1.311,1.2193,1.2804,1.3301,1.3438,1.4196,1.4639,1.4639,1.55,1.5969,1.5969,1.63,1.65,1.65,1.65,1.65,1.65,1.65,1.65,1.65,1.65,1.65,1.6522,1.6701,1.6774,1.6774,1.6972,1.7417,1.7866,1.6902,1.7051,1.7812,1.7654,1.8194,1.9031,1.9031,1.9031,1.8957,1.8506,1.8371,1.8371,1.8371,1.8371,1.8478,1.8912,1.9031,1.9136,1.9588,1.9708,1.9708,1.9708,1.9708,1.9588,1.9136,1.9031,1.8912,1.8446,1.8012,1.7429,1.6593,1.6443,1.6293,1.5845,1.5785,1.5934,1.6368,1.6234,1.6099,1.6099,1.5919,1.5619,1.517,1.4318,1.3615,1.3178,1.2299,1.1805,1.1805,1.158,1.0967,0.992,0.9674,0.891,0.7578,0.0,0.0,0.0,0.0,0.0,0.0,0.0,0.0,0.0,0.0,0.0,0.0,0.0,0.0,0.0,0.0,0.0,0.0,0.0,0.0,0.0,0.0,0.0,1.0121,1.2321,1.3735,1.2628,1.4736,1.5712,1.4295,1.4639,1.4947,1.4947,1.5437,1.5718,1.5718,1.6233,1.65,1.65,1.65,1.65,1.65,1.65,1.65,1.65,1.65,1.65,1.65,1.65,1.65,1.6543,1.7055,1.7271,1.7333,1.7847,1.8086,1.8027,1.7524,1.7646,1.8204,1.8708,1.9244,1.9708,1.9708,1.9708,1.9708,1.9708,1.9708,1.9708,1.9708,1.9708,1.9708,1.9708,1.9708,1.9708,1.9708,1.9708,1.9708,1.9708,1.9708,1.9708,1.9708,1.9708,1.9708,1.9708,1.8657,1.7773,1.7773,1.7758,1.7728,1.7728,1.7697,0.0,1.7713,1.713,1.6711,1.6696,1.6189,1.5829,1.5799,1.4588,1.3812,1.3797,1.2568,1.1835,1.1835,1.1196,1.0553,0.9935,0.9272,0.892,0.8905,0.0,0.0,0.0,0.0,0.0,0.0,0.0,0.0,0.0,0.0,0.0,0.0,0.0,0.0,0.0,0.0,0.0,0.0,0.0,0.0,0.0,1.2357,1.3193,1.2855,1.4057,1.4889,1.4672,1.5369,1.571,1.5293,1.5743,1.607,1.607,1.6208,1.6274,1.6274,1.6412,1.65,1.65,1.65,1.65,1.65,1.65,1.65,1.65,1.65,1.65,1.65,1.65,1.65,1.6522,1.6659,1.671,1.6752,1.7312,1.7524,1.7544,1.7787,1.8224,1.8688,1.8855,1.9244,1.9708,1.9708,1.9708,1.9708,1.9708,1.9708,1.9708,1.9708,1.9708,1.9708,1.9708,1.9708,1.9708,1.9708,1.9708,1.9708,1.9708,1.9708,1.9708,1.9708,1.9708,1.9708,1.9708,1.9408,1.9151,1.9151,1.8747,1.8433,1.8433,1.8012,1.7713,1.7713,1.7533,1.7234,1.6741,1.6547,1.6278,1.5844,1.502,1.4318,1.3827,1.3002,1.2519,1.2519,1.188,1.1211,1.0568,0.9935,0.9383,0.0,0.0,0.0,0.0,0.0,0.0,0.0,0.0,0.0,0.0,0.0,0.0,0.0,0.0,0.0,0.0,0.0,0.0,0.0,0.0,0.0,0.0,1.4191,1.5012,1.5263,1.5785,1.5996,1.564,1.6044,1.6289,1.6065,1.6333,1.65,1.65,1.65,1.65,1.65,1.65,1.65,1.65,1.676,1.6886,1.6886,1.7112,1.7202,1.7202,1.7202,1.7202,1.7202,1.7202,1.7099,1.6886,1.71,1.7068,1.6879,1.7415,1.7646,1.7666,0.0,0.0,0.0,0.0,1.9424,1.9708,1.9708,1.9708,1.9708,1.9708,1.9708,1.9708,1.9708,1.9708,1.9708,1.9708,1.9708,1.9708,1.9708,1.9708,1.9708,1.9708,1.9708,1.9708,1.9708,1.9708,1.9708,1.9708,1.9708,0.0,1.9708,1.9393,1.9121,1.9121,1.8792,1.8553,1.8553,1.8281,1.7968,1.7594,1.704,1.6562,1.6219,1.5321,0.0,0.0,0.0,1.3089,1.2816,1.243,0.0,0.0,0.0,0.0,0.0,1.17,0.0,0.0,1.0593,1.0633,0.0,0.0,0.0,0.0,0.0,0.0,0.0,0.0,0.0,0.0,0.0,0.0,0.0,0.0,0.0,0.0,1.6196,1.7008,1.7184,1.7324,1.7019,1.5993,1.6674,1.7013,1.6552,1.65,1.6543,1.6595,1.6543,1.6568,1.6683,1.6631,0.0,0.0,0.0,1.7498,1.7498,1.7953,1.8204,1.8204,1.8204,1.8204,1.8204,1.8204,1.794,1.7521,1.7998,1.7904,1.7447,1.797,1.8192,1.8189,1.8179,1.8516,1.9043,1.953,1.9708,1.9708,1.9708,0.0,0.0,1.9708,1.9708,1.9708,1.9708,1.9708,1.9708,1.9708,1.9708,1.9708,1.9708,1.9708,1.9708,1.9708,1.9708,1.9708,1.9708,1.9708,1.9708,1.9708,1.9708,1.9708,1.9708,1.9708,1.9708,1.9708,1.9708,1.9708,1.9708,1.9166,1.8792,1.8717,1.7654,0.0,1.6816,1.571,1.499,1.4916,1.4288,1.3615,1.2939,1.2996,1.2996,1.2909,1.2909,1.3208,1.3797,1.3947,1.4034,1.4004,1.2732,1.2505,0.0,0.0,0.0,0.0,0.0,0.0,0.0,0.0,0.0,0.0,0.0,0.0,0.0,0.0,0.0,1.6334,1.6916,1.7385,1.7843,1.7926,1.771,1.7072,1.6794,1.6616,1.6522,1.65,1.668,1.7118,1.6731,1.6905,1.7809,1.7466,1.7413,1.7865,1.799,1.8053,1.8053,1.8154,1.8204,1.8204,1.8204,0.0,1.8204,1.8204,1.8141,1.8041,1.8158,1.8128,1.8073,1.8603,1.8782,1.8762,1.8752,1.9062,1.9566,1.9657,1.9708,1.9708,1.9708,1.9708,1.9708,1.9708,1.9708,1.9708,1.9708,1.9708,0.0,1.9708,1.9708,1.9708,1.9708,1.9708,1.9708,1.9708,1.9708,1.9708,1.9708,1.9708,1.9708,1.9708,1.9708,1.9708,1.9708,1.9708,1.9708,1.9708,1.9708,1.9708,1.9708,1.9588,1.9286,1.8762,1.8478,1.8087,1.7548,1.6786,1.6129,1.5634,1.4975,1.4303,1.3618,1.4137,1.4154,1.3615,1.3615,1.3675,1.3797,1.4886,1.541,1.5394,1.4586,1.4571,0.0,0.0,0.0,0.0,0.0,0.0,0.0,0.0,0.0,0.0,0.0,1.4119,1.5169,0.0,1.6325,1.7345,1.7608,1.7799,1.8051,1.8106,1.7907,1.7374,1.7055,1.6795,1.6543,1.65,1.6742,1.7325,1.739,1.7635,1.8174,1.8232,1.8236,1.8191,1.8456,1.8594,1.8594,1.8882,1.9007,1.9007,1.9007,1.9007,1.9007,1.9007,1.8832,1.8594,1.8594,1.8634,1.8724,1.9591,1.9935,1.9927,2.0186,1.9887,1.9299,1.9299,1.946,1.9708,1.9708,1.9708,1.9708,1.9708,1.9708,1.9708,1.9708,1.9708,1.9708,1.9708,1.9708,1.9708,1.9708,1.9708,1.9708,1.9708,1.9708,1.9708,1.9708,1.9708,1.9708,1.9708,1.9708,1.9708,1.9708,1.9708,1.9708,1.9708,1.9708,1.9708,1.9708,1.9708,1.9573,1.9226,1.8897,1.8568,1.8222,1.7578,1.7071,1.6772,1.6443,1.6099,1.577,1.6069,1.6084,1.577,1.5755,1.5755,1.5755,1.6428,1.6742,1.6742,1.6742,1.6742,0.0,0.0,0.0,0.0,0.0,0.0,0.0,0.0,1.3747,1.5081,1.547,1.5906,1.7038,1.7361,1.7609,1.8154,1.8263,1.8263,1.8263,1.8185,1.7987,1.7646,1.7422,1.7126,1.6689,1.6769,1.7088,1.7692,1.8179,1.8516,1.8695,1.9064,1.9094,1.8721,1.9116,1.9344,1.9344,1.9648,1.9798,1.9798,1.9798,1.9875,2.0003,2.0003,1.9813,1.9516,1.9394,1.944,1.9655,2.0384,2.0777,2.0932,2.1239,2.0526,1.9306,1.9401,1.9715,2.0097,2.0097,2.0097,2.0067,1.9947,1.9902,1.9872,1.9753,1.9708,1.9708,1.9708,1.9708,1.9708,1.9708,1.9708,1.9708,1.9708,1.9708,1.9708,1.9708,1.9708,1.9708,1.9708,1.9708,1.9708,1.9708,1.9708,1.9708,1.9708,1.9708,1.9708,1.9708,1.9708,1.9708,1.9708,1.9211,1.8837,1.8717,1.8192,1.7848,1.7697,1.7713,1.7713,1.7713,1.7713,1.7713,1.7713,1.7713,1.7713,1.7713,1.7833,1.7893,1.7908,1.8565,1.8553,1.0693,1.1181,1.1969,1.3169,1.3121,1.3538,0.0,0.0,1.5829,1.7116,1.7848,1.8311,1.847,1.8991,1.9261,1.8864,1.8817,1.8817,1.8817,1.84,1.8263,1.8669,1.7887,1.7271,1.7209,1.7753,1.8326,1.8879,1.8962,1.9449,2.0443,2.0114,2.0107,2.0499,2.0578,2.0604,2.0604,2.008,1.9798,1.9798,1.9798,2.0105,2.0696,2.0696,2.0964,2.1377,2.0837,2.0906,2.1338,2.0325,2.0305,2.0834,2.0392,2.0374,2.0729,2.1203,2.1416,2.147,2.147,2.147,2.138,2.0782,2.0583,2.0483,1.9887,1.9708,1.9708,1.9708,1.9708,1.9708,1.9708,1.9708,1.9708,1.9708,1.9708,1.9708,1.9708,1.9708,1.9708,1.9708,1.9708,1.9708,1.9708,1.9708,1.9708,1.9708,1.9708,1.9708,1.9708,1.9708,1.9708,1.9708,1.9633,1.9346,1.8747,1.8625,1.8326,1.7743,1.7713,1.7713,1.7713,1.7713,1.7713,1.7713,1.7713,1.7713,1.7713,1.8296,1.8597,1.8612,1.9271,1.9226,1.3388,1.4171,1.4709,0.0,1.5604,1.6488,1.7474,1.7595,1.7745,1.8672,1.9091,1.92,1.8866,1.8795,1.8927,0.0,1.8941,1.8624,1.8973,1.9033,1.8872,1.8481,1.8046,1.7646,1.7333,1.8192,1.8847,1.9071,2.0094,2.0896,2.131,2.1481,2.1325,2.082,2.1137,2.1161,2.0795,2.0868,2.0915,2.089,2.0559,2.0708,2.1318,2.0955,2.1137,2.1687,2.1424,2.17,2.2276,2.2086,2.2198,2.2446,2.2187,2.225,2.2368,2.1548,2.144,2.1695,2.1695,2.1695,2.165,2.138,2.1021,2.0643,2.0378,2.0004,1.9708,1.9708,1.9708,1.9708,1.9708,1.9708,1.9708,1.9708,1.9708,1.9708,1.9708,1.9708,1.9708,1.9708,1.9708,1.9708,1.9708,1.9708,1.9708,1.9708,1.9708,1.9708,1.9708,1.9708,1.9708,1.9708,1.9708,1.9588,1.9318,1.9271,1.9151,1.8882,1.8867,1.8867,1.8867,1.8867,1.8867,1.8867,1.8867,1.8867,1.8867,1.9151,1.9271,1.9286,1.9573,1.9558,1.5142,0.0,0.0,1.6338,1.7409,1.8441,1.8295,1.8627,1.9106,1.9603,1.9584,1.9406,1.9169,1.8669,1.861,1.9478,1.921,1.8996,1.9266,1.9445,1.9359,1.8866,1.838,1.8007,1.7767,1.8728,1.9445,1.9581,2.1158,2.2071,2.1979,2.2452,2.2267,2.1345,2.1748,2.1855,2.1613,2.1635,2.1765,2.1939,2.1509,2.1634,2.2221,2.1973,2.1985,2.2225,2.2039,2.2346,2.2942,2.3039,2.3282,2.3573,2.3421,2.3465,2.3432,2.2121,2.1881,2.2218,2.2218,2.2218,2.2203,2.2024,2.165,2.1186,2.0808,2.0363,1.9947,1.9753,1.9708,1.9708,1.9708,1.9708,1.9708,1.9708,1.9708,1.9708,1.9708,1.9708,1.9708,1.9708,1.9708,1.9708,1.9708,1.9708,1.9708,1.9708,1.9708,1.9708,1.9708,1.9708,1.9708,1.9708,1.9708,1.9708,1.9708,1.9708,1.9708,1.9708,1.9708,1.9708,1.9708,1.9708,1.9708,1.9708,1.9708,1.9708,1.9708,1.9708,1.9708,1.9708,1.9708,1.9708,0.0,0.0,1.6279,1.7376,1.7778,1.8223,1.9391,1.9663,1.9678,1.9708,1.9281,1.908,1.9584,1.9244,1.8902,1.8927,1.9877,2.044,1.9941,1.944,1.9488,2.0491,1.9127,1.8302,1.8798,1.9584,2.0295,2.0801,2.1974,2.268,2.2672,2.2694,2.2672,2.2626,2.2649,2.2974,2.3601,2.2274,2.1943,2.2578,2.2551,2.2896,2.3571,2.4203,2.4134,2.3508,2.292,2.3009,2.3486,2.2271,2.2478,2.3551,2.2957,2.3076,2.3595,2.3528,2.3528,2.3535,2.3535,2.3535,2.3445,2.2868,2.2658,2.2403,2.1077,2.0688,2.0524,1.9887,1.9708,1.9708,1.9708,1.9708,1.9708,1.9708,1.9708,1.9708,1.9708,1.9708,1.9708,1.9708,1.9708,1.9708,1.9708,1.9708,1.9708,1.9708,1.9708,1.9708,1.9708,1.9708,1.9708,1.9708,1.9708,1.9708,1.9708,1.9708,1.9708,1.9708,1.9708,1.9708,1.9708,1.9708,1.9708,1.9708,1.9708,1.9708,1.9708,1.9708,1.9708,1.9708,1.9708,1.9708,1.6231,0.0,1.745,1.8195,1.873,1.9194,1.9612,1.9708,1.9708,1.9708,1.9566,1.9479,1.9672,1.8968,1.8894,2.05,2.0132,2.0004,2.1069,2.1005,2.0647,2.0205,2.0045,1.9981,2.0076,2.0348,0.0,2.0876,2.2014,2.2868,2.3282,2.3312,2.3326,2.336,2.3758,2.4089,2.4361,2.4288,2.4365,2.4581,2.4581,2.4507,2.4333,2.4573,2.4749,2.4866,2.3818,2.3712,2.4209,2.3304,2.3216,2.3573,2.3377,2.3421,2.3595,2.3595,2.3595,2.3595,2.3595,2.3595,2.3565,2.3355,2.3032,2.2613,2.2164,2.171,2.1321,2.1081,2.0707,2.0363,2.0363,2.0034,1.9708,1.9708,1.9708,1.9708,1.9708,1.9708,1.9708,1.9708,1.9708,1.9708,1.9708,1.9708,1.9708,1.9708,1.9708,1.9708,1.9708,1.9708,1.9708,1.9708,1.9708,1.9708,1.9708,1.9708,1.9708,1.9708,1.9708,1.9708,1.9708,1.9708,1.9708,1.9708,1.9708,1.9708,1.9708,1.9708,1.9708,1.9708,1.9708,1.9708,1.718,1.783,1.813,1.9162,1.9414,1.9534,1.9952,1.9872,1.9639,1.9442,1.9214,1.9066,1.9066,1.8301,1.8403,2.0626,2.0242,2.0273,2.1945,2.1946,2.1541,2.0971,2.0907,2.0945,0.0,0.0,0.0,2.1521,2.2456,2.3295,2.3924,2.3969,2.4089,2.4379,2.4764,2.5084,2.5385,2.5506,2.5687,2.5923,2.5923,2.5717,2.5385,2.5385,2.5461,2.5561,2.4726,2.4454,2.4575,2.4126,2.3819,2.3595,2.3595,2.3595,2.3595,2.3595,2.3595,2.3595,2.3595,2.3595,2.3595,2.3595,2.3325,2.2987,2.2763,2.2403,2.1994,2.1754,2.1395,2.1006,2.0763,2.0378,1.9989,1.9768,1.9708,1.9708,1.9708,1.9708,1.9708,1.9708,1.9708,1.9708,1.9708,1.9708,1.9708,1.9708,1.9708,1.9708,1.9708,1.9708,1.9708,1.9708,1.9708,1.9708,1.9708,1.9708,1.9708,1.9708,1.9708,1.9708,1.9708,1.9708,1.9708,1.9708,1.9708,1.9708,1.9708,1.9708,1.9708,1.9708,1.9708,1.9708,1.7641,1.7946,1.8382,2.019,1.9771,1.9204,2.0353,2.0128,1.9497,1.8962,1.8345,1.7881,1.7838,0.0,1.7505,1.9391,2.026,2.1188,2.2547,2.233,2.2205,0.0,0.0,0.0,0.0,0.0,0.0,2.2808,2.331,2.3924,2.4619,2.4649,2.4963,2.563,2.5659,2.5974,2.6632,2.5969,2.5943,2.6563,2.6563,2.6583,2.6632,2.6632,2.6303,2.5704,2.5674,2.5277,2.4709,2.4664,2.4261,2.3655,2.3655,2.3625,2.3595,2.3595,2.3595,2.3595,2.3595,2.3595,2.3595,2.3595,2.3595,2.349,2.2927,2.2748,2.2613,2.1979,2.1769,2.1605,2.0976,2.0778,2.0583,1.9962,1.9813,1.9798,1.9768,1.9753,1.9753,1.9708,1.9708,1.9708,1.9708,1.9708,1.9708,1.9708,1.9708,1.9708,1.9708,1.9708,1.9708,1.9708,1.9708,1.9708,1.9708,1.9708,1.9708,1.9708,1.9708,1.9708,1.9708,1.9708,1.9708,1.9708,1.9708,1.9708,1.9708,1.9708,1.9708,1.9708,1.9708,1.9708,1.7996,1.8578,1.8859,1.9737,1.9421,1.8974,1.9284,1.9223,1.8912,1.8288,1.7926,1.7591,1.7102,1.6938,0.0,1.9387,2.0348,0.0,2.3126,2.3696,0.0,2.3409,0.0,2.4268,2.3902,2.4328,0.0,0.0,2.4073,2.4118,2.5277,2.5337,2.5659,2.6318,2.6348,2.6686,2.7345,2.7155,2.7153,2.7331,2.7331,2.7318,2.7345,2.7345,2.7255,2.7061,2.6557,2.6243,2.6048,2.5555,2.4948,2.435,2.435,2.4036,2.3595,2.3595,2.3595,2.3595,2.3595,2.3595,2.3595,2.3595,2.3595,2.3565,2.3415,2.337,2.3325,2.3161,2.2793,2.2403,2.2239,2.1814,2.1395,2.1216,2.1186,2.1051,2.0557,2.0453,2.0303,1.9813,1.9708,1.9708,1.9708,1.9708,1.9708,1.9708,1.9708,1.9708,1.9708,1.9708,1.9708,1.9708,1.9708,1.9708,1.9708,1.9708,1.9708,1.9708,1.9708,1.9708,1.9708,1.9708,1.9708,1.9708,1.9708,1.9708,1.9708,1.9708,1.9708,1.9708,1.9708,1.9708,1.88,1.9458,1.99,2.0791,2.0124,1.9332,1.9623,1.9011,1.813,1.7251,1.6739,0.0,1.5639,1.6017,0.0,0.0,0.0,0.0,2.299,2.4007,2.4455,0.0,2.4948,0.0,2.5068,2.5367,2.5734,0.0,2.5076,2.4941,2.5974,2.6033,2.6348,2.7031,2.7046,2.7225,2.76,2.76,2.76,2.76,2.76,2.76,2.76,2.76,2.76,2.757,2.721,2.6881,2.6557,2.6198,2.5636,2.5038,2.5038,2.4619,2.4044,2.4044,2.3864,2.3595,2.3595,2.3595,2.3595,2.3595,2.3595,2.3595,2.3595,2.3595,2.3595,2.3595,2.3355,2.3032,2.2763,2.2418,2.2074,2.1769,2.1695,2.1605,2.1231,2.1141,2.1036,2.0647,2.0572,2.0468,2.0183,2.0139,2.0034,1.9753,1.9708,1.9708,1.9708,1.9708,1.9708,1.9708,1.9708,1.9708,1.9708,1.9708,1.9708,1.9708,1.9708,1.9708,1.9708,1.9708,1.9708,1.9708,1.9708,1.9708,1.9708,1.9708,1.9708,1.9708,1.9708,1.9708,1.9728,2.0417,2.1101,2.2274,2.1135,1.9864,2.0347,1.8975,1.7249,1.5984,0.0,1.4467,1.3824,1.4787,1.6084,1.737,0.0,2.1066,2.2508,2.3804,2.4634,2.4724,2.5397,2.5869,2.5869,2.5869,2.6108,2.6701,2.6198,2.6123,2.6692,2.6722,2.7001,2.7585,2.76,2.76,2.76,2.76,2.76,2.76,2.76,2.76,2.76,2.76,2.76,2.76,2.76,2.727,2.6722,2.6722,2.6333,2.5734,2.5734,2.5262,2.4605,2.4605,2.4171,2.3595,2.3595,2.3595,2.3595,2.3595,2.3595,2.3595,2.3595,2.3595,2.3595,2.3595,2.3595,2.3475,2.2957,2.2823,2.2673,2.2084,2.1949,2.1919,2.1844,2.1754,2.1695,2.1695,2.1695,2.1515,2.0927,2.0763,2.0513,1.9914,1.9768,1.9708,1.9708,1.9708,1.9708,1.9708,1.9708,1.9708,1.9708,1.9708,1.9708,1.9708,1.9708,1.9708,1.9708,1.9708,1.9708,1.9708,1.9708,1.9708,1.9708,1.9708,1.9708,1.9708,1.9708,1.9753,2.0395,2.1024,2.1571,2.1831,2.0869,1.9739,1.9315,1.8082,0.0,0.0,1.4146,1.362,1.2393,1.3699,1.5381,1.6667,0.0,0.0,0.0,0.0,2.4814,0.0,0.0,0.0,0.0,2.7255,0.0,0.0,2.733,2.73,2.742,2.742,2.748,2.76,2.76,2.76,2.76,2.76,2.76,2.76,2.76,2.76,2.76,2.76,2.76,2.76,2.76,2.7525,2.742,2.742,2.7046,2.6422,2.6422,2.5689,2.4605,2.4605,2.4171,2.3595,2.3595,2.3595,2.3595,2.3595,2.3595,2.3595,2.3595,2.3595,2.3595,2.3595,2.3595,2.358,2.3475,2.343,2.3415,2.3295,2.3266,2.3131,2.2643,2.2104,2.1695,2.1695,2.1695,2.1665,2.1545,2.1081,2.0658,2.0539,2.0049,1.9708,1.9708,1.9708,1.9708,1.9708,1.9708,1.9708,1.9708,1.9708,1.9708,1.9708,1.9708,1.9708,1.9708,1.9708,1.9708,1.9708,1.9708,1.9708,1.9708,1.9708,1.9708,1.9708,1.9708,1.9989,2.1079,2.1712,2.2292,2.2622,2.1485,2.0048,1.9022,0.0,0.0,0.0,1.2538,1.2048,1.1405,0.0,0.0,0.0,0.0,0.0,0.0,0.0,0.0,0.0,0.0,0.0,0.0,2.76,2.76,2.76,2.76,2.76,2.76,2.76,2.76,2.76,2.76,2.76,2.76,2.76,2.76,2.76,2.76,2.76,2.76,2.76,2.76,2.76,2.76,2.76,2.76,2.76,2.7405,2.7121,2.7121,2.6497,2.5644,2.5644,2.5226,2.4597,2.4231,2.4111,2.4051,2.3714,2.3595,2.3595,2.3595,2.3595,2.3595,2.3595,2.3595,2.3595,2.3595,2.3595,2.3595,2.3595,2.3595,2.352,2.3242,2.2927,2.2682,2.2682,2.2682,2.2577,2.2283,2.1934,2.162,2.1276,2.0946,2.0741,2.0741,2.0741,2.0468,1.9768,1.9708,1.9708,1.9708,1.9708,1.9708,1.9708,1.9708,1.9708,1.9708,1.9708,1.9708,1.9708,1.9708,1.9708,1.9708,2.0049,2.0228,2.0228,2.0572,2.0902,2.158,2.2287,2.298,2.3323,2.2155,2.0482,1.8867,1.6682,0.0,0.0,1.1286,1.0942,1.0658,0.0,1.3855,0.0,0.0,0.0,0.0,0.0,0.0,0.0,0.0,0.0,0.0,2.76,0.0,2.76,2.76,2.76,2.76,2.76,2.76,2.76,2.76,2.76,2.76,2.76,2.76,2.76,2.76,2.76,2.76,2.76,2.76,2.76,2.76,2.76,2.76,2.76,2.76,2.76,2.76,2.7195,2.6587,2.6587,2.6183,2.5516,2.4993,2.4724,2.4515,2.3999,2.3729,2.3595,2.3595,2.3595,2.3595,2.3595,2.3595,2.3595,2.3595,2.3595,2.3595,2.3595,2.3595,2.3595,2.3595,2.3595,2.3595,2.3595,2.3595,2.3445,2.2972,2.2793,2.2523,2.1999,2.1784,2.1695,2.1695,2.1695,2.1291,2.0247,2.0007,1.9899,1.9899,1.9783,1.9708,1.9708,1.9708,1.9708,1.9708,1.9708,1.9768,1.9899,1.9899,1.9974,2.0142,2.0662,2.0897,2.0932,2.1455,2.1769,2.1695,2.2581,2.3396,2.2906,2.2198,2.0949,1.8369,0.0,0.0,1.1555,1.1331,1.1356,1.0204,1.1576,1.3313,0.0,0.0,1.7488,0.0,0.0,0.0,0.0,0.0,0.0,0.0,2.76,2.76,2.76,2.76,2.76,2.76,2.76,2.76,2.76,2.76,2.76,2.76,2.76,2.76,2.76,2.76,2.76,2.76,2.76,2.76,2.76,2.76,2.76,2.76,2.76,2.76,2.76,2.76,2.7195,2.6587,2.6587,2.6183,2.56,2.554,2.5113,2.459,2.453,2.4096,2.3595,2.3595,2.3595,2.3595,2.3595,2.3595,2.3595,2.3595,2.3595,2.3595,2.3595,2.3595,2.3595,2.3595,2.3595,2.3595,2.3595,2.3595,2.358,2.352,2.3062,2.2673,2.2613,2.2104,2.1695,2.1695,2.1695,2.165,2.1515,2.0976,2.0598,2.0598,2.0049,1.9708,1.9708,1.9708,1.9708,1.9708,1.9708,1.9989,2.0598,2.0598,2.0917,2.1515,2.1575,2.1605,2.1605,2.1665,2.2044,2.147,2.2353,2.3002,2.2763,2.2209,2.0902,1.7848,0.0,1.4361,1.1405,1.1007,1.1047,1.0538,1.1401,1.2639,1.3974,1.4619,1.5785,1.8147,0.0,0.0,0.0,0.0,0.0,0.0,0.0,2.76,2.76,2.76,2.76,2.76,2.76,2.76,2.76,2.76,2.76,2.76,2.76,2.76,2.76,2.76,2.76,2.76,2.76,2.76,2.76,2.76,2.76,2.76,2.76,2.76,2.76,2.76,2.7435,2.721,2.721,2.7046,2.6761,2.6333,2.6033,2.5674,2.4859,2.4425,2.4126,2.3729,2.3595,2.3595,2.3595,2.3595,2.3595,2.3595,2.3595,2.3595,2.3595,2.3595,2.3595,2.3595,2.3595,2.3595,2.3595,2.3595,2.3595,2.3595,2.3385,2.3236,2.3236,2.3011,2.2832,2.2832,2.2832,2.2832,2.2832,2.1919,2.1306,2.1306,2.1051,2.0887,2.0887,2.0887,2.0887,2.0887,2.0887,2.1021,2.1306,2.1306,2.144,2.1695,2.2119,2.2298,2.2313,2.2667,2.2981,2.0797,2.1744,2.2358,2.2164,2.159,2.0288,0.0,1.5619,1.4034,1.135,1.0972,1.1047,1.0842,1.1346,1.2239,1.3573,1.3974,1.4947,1.737,1.8446,0.0,0.0,0.0,2.4822,0.0,2.736,2.76,2.76,2.76,2.76,2.76,2.76,2.76,2.76,2.76,2.76,2.76,2.76,2.76,2.76,2.76,2.76,2.76,2.76,2.76,2.76,2.76,2.76,2.76,2.76,2.76,2.76,2.76,2.76,2.76,2.76,2.76,2.7525,2.7061,2.6776,2.6437,2.551,2.5053,2.4814,2.4343,2.3909,2.3595,2.3595,2.3595,2.3595,2.3595,2.3595,2.3638,2.3794,2.3837,2.3879,2.4032,2.4074,2.4074,2.4074,2.3943,2.39,2.4053,2.3927,2.39,2.4053,2.4074,2.4012,2.3858,2.3837,2.3773,2.3616,2.2802,2.2188,2.1994,2.1799,2.1695,2.1695,2.1695,2.1695,2.1695,2.1695,2.1784,2.1999,2.1994,2.2069,2.2263,2.2748,2.2972,2.2987,2.3385,2.3595,1.9543,2.0677,2.1545,2.0882,2.0213,1.9034,0.0,1.529,1.4034,1.135,1.1331,1.1595,1.0917,1.1346,1.2239,1.3573,1.4363,1.547,1.7429,1.8852,0.0,0.0,0.0,2.3496,2.5435,2.6811,2.76,2.76,2.76,2.76,2.76,2.76,2.76,2.76,2.76,2.76,2.76,2.76,2.76,2.76,2.76,2.76,2.76,2.76,2.76,2.76,2.76,2.76,2.76,2.76,2.76,2.76,2.76,2.76,2.76,2.76,2.76,2.76,2.7585,2.7165,2.6587,2.6572,2.6123,2.56,2.5585,2.4657,2.3595,2.3595,2.3595,2.3595,2.3595,2.3595,2.373,2.4266,2.4389,2.4552,2.5067,2.5182,2.5182,2.5182,2.4736,2.4572,2.5105,2.4736,2.4556,2.5089,2.5182,2.4989,2.4471,2.4389,2.4199,2.3659,2.3595,2.3325,2.2748,2.2069,2.1695,2.1695,2.1695,2.1695,2.1695,2.1695,2.1994,2.2673,2.2688,2.2987,2.358,2.3595,2.3595,2.3595,2.3595,2.3595,1.7355,1.8296,1.8805,1.813,1.8162,1.7639,1.5037,1.4618,1.4169,1.1929,1.1655,1.1745,1.151,1.1655,1.2388,1.4184,1.4648,1.5485,0.0,0.0,0.0,0.0,2.456,2.6282,0.0,0.0,2.76,2.76,2.76,2.76,2.76,2.76,2.76,2.76,2.76,2.76,2.76,2.76,2.76,2.76,2.76,2.76,2.76,2.76,2.76,2.76,2.76,2.76,2.76,2.76,2.76,2.76,2.76,2.76,2.76,2.76,2.76,2.76,2.76,2.7465,2.721,2.6761,2.6452,2.6198,2.5749,2.5315,2.4881,2.441,2.4276,2.4171,2.3729,2.3879,2.4199,2.4348,2.4677,2.4992,2.5163,2.491,2.4637,2.4637,2.422,2.3921,2.4074,2.4266,2.4471,2.4632,2.4969,2.5008,2.4471,2.441,2.4184,2.3659,2.3595,2.3676,2.3846,2.3667,2.3564,2.3564,2.3564,2.3564,2.3564,2.319,2.3275,2.3851,2.3507,2.34,2.3595,2.397,2.4158,2.4158,2.4158,2.3948,0.0,1.6278,1.6876,1.6458,1.6488,1.6099,1.4231,1.3929,1.3628,1.2104,1.1805,1.1805,1.1805,1.1805,1.2373,1.4139,1.4633,0.0,0.0,0.0,0.0,0.0,0.0,0.0,0.0,2.73,2.76,2.76,2.76,2.76,2.76,2.76,2.76,2.76,2.76,2.76,2.76,2.76,2.76,2.76,2.76,2.76,2.76,2.76,2.76,2.76,2.76,2.76,0.0,2.76,2.76,2.76,2.76,2.76,2.76,2.76,2.76,2.76,2.76,2.76,2.7525,2.7121,2.7118,2.7237,2.6812,2.6178,2.5556,2.5372,2.5153,2.4882,2.444,2.4541,2.4756,2.4715,2.5125,2.5542,2.5728,2.5508,2.5265,2.5265,2.4855,2.4556,2.474,2.4894,2.5051,2.5243,2.5545,2.558,2.5067,2.4992,2.4796,2.4266,2.4204,2.443,2.4969,2.4617,2.4491,2.4692,2.4511,2.441,2.441,2.4074,2.3948,2.4095,2.397,2.3885,2.3885,2.445,2.4697,2.4697,2.4697,2.4672,0.0,1.4436,1.5439,1.5394,1.4946,1.4348,1.3722,1.3136,0.0,1.1925,1.1805,1.1835,1.1925,1.1895,1.2358,1.3842,1.4558,0.0,0.0,0.0,0.0,0.0,2.4956,0.0,2.5749,2.6881,2.76,2.76,2.76,2.76,2.76,2.76,2.76,2.76,2.76,2.76,2.76,2.76,2.76,2.76,2.76,2.76,2.76,2.76,2.76,2.76,2.76,2.76,2.76,2.76,2.76,2.76,2.76,2.76,2.76,2.76,2.76,2.76,2.76,2.76,2.7625,2.7635,2.8042,2.8511,2.8559,2.7301,2.5976,2.6483,2.6191,2.5719,2.5654,2.559,2.5503,2.5364,2.5752,2.6224,2.6624,2.6674,2.6657,2.6657,2.6279,2.6068,2.6522,2.6262,2.6156,2.6573,2.6674,2.6539,2.6067,2.6013,2.5781,2.5259,2.5202,2.5411,2.5943,2.5086,2.4732,2.5221,2.4776,2.4496,2.4496,2.4491,2.4225,2.3773,2.4225,2.4471,2.4496,2.5012,2.5275,2.5339,2.5339,2.5725,0.9887,0.0,1.1854,1.1411,1.1521,1.1704,0.0,1.179,1.1984,0.0,0.0,1.2119,1.3139,1.2909,1.3493,1.6323,0.0,0.0,0.0,0.0,0.0,2.5719,2.6641,2.7136,2.7136,2.742,2.76,2.76,2.76,2.76,2.76,2.76,2.76,2.76,2.76,2.76,2.76,2.76,2.76,2.76,2.76,2.76,2.76,2.76,2.76,2.76,2.76,2.76,2.76,2.76,2.76,2.76,2.76,2.76,2.76,2.76,2.76,2.76,2.76,2.76,2.7675,2.814,2.8367,2.8583,2.9058,2.8867,2.8442,2.8065,2.7509,2.7032,2.6968,2.6914,2.6817,2.67,2.7022,2.7246,2.6793,2.6419,2.6157,2.6157,2.5744,2.5411,2.5542,2.5799,2.6049,2.6156,2.647,2.6539,2.6067,2.6013,2.5781,2.5259,2.5202,2.5411,2.5943,2.5779,2.567,2.5799,2.5689,2.5615,2.5615,2.524,2.5163,2.543,2.5163,2.5221,2.5615,2.5744,2.6094,2.6634,2.6634,2.6838,0.8447,1.0034,1.164,1.1306,1.1715,1.2183,1.2183,0.0,0.0,0.0,0.0,0.0,1.3151,1.3301,0.0,0.0,1.7265,0.0,0.0,0.0,0.0,2.6866,2.7375,2.76,2.76,2.76,2.76,2.76,2.76,2.76,2.76,2.76,2.76,2.76,2.76,2.76,2.76,2.76,2.76,2.76,2.76,2.76,2.76,2.76,2.76,2.76,2.76,2.76,2.76,2.76,2.76,2.76,2.76,2.76,2.76,2.76,2.76,2.76,2.76,2.7785,2.8067,2.8391,2.8873,2.9384,2.9717,3.0016,3.0105,2.9447,2.8836,2.8345,2.8288,2.8212,2.8074,2.7704,2.7988,2.8247,2.7842,2.7563,2.7385,2.7385,2.7133,2.6831,2.6467,2.6619,2.6698,2.6365,2.6539,2.6607,2.6349,2.6314,2.621,2.5926,2.5892,2.6016,2.6297,2.6631,2.6682,2.6331,2.612,2.6013,2.6013,2.5726,2.5689,2.5979,2.5707,2.587,2.6508,2.6708,2.7216,2.7968,2.7968,2.822,0.8259,1.0603,1.2864,1.2471,1.3014,1.366,1.366,0.0,0.0,0.0,0.0,0.0,0.0,0.0,0.0,0.0,0.0,0.0,2.4261,2.4844,2.5585,2.739,2.76,2.76,2.76,2.76,2.76,2.76,2.76,2.76,2.76,2.76,2.76,2.76,2.76,2.76,2.76,2.76,2.76,2.76,2.76,2.76,2.76,2.76,2.76,2.76,2.76,2.76,2.76,2.76,2.76,2.76,2.76,2.76,2.76,2.76,2.76,2.761,2.771,2.8067,2.8535,2.8709,2.9473,3.033,3.0414,3.0797,3.1095,3.058,3.0,2.9544,2.9593,2.9489,2.923,2.8638,2.885,2.9145,2.9027,2.8993,2.8993,2.8993,2.8993,2.879,2.8094,2.7976,2.7722,2.6979,2.686,2.6826,2.6708,2.6793,2.686,2.686,2.6979,2.7046,2.7046,2.7621,2.7723,2.7097,2.6566,2.6268,2.6268,2.6268,2.6336,2.6452,2.6452,2.6766,2.7396,2.7798,2.8399,2.9179,2.9179,2.955,0.9941,1.1973,1.3121,1.0902,1.1666,1.2954,1.2954,0.0,0.0,0.0,0.0,0.0,0.0,0.0,0.0,0.0,0.0,2.346,0.0,0.0,2.6626,2.7495,2.76,2.76,2.76,2.76,2.76,2.76,2.76,2.76,2.76,2.76,2.76,2.76,2.76,2.76,2.76,2.76,2.76,2.76,2.76,2.76,2.76,2.76,2.76,2.76,2.76,2.76,2.76,2.76,2.76,2.76,2.76,2.76,2.76,2.76,2.76,2.766,2.8189,2.8415,2.8677,2.9695,3.0145,3.0393,3.0898,3.1131,3.1171,3.1075,3.0638,3.0276,3.0784,3.0533,3.0088,2.9864,2.9865,2.9753,2.9128,2.8993,2.8993,2.8993,2.8993,2.8959,2.884,2.8824,2.8552,2.7739,2.7621,2.7401,2.6776,2.7249,2.7621,2.7621,2.823,2.8654,2.8654,2.8756,2.8773,2.8654,2.794,2.7516,2.7516,2.7516,2.7837,2.8529,2.8529,2.8596,2.8714,2.8787,2.9194,2.9939,2.9939,3.0328,0.9149,1.1061,1.2648,1.1702,1.3466,1.5456,1.5456,0.0,0.0,0.0,0.0,0.0,0.0,0.0,1.8775,2.1784,0.0,2.4193,2.5899,2.6393,2.6866,2.7525,2.76,2.76,2.76,2.76,2.76,2.76,2.76,2.76,2.76,2.76,2.76,2.76,2.76,2.76,2.76,2.76,2.76,2.76,2.76,2.76,2.76,2.76,2.76,2.76,2.76,2.76,2.76,2.76,2.76,2.76,2.76,2.76,2.76,2.76,2.781,2.814,2.8391,2.8943,2.9563,3.0123,3.0518,3.0838,3.1131,3.119,3.119,3.119,3.0995,3.0858,3.1131,3.0995,3.0774,3.0709,3.0683,3.0598,3.0243,3.0194,3.0194,3.0194,3.0194,3.0076,2.9651,2.9583,2.933,2.8569,2.845,2.8332,2.7994,2.823,2.845,2.845,2.879,2.8993,2.8993,2.9382,2.9414,2.9027,2.8653,2.845,2.845,2.845,2.8619,2.8993,2.8993,2.9196,2.9583,2.9583,2.9973,3.0683,3.0683,3.0869,0.8743,1.0426,1.2288,1.3076,0.0,1.7175,1.7788,0.0,0.0,0.0,0.0,0.0,0.0,1.8491,0.0,2.3565,2.4073,2.4717,2.6581,2.6811,2.7031,2.754,2.76,2.76,2.76,2.76,2.76,2.76,2.76,2.76,2.76,2.76,2.76,2.76,2.76,2.76,2.76,2.76,2.76,2.76,2.76,2.76,2.76,2.76,2.76,2.76,2.76,2.76,2.76,2.76,2.76,2.76,2.76,2.7685,2.7835,2.7968,2.8304,2.8732,2.8873,2.9518,3.0314,3.0456,3.0821,3.119,3.119,3.119,3.119,3.119,3.119,3.119,3.119,3.119,3.119,3.119,3.119,3.119,3.119,3.119,3.119,3.119,3.119,3.1021,3.0446,3.0362,3.0108,2.9382,2.9264,2.9196,2.9027,2.9162,2.9264,2.9264,2.9416,2.9517,2.9517,3.0023,3.0125,2.9551,2.9365,2.9264,2.9264,2.9264,2.9348,2.9517,2.9517,2.9786,3.0362,3.0362,3.0649,3.119,3.119,3.119,1.0479,1.1473,1.2506,1.4221,1.4841,0.0,1.8074,1.7578,0.0,1.9034,0.0,0.0,0.0,2.0572,2.2353,2.5031,2.5465,2.5944,2.733,2.7525,2.754,2.7585,2.76,2.76,2.76,2.76,2.76,2.76,2.76,2.76,2.76,2.76,2.76,2.76,2.76,2.76,2.76,2.76,2.76,2.76,2.76,2.76,2.76,2.76,2.76,2.76,2.76,2.76,2.76,2.76,2.76,2.76,2.76,2.7944,2.8511,2.9065,2.9293,2.9406,2.9995,3.023,3.0393,3.0938,3.1171,3.119,3.119,3.119,3.119,3.119,3.119,3.119,3.119,3.119,3.119,3.119,3.119,3.119,3.119,3.119,3.119,3.119,3.119,3.1173,3.1123,3.1123,3.0869,3.0142,3.0023,2.977,2.9094,2.96,3.0023,3.0023,3.0632,3.1038,3.1038,3.1089,3.1089,3.1038,3.0395,3.0023,3.0023,3.0023,3.0345,3.1021,3.1038,3.1055,3.1123,3.1123,3.114,3.119,3.119,3.119,0.9318,1.0794,1.2549,1.3855,1.4811,0.0,0.0,1.8954,1.9642,2.125,2.1235,0.0,0.0,0.0,2.3047,2.5241,2.5615,2.6063,2.7405,2.76,2.76,2.76,2.76,2.76,2.76,2.76,2.76,2.76,2.76,2.76,2.76,2.76,2.76,2.76,2.76,2.76,2.76,2.76,2.76,2.76,2.76,2.76,2.76,2.76,2.76,2.76,2.76,2.76,2.76,2.76,2.76,2.765,2.8018,2.8535,2.9088,2.9316,2.9629,2.9978,3.023,3.0555,3.0898,3.1131,3.119,3.119,3.119,3.119,3.119,3.119,3.119,3.119,3.119,3.119,3.119,3.119,3.119,3.119,3.119,3.119,3.119,3.119,3.119,3.119,3.119,3.119,3.1106,3.0835,3.0784,3.0683,3.0395,3.0598,3.0784,3.0784,3.1021,3.119,3.119,3.119,3.119,3.119,3.0937,3.0784,3.0784,3.0784,3.092,3.119,3.119,3.119,3.119,3.119,3.119,3.119,3.119,3.119,0.9124,1.0825,1.2895,0.0,0.0,0.0,1.8612,1.9735,2.0946,2.2892,2.2757,0.0,0.0,0.0,0.0,0.0,2.5779,2.6303,2.7435,2.76,2.76,2.76,2.76,2.76,2.76,2.76,2.76,2.76,2.76,2.76,2.76,2.76,2.76,2.76,2.76,2.76,2.76,2.76,2.76,2.76,2.76,2.76,2.76,2.76,2.76,2.76,2.76,2.771,2.787,2.787,2.7993,2.8222,2.8834,2.9316,2.9695,2.9892,3.023,3.058,3.058,3.0858,3.119,3.119,3.119,3.119,3.119,3.119,3.119,3.119,3.119,3.119,3.119,3.119,3.119,3.119,3.119,3.119,3.119,3.119,3.119,3.119,3.119,3.119,3.119,3.119,3.119,3.119,3.119,3.119,3.119,3.119,3.119,3.119,3.119,3.119,3.119,3.119,3.119,3.119,3.119,3.119,3.119,3.119,3.119,3.119,3.119,3.119,3.119,3.119,3.119,3.119,3.119,3.119,1.0535,1.1983,1.3657,0.0,0.0,0.0,1.9405,1.9723,2.0647,2.3932,0.0,2.3834,2.4485,2.4066,0.0,2.539,2.6168,2.6811,2.751,2.76,2.76,2.76,2.76,2.76,2.76,2.76,2.76,2.76,2.76,2.76,2.76,2.76,2.76,2.76,2.76,2.76,2.76,2.76,2.76,2.7625,2.7625,2.7625,2.76,2.7625,2.7625,2.7625,2.761,2.7944,2.8511,2.8511,2.8873,2.9473,3.0081,3.0293,3.0393,3.0975,3.119,3.119,3.119,3.119,3.119,3.119,3.119,3.119,3.119,3.119,3.119,3.119,3.119,3.119,3.119,3.119,3.119,3.119,3.119,3.119,3.119,3.119,3.119,3.119,3.119,3.119,3.119,3.119,3.119,3.119,3.119,3.119,3.119,3.119,3.119,3.119,3.119,3.119,3.119,3.119,3.119,3.119,3.119,3.119,3.119,3.119,3.119,3.119,3.119,3.119,3.119,3.119,3.119,3.119,3.119,3.119,1.0971,1.2777,0.0,1.5448,0.0,0.0,0.0,2.1475,0.0,0.0,2.5196,2.563,2.5337,2.5128,0.0,2.6153,2.6467,2.6811,2.751,2.76,2.76,2.76,2.76,2.76,2.76,2.76,2.76,2.76,2.76,2.76,2.76,2.76,2.76,2.76,2.76,2.76,2.76,2.76,2.781,2.8238,2.8238,2.8018,2.761,2.8042,2.8238,2.8262,2.8685,2.8973,2.9134,2.9134,2.9496,3.0059,3.023,3.0576,3.0938,3.1131,3.119,3.119,3.119,3.119,3.119,3.119,3.119,3.119,3.119,3.119,3.119,3.119,3.119,3.119,3.119,3.119,3.119,3.119,3.119,3.119,3.119,3.119,3.119,3.119,3.119,3.119,3.119,3.119,3.119,3.119,3.119,3.119,3.119,3.119,3.119,3.119,3.119,3.119,3.119,3.119,3.119,3.119,3.119,3.119,3.119,3.119,3.119,3.119,3.119,3.119,3.119,3.119,3.119,3.119,3.119,3.119,1.272,1.4436,0.0,0.0,1.9189,2.1002,2.2188,0.0,0.0,0.0,0.0,2.6467,2.6078,2.6004,0.0,2.6527,2.6811,2.7151,2.754,2.76,2.76,2.76,2.76,2.76,2.76,2.76,2.76,2.76,2.76,2.76,2.76,2.76,2.76,2.76,2.76,2.7725,2.7959,2.7944,2.8247,2.885,2.885,2.8662,2.8328,2.8685,2.885,2.8896,2.9496,2.9761,2.9783,3.0016,3.033,3.0658,3.0658,3.0878,3.119,3.119,3.119,3.119,3.119,3.119,3.119,3.119,3.119,3.119,3.119,3.119,3.119,3.119,3.119,3.119,3.119,3.119,3.119,3.119,3.119,3.119,3.119,3.119,3.119,3.119,3.119,3.119,3.119,3.119,3.119,3.119,3.119,3.119,3.119,3.119,3.119,3.119,3.119,3.119,3.119,3.119,3.119,3.119,3.119,3.119,3.119,3.119,3.119,3.119,3.119,3.119,3.119,3.119,3.119,3.119,3.119,3.119,1.5002,0.0,0.0,0.0,0.0,0.0,2.3191,2.4597,2.554,2.56,0.0,2.6626,2.6686,2.6701,2.6701,2.6701,2.721,2.76,2.76,2.76,2.76,2.76,2.76,2.76,2.76,2.76,2.76,2.76,2.76,2.76,2.76,2.76,2.7625,2.7685,2.7685,2.7968,2.8583,2.8583,2.885,2.9406,2.9451,2.9473,2.9473,2.9473,2.9518,2.9585,3.0145,3.0393,3.0435,3.0975,3.119,3.119,3.119,3.119,3.119,3.119,3.119,3.119,3.119,3.119,3.119,3.119,3.119,3.119,3.119,3.119,3.119,3.119,3.119,3.119,3.119,3.119,3.119,3.119,3.119,3.119,3.119,3.119,3.119,3.119,3.119,3.119,3.119,3.119,3.119,3.119,3.119,3.119,3.119,3.119,3.119,3.119,3.119,3.119,3.119,3.119,3.119,3.119,3.119,3.119,3.119,3.119,3.119,3.119,3.119,3.119,3.119,3.119,3.119,3.119,3.119,3.119,0.0,1.6087,0.0,0.0,0.0,2.2488,2.34,2.4216,2.4963,2.5495,2.6138,2.6752,2.7285,2.739,2.739,2.739,2.751,2.76,2.76,2.76,2.76,2.76,2.76,2.76,2.76,2.76,2.76,2.76,2.76,2.76,2.76,2.76,2.781,2.8286,2.831,2.8606,2.9203,2.9203,2.9271,2.9406,2.987,3.0102,3.0102,3.0102,3.0356,3.0818,3.0938,3.1015,3.1015,3.1151,3.119,3.119,3.119,3.119,3.119,3.119,3.119,3.119,3.119,3.119,3.119,3.119,3.119,3.119,3.119,3.119,3.119,3.119,3.119,3.119,3.119,3.119,3.119,3.119,3.119,3.119,3.119,3.119,3.119,3.119,3.119,3.119,3.119,3.119,3.119,3.119,3.119,3.119,3.119,3.119,3.119,3.119,3.119,3.119,3.119,3.119,3.119,3.119,3.119,3.119,3.119,3.119,3.119,3.119,3.119,3.119,3.119,3.119,3.119,3.119,3.119,3.119,0.0,0.0,0.0,0.0,0.0,0.0,2.3535,2.3879,2.4306,2.4978,2.5659,2.6318,2.7001,2.7121,2.7225,2.754,2.76,2.76,2.76,2.76,2.76,2.76,2.76,2.76,2.76,2.76,2.76,2.76,2.76,2.76,2.76,2.76,2.7735,2.8067,2.8067,2.8367,2.895,2.8966,2.9248,2.9827,3.0145,3.0456,3.072,3.072,3.0898,3.119,3.119,3.119,3.119,3.119,3.119,3.119,3.119,3.119,3.119,3.119,3.119,3.119,3.119,3.119,3.119,3.119,3.119,3.119,3.119,3.119,3.119,3.119,3.1444,3.165,3.1275,3.1715,3.2154,3.1819,3.1464,3.119,3.119,3.119,3.119,3.119,3.119,3.119,3.119,3.119,3.119,3.119,3.119,3.119,3.119,3.119,3.119,3.119,3.119,3.119,3.119,3.119,3.119,3.119,3.119,3.119,3.119,3.119,3.119,3.119,3.119,3.119,3.119,3.119,3.119,3.1207,3.1546,3.1735,0.0,0.0,0.0,0.0,0.0,0.0,2.3601,2.3595,2.3759,2.4306,2.4948,2.5621,2.6303,2.6422,2.6632,2.7315,2.742,2.7465,2.7585,2.76,2.76,2.76,2.76,2.76,2.76,2.76,2.76,2.76,2.76,2.76,2.76,2.76,2.765,2.776,2.776,2.8042,2.8654,2.8756,2.9248,3.0145,3.0251,3.0617,3.119,3.119,3.119,3.119,3.119,3.119,3.119,3.119,3.119,3.119,3.119,3.119,3.119,3.119,3.119,3.119,3.119,3.119,3.1207,3.1343,3.1292,3.1207,3.1343,3.1396,3.1396,3.1396,3.1921,3.2361,3.1732,3.2493,3.3254,3.2632,3.2019,3.1529,3.141,3.1275,3.119,3.119,3.119,3.119,3.119,3.119,3.119,3.119,3.119,3.119,3.119,3.119,3.1258,3.1427,3.1461,3.1478,3.1562,3.1579,3.1579,3.1579,3.1579,3.1579,3.1579,3.1579,3.1579,3.1579,3.1326,3.1258,3.1396,3.1396,3.1461,3.1579,3.2226,3.2496,0.0,0.0,0.0,0.0,0.0,0.0,0.0,0.0,2.3625,0.0,2.4261,2.4933,2.5615,2.5734,2.5959,2.6617,2.6722,2.6941,2.751,2.76,2.76,2.76,2.76,2.76,2.76,2.76,2.76,2.76,2.76,2.76,2.76,2.76,2.7835,2.8367,2.8367,2.8662,2.9271,2.9805,2.987,2.9518,3.0059,3.0617,3.119,3.119,3.119,3.119,3.119,3.119,3.119,3.119,3.119,3.119,3.119,3.119,3.119,3.119,3.119,3.119,3.119,3.119,3.1309,3.1955,3.1718,3.1309,3.1955,3.2158,3.2158,3.2158,3.2679,3.3237,3.3136,3.3254,3.3389,3.3288,3.3186,3.2933,3.2293,3.1667,3.119,3.119,3.119,3.119,3.119,3.119,3.119,3.119,3.119,3.119,3.119,3.119,3.1529,3.2408,3.251,3.2662,3.3085,3.3119,3.3119,3.3119,3.3119,3.3119,3.3119,3.3119,3.3119,3.3119,3.185,3.1495,3.2158,3.2158,3.2476,3.3119,3.322,3.3254,1.3449,0.0,0.0,0.0,0.0,0.0,2.3346,0.0,2.3176,2.3535,2.3834,2.4231,2.4918,2.5038,2.5247,2.5929,2.6033,2.6138,2.6437,2.6806,2.7046,2.7046,2.7375,2.76,2.76,2.76,2.76,2.76,2.76,2.76,2.76,2.76,2.7885,2.8463,2.8487,2.8779,2.9384,2.9651,2.9827,2.9913,3.0518,3.0938,3.119,3.119,3.119,3.119,3.119,3.119,3.119,3.119,3.119,3.119,3.119,3.119,3.119,3.119,3.119,3.119,3.119,3.119,3.1309,3.2056,3.209,3.1955,3.2679,3.2916,3.2916,3.2916,3.344,3.3914,3.3508,3.4015,3.4506,3.3964,3.3931,3.4032,3.4134,3.3237,3.2425,3.2425,3.2425,3.2357,3.2087,3.2036,3.185,3.1275,3.119,3.1799,3.3457,3.3677,3.3825,3.4264,3.3846,3.3508,3.3406,3.3406,3.3406,3.3406,3.3406,3.3406,3.3406,3.3406,3.3406,3.3406,3.2763,3.2594,3.2916,3.2916,3.3085,3.3423,3.3829,3.4015,0.0,0.0,0.0,0.0,0.0,0.0,0.0,0.0,2.2823,0.0,2.349,2.3759,2.4246,2.435,2.456,2.5232,2.5337,2.542,2.5585,2.6033,2.6408,2.6572,2.7046,2.7405,2.7585,2.76,2.76,2.76,2.76,2.7675,2.781,2.7835,2.8116,2.8724,2.8732,2.8943,2.9406,2.9563,2.9935,3.0539,3.0995,3.119,3.119,3.119,3.119,3.119,3.119,3.119,3.119,3.119,3.119,3.119,3.119,3.119,3.119,3.119,3.119,3.1224,3.141,3.1481,3.1613,3.2564,3.2733,3.2733,3.3457,3.3677,3.3677,3.3677,3.4201,3.4658,3.4117,3.4771,3.5414,3.4726,3.4675,3.4827,3.4991,3.4163,3.3406,3.3406,3.3406,3.3254,3.2777,3.2814,3.251,3.136,3.1833,3.3119,3.5312,3.56,3.56,3.56,3.4979,3.4387,3.3977,3.3964,3.3964,3.3964,3.3964,3.3964,3.3964,3.3964,3.3964,3.3964,3.3964,3.388,3.3677,3.3677,3.3778,3.396,3.4523,3.4776,0.0,0.0,0.0,0.0,0.0,0.0,0.0,0.0,2.2703,2.2748,2.3191,2.361,2.3655,2.3655,2.3879,2.4545,2.4649,2.4874,2.5501,2.563,2.5899,2.6512,2.6641,2.6911,2.754,2.76,2.76,2.76,2.76,2.786,2.8415,2.8439,2.8732,2.9339,2.9361,2.9361,2.9406,2.9973,3.0576,3.1151,3.119,3.119,3.119,3.119,3.119,3.119,3.119,3.119,3.119,3.119,3.119,3.119,3.119,3.119,3.119,3.119,3.119,3.1292,3.2005,3.2242,3.2479,3.3914,3.3914,3.3491,3.4218,3.4438,3.4438,3.4438,3.4979,3.5532,3.5498,3.5532,3.5583,3.5532,3.5532,3.516,3.3812,3.3457,3.3406,3.3406,3.3406,3.3254,3.2777,3.3085,3.2882,3.141,3.3592,3.543,3.5583,3.56,3.56,3.56,3.5549,3.5515,3.5481,3.5481,3.5481,3.5481,3.5481,3.5481,3.5481,3.5481,3.5481,3.5481,3.5481,3.5148,3.4438,3.4438,3.481,3.5481,3.5515,3.5532,0.0,0.0,0.0,0.0,0.0,1.9476,2.0429,2.1239,2.198,2.257,2.2868,2.3152,2.3535,2.3595,2.3684,2.3924,2.3969,2.4044,2.4283,2.4702,2.5053,2.5277,2.5704,2.6213,2.6896,2.6971,2.7151,2.757,2.76,2.786,2.8463,2.8487,2.895,2.9951,2.9995,3.0166,3.0539,3.076,3.0995,3.119,3.119,3.119,3.119,3.119,3.119,3.119,3.119,3.119,3.119,3.119,3.119,3.119,3.119,3.119,3.119,3.119,3.1515,3.1955,3.2209,3.2615,3.3169,3.4167,3.432,3.4235,3.4979,3.5216,3.5216,3.5216,3.5397,3.56,3.56,3.56,3.56,3.56,3.56,3.5447,3.4923,3.4805,3.4805,3.4805,3.4805,3.4754,3.4585,3.4687,3.4619,3.4095,3.4906,3.56,3.56,3.56,3.56,3.56,3.56,3.56,3.56,3.56,3.56,3.56,3.56,3.56,3.56,3.56,3.56,3.56,3.56,3.5464,3.5216,3.5216,3.5329,3.56,3.56,3.56,1.0951,0.0,0.0,0.0,0.0,1.7736,1.9861,0.0,2.1095,2.2225,2.2519,2.2763,2.3377,2.3387,2.3355,2.3565,2.3595,2.3595,2.3595,2.3977,2.435,2.4575,2.4993,2.554,2.6198,2.6258,2.6527,2.721,2.7438,2.7929,2.8764,2.8989,2.9563,3.0559,3.0601,3.0797,3.119,3.119,3.119,3.119,3.119,3.119,3.119,3.119,3.119,3.119,3.119,3.119,3.119,3.119,3.119,3.119,3.119,3.119,3.119,3.119,3.1495,3.2005,3.2513,3.2983,3.3558,3.4556,3.4861,3.4962,3.5447,3.56,3.56,3.56,3.56,3.56,3.56,3.56,3.56,3.56,3.56,3.56,3.56,3.56,3.56,3.56,3.56,3.56,3.56,3.56,3.56,3.56,3.56,3.56,3.56,3.56,3.56,3.56,3.56,3.56,3.56,3.56,3.56,3.56,3.56,3.56,3.56,3.56,3.56,3.56,3.56,3.56,3.56,3.56,3.56,3.56,3.56,3.56,0.0,0.0,0.0,0.0,0.0,0.0,2.0383,0.0,2.0035,2.1612,2.2088,2.2454,2.3145,2.2955,2.2888,2.3445,2.358,2.3595,2.3595,2.3595,2.3849,2.4485,2.4575,2.4829,2.5533,2.5585,2.5854,2.6546,2.7156,2.8042,2.9342,3.0,3.058,3.1171,3.119,3.119,3.119,3.119,3.119,3.119,3.119,3.119,3.119,3.119,3.119,3.119,3.119,3.119,3.119,3.119,3.119,3.119,3.119,3.119,3.119,3.119,3.1224,3.1461,3.2899,3.344,3.3711,3.5126,3.56,3.56,3.56,3.56,3.56,3.56,3.56,3.56,3.56,3.56,3.56,3.56,3.56,3.56,3.56,3.56,3.56,3.56,3.56,3.56,3.56,3.56,3.56,3.56,3.56,3.56,3.56,3.56,3.56,3.56,3.56,3.56,3.56,3.56,3.56,3.56,3.56,3.56,3.56,3.56,3.56,3.56,3.56,3.56,3.56,3.56,3.56,3.56,3.56,3.56,1.0199,0.0,0.0,0.0,0.0,0.0,0.0,0.0,1.7706,1.9891,2.0367,2.0845,2.2303,2.2494,2.2376,2.2249,2.2996,2.3595,2.3595,2.3595,2.367,2.3864,2.3879,2.4287,2.535,2.5108,2.5493,2.6942,2.6834,2.7454,2.9163,3.0338,3.1035,3.119,3.119,3.119,3.119,3.119,3.119,3.119,3.119,3.119,3.119,3.119,3.119,3.119,3.119,3.119,3.119,3.119,3.119,3.119,3.119,3.119,3.119,3.119,3.1884,3.2848,3.3271,3.4117,3.5059,3.5464,3.56,3.56,3.56,3.56,3.56,3.56,3.56,3.56,3.56,3.56,3.56,3.56,3.56,3.56,3.56,3.56,3.56,3.56,3.56,3.56,3.56,3.56,3.56,3.56,3.56,3.56,3.56,3.56,3.56,3.56,3.56,3.56,3.56,3.56,3.56,3.56,3.56,3.56,3.56,3.56,3.56,3.56,3.56,3.56,3.56,3.56,3.56,3.56,3.56,3.56,0.0,0.0,0.0,0.0,0.0,0.0,1.5927,1.6365,1.7014,1.9342,1.9932,2.0429,2.1732,2.2079,2.2178,2.2224,2.2858,2.3396,2.3508,2.376,2.3927,2.3927,2.3927,2.4116,2.4597,2.4771,2.5288,2.6372,2.6609,2.7538,2.947,3.0325,3.0886,3.119,3.119,3.119,3.119,3.119,3.119,3.119,3.119,3.119,3.119,3.119,3.119,3.119,3.119,3.119,3.119,3.119,3.119,3.119,3.119,3.119,3.119,3.119,3.1935,3.2983,3.3288,3.4167,3.5199,3.5498,3.56,3.56,3.56,3.56,3.56,3.56,3.56,3.56,3.56,3.56,3.56,3.56,3.56,3.56,3.56,3.56,3.56,3.56,3.56,3.56,3.56,3.56,3.56,3.56,3.56,3.56,3.56,3.56,3.56,3.56,3.56,3.56,3.56,3.56,3.56,3.56,3.56,3.56,3.56,3.56,3.56,3.56,3.56,3.56,3.56,3.56,3.56,3.56,3.56,3.5717,0.0,0.0,0.0,0.0,1.5158,0.0,1.8425,1.7811,1.7044,1.9101,1.9757,2.0179,2.0885,2.1326,2.1757,2.2309,2.2663,2.2954,2.3319,2.3864,2.4269,2.4346,2.4382,2.423,2.3906,2.4692,2.5298,2.5524,2.6558,2.7994,2.9886,3.0074,3.0446,3.1173,3.119,3.119,3.119,3.119,3.119,3.119,3.119,3.119,3.119,3.119,3.119,3.119,3.119,3.119,3.119,3.119,3.119,3.119,3.119,3.119,3.119,3.119,3.1735,3.253,3.3169,3.3947,3.4726,3.538,3.56,3.56,3.56,3.56,3.56,3.56,3.56,3.56,3.56,3.56,3.56,3.56,3.56,3.56,3.56,3.56,3.56,3.56,3.56,3.56,3.56,3.56,3.56,3.56,3.56,3.56,3.56,3.56,3.56,3.56,3.56,3.56,3.56,3.56,3.56,3.56,3.56,3.56,3.56,3.56,3.56,3.56,3.565,3.5694,3.5694,3.5644,3.56,3.56,3.565,3.5941,1.6282,1.6925,1.7676,1.6197,0.0,0.0,1.4894,1.4817,1.5213,0.0,1.6507,1.6859,1.7859,1.8591,1.8931,1.8686,2.0456,2.2151,2.2972,2.3201,2.3486,2.4081,2.4163,2.4518,2.5438,2.5335,2.5551,2.6375,2.7207,2.8123,2.9161,2.9786,3.0446,3.1173,3.119,3.119,3.119,3.119,3.119,3.119,3.119,3.119,3.119,3.119,3.119,3.119,3.119,3.119,3.119,3.119,3.119,3.119,3.119,3.119,3.119,3.119,3.2036,3.322,3.3355,3.4286,3.5397,3.5549,3.56,3.56,3.56,3.56,3.56,3.56,3.56,3.56,3.56,3.56,3.56,3.56,3.56,3.56,3.56,3.56,3.56,3.56,3.56,3.56,3.56,3.56,3.56,3.56,3.56,3.56,3.56,3.56,3.56,3.56,3.56,3.56,3.56,3.56,3.56,3.56,3.56,3.56,3.56,3.56,3.56,3.56,3.6011,3.6228,3.6228,3.5827,3.56,3.5622,3.6032,3.6308,1.8313,1.8606,1.9186,1.807,0.0,0.0,0.0,1.5859,1.59,1.7016,1.6948,1.6968,1.7888,1.8651,1.9074,1.8844,2.0572,2.1988,2.2094,2.2817,2.3494,2.3851,2.3901,2.4193,2.4993,2.5275,2.5759,2.6624,2.7046,2.7588,2.8366,2.9127,2.9888,3.0632,3.1004,3.119,3.119,3.119,3.119,3.119,3.119,3.119,3.119,3.119,3.119,3.119,3.119,3.119,3.119,3.119,3.119,3.119,3.119,3.119,3.119,3.119,3.2138,3.3406,3.3406,3.4366,3.56,3.56,3.56,3.56,3.56,3.56,3.56,3.56,3.56,3.56,3.56,3.56,3.56,3.56,3.56,3.56,3.56,3.56,3.56,3.56,3.56,3.56,3.56,3.56,3.56,3.56,3.56,3.56,3.56,3.56,3.56,3.56,3.56,3.56,3.56,3.56,3.56,3.56,3.56,3.5717,3.6006,3.6006,3.6049,3.6139,3.6416,3.6704,3.7039,3.6786,3.6565,3.6399,3.6395,3.6664,0.0,0.0,0.0,0.0,0.0,1.8628,0.0,0.0,0.0,1.8296,1.8115,0.0,0.0,0.0,1.9355,1.9355,2.0657,2.1346,2.0463,2.1876,2.3043,2.3207,2.3472,2.3736,2.3945,2.458,2.5338,2.6217,2.6133,2.6505,2.7536,2.8484,2.933,3.0072,3.0818,3.119,3.119,3.119,3.119,3.119,3.119,3.119,3.119,3.119,3.119,3.119,3.119,3.119,3.119,3.119,3.119,3.119,3.119,3.119,3.119,3.119,3.2138,3.3406,3.3406,3.4366,3.56,3.56,3.56,3.56,3.56,3.56,3.56,3.56,3.56,3.56,3.56,3.56,3.56,3.56,3.56,3.56,3.56,3.56,3.56,3.56,3.56,3.56,3.56,3.56,3.56,3.56,3.56,3.56,3.56,3.56,3.56,3.56,3.56,3.56,3.56,3.56,3.56,3.56,3.56,3.5788,3.6224,3.6245,3.6312,3.6478,3.6701,3.7078,3.7703,3.7843,3.7649,3.7173,3.6845,3.7117,0.0,0.0,0.0,0.0,2.091,0.0,0.0,0.0,1.833,1.7179,0.0,0.0,0.0,0.0,0.0,1.7061,1.833,1.8804,1.741,1.9065,2.0679,2.1397,2.2627,2.3456,2.3495,2.2996,2.3257,2.4643,2.4137,2.4661,2.6725,2.8214,2.933,3.0072,3.0818,3.119,3.119,3.119,3.119,3.119,3.119,3.119,3.119,3.119,3.119,3.119,3.119,3.119,3.119,3.119,3.119,3.119,3.119,3.119,3.119,3.119,3.2138,3.3406,3.3406,3.4366,3.56,3.56,3.56,3.56,3.56,3.56,3.56,3.56,3.56,3.56,3.56,3.56,3.56,3.56,3.56,3.56,3.56,3.56,3.56,3.56,3.56,3.56,3.56,3.56,3.56,3.56,3.56,3.56,3.56,3.56,3.56,3.56,3.56,3.56,3.56,3.56,3.56,3.56,3.56,3.5622,3.5694,3.5694,3.5694,3.5717,3.6664,3.734,3.7703,3.8302,3.8118,3.7209,3.756,3.779,0.0,0.0,0.0,0.0,0.0,0.0,1.8533,0.0,1.8843,0.0,0.0,0.0,0.0,0.0,0.0,0.0,1.7862,1.7896,1.6851,1.7879,1.9,1.9756,2.0399,2.1312,2.2632,2.2482,2.2919,2.4389,2.341,2.3731,2.5947,2.708,2.8231,2.9414,3.0176,3.0768,3.119,3.119,3.119,3.119,3.119,3.119,3.119,3.119,3.119,3.119,3.119,3.119,3.119,3.119,3.119,3.119,3.119,3.119,3.119,3.119,3.2138,3.3406,3.3406,3.4366,3.56,3.56,3.56,3.56,3.56,3.56,3.56,3.56,3.56,3.56,3.56,3.56,3.56,3.56,3.56,3.56,3.56,3.56,3.56,3.56,3.56,3.56,3.56,3.56,3.56,3.56,3.56,3.56,3.56,3.56,3.56,3.56,3.56,3.56,3.56,3.56,3.56,3.56,3.56,3.56,3.56,3.6381,3.7002,3.7396,3.7843,3.8135,3.8285,3.8562,3.8465,3.8085,3.7946,3.8065,2.2868,0.0,0.0,0.0,0.0,0.0,0.0,0.0,0.0,0.0,0.0,0.0,0.0,0.0,0.0,0.0,0.0,1.7394,1.6265,1.6728,1.7473,1.8211,1.8652,1.9621,2.1485,2.1113,2.1549,2.3441,2.2209,2.2429,2.4881,2.6082,2.73,2.8619,2.96,3.0446,3.119,3.119,3.119,3.119,3.119,3.119,3.119,3.119,3.119,3.119,3.119,3.119,3.119,3.119,3.119,3.119,3.119,3.1309,3.1515,3.1515,3.2442,3.3694,3.3694,3.4539,3.56,3.56,3.56,3.56,3.56,3.56,3.56,3.56,3.56,3.56,3.56,3.56,3.56,3.56,3.56,3.56,3.56,3.56,3.56,3.56,3.56,3.56,3.56,3.56,3.56,3.56,3.56,3.56,3.56,3.56,3.56,3.56,3.56,3.56,3.56,3.56,3.56,3.56,3.56,3.5694,3.5898,3.6981,3.7843,3.8417,3.8611,3.8707,3.8707,3.8707,3.8707,3.8692,3.83,3.8316,2.3765,2.3898,2.3746,2.0775,2.0619,2.0801,1.9249,2.0056,2.1123,0.0,0.0,0.0,0.0,0.0,0.0,0.0,0.0,0.0,0.0,0.0,0.0,0.0,1.8025,1.9215,2.0014,1.8132,1.811,2.1072,1.9887,2.0314,2.3308,2.5507,2.7046,2.7807,2.9311,3.0446,3.119,3.119,3.119,3.119,3.119,3.119,3.119,3.119,3.119,3.119,3.119,3.119,3.119,3.119,3.119,3.119,3.119,3.165,3.2259,3.2259,3.3207,3.4455,3.4455,3.4962,3.56,3.56,3.56,3.56,3.56,3.56,3.56,3.56,3.56,3.56,3.56,3.56,3.56,3.56,3.56,3.56,3.56,3.56,3.56,3.56,3.56,3.56,3.56,3.56,3.56,3.56,3.56,3.56,3.56,3.56,3.56,3.56,3.56,3.56,3.56,3.56,3.56,3.56,3.56,3.592,3.6641,3.7018,3.7396,3.772,3.8366,3.8707,3.8707,3.8707,3.8707,3.8707,3.8692,3.8673,2.4271,2.4677,2.4628,2.2144,2.1735,2.1515,1.998,2.0433,2.119,2.119,0.0,0.0,0.0,0.0,0.0,0.0,0.0,0.0,0.0,0.0,1.5155,0.0,0.0,0.0,0.0,1.7574,1.8268,2.0251,1.9469,2.0213,2.3241,2.4575,2.6031,2.7756,2.8822,2.9956,3.119,3.119,3.119,3.119,3.119,3.119,3.119,3.119,3.119,3.119,3.119,3.119,3.119,3.119,3.1478,3.1938,3.1938,3.2682,3.3647,3.2666,3.3241,3.4556,3.5064,3.538,3.56,3.56,3.56,3.56,3.56,3.56,3.56,3.56,3.56,3.56,3.56,3.56,3.56,3.56,3.56,3.56,3.56,3.56,3.56,3.56,3.56,3.5832,3.6542,3.6664,3.6419,3.5717,3.56,3.6101,3.747,3.7649,3.7649,3.7649,3.7649,3.7649,3.7649,3.7649,3.7649,3.7649,3.7649,3.7755,3.8016,3.8135,3.8252,3.8368,3.8578,3.8707,3.8707,3.8707,3.8964,3.9478,3.9478,3.9478,2.4965,2.5236,2.5119,2.3175,2.2699,2.2347,2.1096,2.1414,2.1986,2.1986,2.2747,2.3325,0.0,0.0,0.0,0.0,0.0,0.0,0.0,1.4723,0.0,0.0,0.0,0.0,0.0,1.6576,1.7168,1.9439,1.8674,1.943,2.246,2.3814,2.5269,2.6962,2.8298,2.9585,3.0801,3.1072,3.119,3.119,3.119,3.119,3.119,3.119,3.119,3.119,3.119,3.119,3.119,3.119,3.1613,3.2293,3.2293,3.3207,3.437,3.3444,3.3846,3.4962,3.543,3.56,3.56,3.56,3.56,3.56,3.56,3.56,3.56,3.56,3.56,3.56,3.56,3.56,3.56,3.56,3.56,3.56,3.56,3.56,3.56,3.56,3.5761,3.6187,3.7174,3.7687,3.754,3.6364,3.6165,3.6646,3.7999,3.8483,3.8927,3.9481,3.9038,3.9166,4.0304,3.9368,3.8707,3.8707,3.8707,3.8707,3.8707,3.9074,3.9221,3.9129,3.9423,3.9536,3.9536,3.9536,3.9827,4.0322,4.0616,4.0744]}]]